[[{"header":{"parameterUnit":"m.s-1","parameterCategory":1,"la1":30.6,"la2":29.2853,"lo1":-89.7004,"lo2":-87.6739,"dy":0.0162,"dx":0.0183,"nx":112,"ny":82,"refTime":"2024-09-19T12:00:00:Z","depth":0,"parameterNumber":2,"parameterNumberName":"U-component_of_WINDS"},"data":[0.0,0.0,0.0,0.0,0.0,0.0,0.0,0.0,0.0,0.0,0.0,0.0,0.0,0.0,0.0,0.0,0.0,0.0,0.0,0.0,0.0,0.0,0.0,0.0,0.0,0.0,0.0,0.0,0.0,0.0,0.0,0.0,0.0,0.0,0.0,0.0,0.0,0.0,0.0,0.0,0.0,0.0,0.0,0.0,0.0,0.0,0.0,0.0,0.0,0.0,0.0,0.0,0.0,0.0,0.0,0.0,0.0,0.0,0.0,0.0,0.0,0.0,0.0,0.0,0.0,0.0,0.0,0.0,0.0,0.0,0.0,0.0,0.0,0.0,0.0,0.0,0.0,0.0,0.0,0.0,0.0,0.0,0.0,0.0,0.0,0.0,0.0,0.0,0.0,0.0,-1.6518,-2.0168,-2.3367,-2.4498,-2.2734,-2.2581,-2.1197,-1.7895,0.0,0.0,0.0,0.0,0.0,0.0,0.0,0.0,0.0,0.0,0.0,0.0,0.0,0.0,0.0,0.0,0.0,0.0,0.0,0.0,0.0,0.0,0.0,0.0,0.0,0.0,0.0,0.0,0.0,0.0,0.0,0.0,0.0,0.0,0.0,0.0,0.0,0.0,0.0,0.0,0.0,0.0,0.0,0.0,0.0,0.0,0.0,0.0,0.0,0.0,0.0,0.0,0.0,0.0,0.0,0.0,0.0,0.0,0.0,0.0,0.0,0.0,0.0,0.0,0.0,0.0,0.0,0.0,0.0,0.0,0.0,0.0,0.0,0.0,0.0,0.0,0.0,0.0,0.0,0.0,0.0,0.0,0.0,0.0,0.0,0.0,0.0,0.0,0.0,0.0,0.0,0.0,0.0,0.0,0.0,0.0,0.0,0.0,0.0,0.0,0.0,0.0,0.0,0.0,-1.693,-2.1708,-2.4006,-2.4498,-2.2734,-2.2581,-2.1173,-1.783,0.0,0.0,0.0,0.0,0.0,0.0,0.0,0.0,0.0,0.0,0.0,0.0,0.0,0.0,0.0,0.0,0.0,0.0,0.0,0.0,0.0,0.0,0.0,0.0,0.0,0.0,0.0,0.0,0.0,0.0,0.0,0.0,0.0,0.0,0.0,0.0,0.0,0.0,0.0,0.0,0.0,0.0,0.0,0.0,0.0,0.0,0.0,0.0,0.0,0.0,0.0,0.0,0.0,0.0,0.0,0.0,0.0,0.0,0.0,0.0,0.0,0.0,0.0,0.0,0.0,0.0,0.0,0.0,0.0,0.0,0.0,0.0,0.0,0.0,0.0,0.0,0.0,0.0,0.0,0.0,0.0,0.0,0.0,0.0,0.0,0.0,0.0,0.0,0.0,0.0,0.0,0.0,0.0,0.0,0.0,0.0,0.0,0.0,0.0,0.0,0.0,0.0,0.0,-1.6705,-1.8383,-2.1593,-2.3045,-2.3275,-2.2052,-2.1922,-2.0652,-1.7793,-1.5647,0.0,0.0,0.0,0.0,0.0,0.0,0.0,0.0,0.0,0.0,0.0,0.0,0.0,0.0,0.0,0.0,0.0,0.0,0.0,0.0,0.0,0.0,0.0,0.0,0.0,0.0,0.0,0.0,0.0,0.0,0.0,0.0,0.0,0.0,0.0,0.0,0.0,0.0,0.0,0.0,0.0,0.0,0.0,0.0,0.0,0.0,0.0,0.0,0.0,0.0,0.0,0.0,0.0,0.0,0.0,0.0,0.0,0.0,0.0,0.0,0.0,0.0,0.0,0.0,0.0,0.0,0.0,0.0,0.0,0.0,0.0,0.0,0.0,0.0,0.0,0.0,0.0,0.0,0.0,0.0,0.0,0.0,0.0,0.0,0.0,0.0,0.0,0.0,0.0,0.0,0.0,0.0,0.0,0.0,0.0,0.0,0.0,0.0,0.0,0.0,0.0,0.0,-1.8794,-1.9759,-2.1254,-2.2128,-2.2281,-2.1483,-2.1,-1.9759,-1.7428,-1.5464,0.0,0.0,0.0,0.0,0.0,0.0,0.0,0.0,0.0,0.0,0.0,0.0,0.0,0.0,0.0,0.0,0.0,0.0,0.0,0.0,0.0,0.0,0.0,0.0,0.0,0.0,0.0,0.0,0.0,0.0,0.0,0.0,0.0,0.0,0.0,0.0,0.0,0.0,0.0,0.0,0.0,0.0,0.0,0.0,0.0,0.0,0.0,0.0,0.0,0.0,0.0,0.0,0.0,0.0,0.0,0.0,0.0,0.0,0.0,0.0,0.0,0.0,0.0,0.0,0.0,0.0,0.0,0.0,0.0,0.0,0.0,0.0,0.0,0.0,0.0,0.0,0.0,0.0,0.0,0.0,0.0,0.0,0.0,0.0,0.0,0.0,0.0,0.0,0.0,0.0,0.0,0.0,0.0,0.0,0.0,0.0,0.0,0.0,0.0,0.0,0.0,0.0,-1.8539,-2.0365,-2.1292,-2.2128,-2.2281,-2.1483,-1.9974,-1.8319,-1.6517,-1.4069,0.0,0.0,0.0,0.0,0.0,0.0,0.0,0.0,0.0,0.0,0.0,0.0,0.0,0.0,0.0,0.0,0.0,0.0,0.0,0.0,0.0,0.0,0.0,0.0,0.0,0.0,0.0,0.0,0.0,0.0,0.0,0.0,0.0,0.0,0.0,0.0,0.0,0.0,0.0,0.0,0.0,0.0,0.0,0.0,0.0,0.0,0.0,0.0,0.0,0.0,0.0,0.0,0.0,0.0,0.0,0.0,0.0,0.0,0.0,0.0,0.0,0.0,0.0,0.0,0.0,0.0,0.0,0.0,0.0,0.0,0.0,0.0,0.0,0.0,0.0,0.0,0.0,0.0,0.0,0.0,0.0,0.0,0.0,0.0,0.0,0.0,0.0,0.0,0.0,0.0,0.0,0.0,0.0,0.0,0.0,0.0,0.0,0.0,0.0,0.0,0.0,0.0,-1.7467,-1.8898,0.0,-2.075,-2.0777,-2.0413,-1.9378,-1.7951,-1.6215,0.0,0.0,0.0,0.0,0.0,0.0,0.0,0.0,0.0,0.0,0.0,0.0,0.0,0.0,0.0,0.0,0.0,0.0,0.0,0.0,0.0,0.0,0.0,0.0,0.0,0.0,0.0,0.0,0.0,0.0,0.0,0.0,0.0,0.0,0.0,0.0,0.0,0.0,0.0,0.0,0.0,0.0,0.0,0.0,0.0,0.0,0.0,0.0,0.0,0.0,0.0,0.0,0.0,0.0,0.0,0.0,0.0,0.0,0.0,0.0,0.0,0.0,0.0,0.0,0.0,0.0,0.0,0.0,0.0,0.0,0.0,0.0,0.0,0.0,0.0,0.0,0.0,0.0,0.0,0.0,0.0,0.0,0.0,0.0,0.0,0.0,0.0,0.0,0.0,0.0,0.0,0.0,0.0,0.0,0.0,0.0,0.0,0.0,0.0,0.0,0.0,0.0,-1.5324,-1.6603,-1.7911,0.0,-1.9792,-1.978,-1.975,-1.8497,-1.7122,-1.5661,0.0,0.0,0.0,0.0,0.0,0.0,0.0,0.0,0.0,0.0,0.0,0.0,0.0,0.0,0.0,0.0,0.0,0.0,0.0,0.0,0.0,0.0,0.0,0.0,0.0,0.0,0.0,0.0,0.0,0.0,0.0,0.0,0.0,0.0,0.0,0.0,0.0,0.0,0.0,0.0,0.0,0.0,0.0,0.0,0.0,0.0,0.0,0.0,0.0,0.0,0.0,0.0,0.0,0.0,0.0,0.0,0.0,0.0,0.0,0.0,0.0,0.0,0.0,0.0,0.0,0.0,0.0,0.0,0.0,0.0,0.0,0.0,0.0,0.0,0.0,0.0,0.0,0.0,0.0,0.0,0.0,0.0,0.0,0.0,0.0,0.0,0.0,0.0,0.0,0.0,0.0,0.0,0.0,0.0,0.0,0.0,0.0,0.0,0.0,0.0,0.0,0.0,-1.4394,-1.6105,-1.7825,-1.9418,-1.9605,-1.9605,-1.9605,-1.7323,-1.5556,0.0,0.0,0.0,0.0,0.0,0.0,0.0,0.0,0.0,0.0,0.0,0.0,0.0,0.0,0.0,0.0,0.0,0.0,0.0,0.0,0.0,0.0,0.0,0.0,0.0,0.0,0.0,0.0,0.0,0.0,0.0,0.0,0.0,0.0,0.0,0.0,0.0,0.0,0.0,0.0,0.0,0.0,0.0,0.0,0.0,0.0,0.0,0.0,0.0,0.0,0.0,0.0,0.0,0.0,0.0,0.0,0.0,0.0,0.0,0.0,0.0,0.0,0.0,0.0,0.0,0.0,0.0,0.0,0.0,0.0,0.0,0.0,0.0,0.0,0.0,0.0,0.0,0.0,0.0,0.0,0.0,0.0,0.0,0.0,0.0,0.0,0.0,0.0,0.0,0.0,0.0,0.0,0.0,0.0,0.0,0.0,0.0,0.0,0.0,0.0,0.0,0.0,0.0,-1.4268,-1.59,-1.7557,-1.9294,-1.9449,-1.9442,-1.9383,-1.7671,-1.5993,-1.457,0.0,0.0,0.0,0.0,0.0,0.0,0.0,0.0,0.0,0.0,0.0,0.0,0.0,0.0,0.0,0.0,0.0,0.0,0.0,0.0,0.0,0.0,0.0,0.0,0.0,0.0,0.0,0.0,0.0,0.0,0.0,0.0,0.0,0.0,0.0,0.0,0.0,0.0,0.0,0.0,0.0,0.0,0.0,0.0,0.0,0.0,0.0,0.0,0.0,0.0,0.0,0.0,0.0,0.0,0.0,0.0,0.0,0.0,0.0,0.0,0.0,0.0,0.0,0.0,0.0,0.0,0.0,0.0,0.0,0.0,0.0,0.0,0.0,0.0,0.0,0.0,0.0,0.0,0.0,0.0,0.0,0.0,0.0,0.0,0.0,0.0,0.0,0.0,0.0,0.0,0.0,0.0,0.0,0.0,0.0,0.0,0.0,0.0,0.0,0.0,0.0,0.0,-1.4485,-1.6044,-1.7543,-1.9008,-1.917,-1.9194,-1.9214,-1.776,-1.6249,-1.4933,0.0,0.0,0.0,0.0,0.0,0.0,0.0,0.0,0.0,0.0,0.0,0.0,0.0,0.0,0.0,0.0,0.0,0.0,0.0,0.0,0.0,0.0,0.0,0.0,0.0,0.0,0.0,0.0,0.0,0.0,0.0,0.0,0.0,0.0,0.0,0.0,0.0,0.0,0.0,0.0,0.0,0.0,0.0,0.0,0.0,0.0,0.0,0.0,0.0,0.0,0.0,0.0,0.0,0.0,0.0,0.0,0.0,0.0,0.0,0.0,0.0,0.0,0.0,0.0,0.0,0.0,0.0,0.0,0.0,0.0,0.0,0.0,0.0,0.0,0.0,0.0,0.0,0.0,0.0,0.0,0.0,0.0,0.0,0.0,0.0,0.0,0.0,0.0,0.0,0.0,0.0,0.0,0.0,0.0,0.0,0.0,0.0,0.0,0.0,0.0,0.0,0.0,-1.4879,-1.6421,-1.7681,-1.868,-1.8769,-1.8843,-1.9027,-1.7635,-1.6363,-1.5518,0.0,0.0,0.0,0.0,0.0,0.0,0.0,0.0,0.0,0.0,0.0,0.0,0.0,0.0,0.0,0.0,0.0,0.0,0.0,0.0,0.0,0.0,0.0,0.0,0.0,0.0,0.0,0.0,0.0,0.0,0.0,0.0,0.0,0.0,0.0,0.0,0.0,0.0,0.0,0.0,0.0,0.0,0.0,0.0,0.0,0.0,0.0,0.0,0.0,0.0,0.0,0.0,0.0,0.0,0.0,0.0,0.0,0.0,0.0,0.0,-1.6155,-1.5485,0.0,0.0,0.0,0.0,0.0,0.0,0.0,0.0,0.0,0.0,0.0,0.0,0.0,0.0,0.0,0.0,0.0,0.0,0.0,0.0,0.0,0.0,0.0,0.0,0.0,0.0,0.0,0.0,0.0,0.0,0.0,0.0,0.0,0.0,0.0,0.0,0.0,0.0,0.0,0.0,-1.4726,-1.6352,-1.7625,-1.8465,-1.8571,-1.859,-1.8603,-1.7745,-1.6597,-1.5176,-1.3996,0.0,0.0,0.0,0.0,0.0,0.0,0.0,0.0,0.0,0.0,0.0,0.0,0.0,0.0,0.0,0.0,0.0,0.0,0.0,0.0,0.0,0.0,0.0,0.0,0.0,0.0,0.0,0.0,0.0,0.0,0.0,0.0,0.0,0.0,0.0,0.0,0.0,0.0,0.0,0.0,0.0,0.0,0.0,0.0,0.0,0.0,0.0,0.0,0.0,0.0,0.0,0.0,0.0,0.0,0.0,0.0,0.0,0.0,0.0,-1.7209,-1.6439,0.0,0.0,0.0,0.0,0.0,0.0,0.0,0.0,0.0,0.0,0.0,0.0,0.0,0.0,0.0,0.0,0.0,0.0,0.0,0.0,0.0,0.0,0.0,0.0,0.0,0.0,0.0,0.0,0.0,0.0,0.0,0.0,0.0,0.0,0.0,0.0,0.0,0.0,0.0,0.0,-1.5063,-1.6663,-1.7734,-1.8238,-1.8328,-1.8368,-1.8502,-1.7727,-1.692,-1.6107,-1.4532,0.0,0.0,0.0,0.0,0.0,0.0,0.0,0.0,0.0,0.0,0.0,0.0,0.0,0.0,0.0,0.0,0.0,0.0,0.0,0.0,0.0,0.0,0.0,0.0,0.0,0.0,0.0,0.0,0.0,0.0,0.0,0.0,0.0,0.0,0.0,0.0,0.0,0.0,0.0,0.0,0.0,0.0,0.0,0.0,0.0,0.0,0.0,0.0,0.0,0.0,0.0,0.0,0.0,-1.9562,-1.997,-2.0995,-2.0395,-2.0292,-2.0487,-1.8453,-1.7767,-1.7943,-1.6668,0.0,0.0,0.0,0.0,0.0,0.0,0.0,0.0,0.0,0.0,0.0,0.0,0.0,0.0,0.0,0.0,0.0,0.0,0.0,0.0,0.0,0.0,-1.6327,-1.6174,-1.7037,-1.7305,-1.5062,0.0,0.0,0.0,0.0,0.0,0.0,0.0,0.0,0.0,0.0,0.0,-1.5813,-1.7216,-1.8042,-1.8207,-1.8091,-1.8097,-1.8318,-1.7666,-1.7201,-1.7107,-1.5218,-1.4066,0.0,0.0,0.0,0.0,0.0,0.0,0.0,0.0,0.0,0.0,0.0,0.0,0.0,0.0,0.0,0.0,0.0,0.0,0.0,0.0,0.0,0.0,0.0,0.0,0.0,0.0,0.0,0.0,0.0,0.0,0.0,0.0,-1.4535,-1.5312,0.0,0.0,0.0,0.0,0.0,0.0,0.0,0.0,0.0,0.0,0.0,0.0,0.0,-1.8961,-2.013,-2.129,-2.178,-2.154,-2.2423,-2.2655,-2.2256,-2.2144,-2.1991,-2.1763,-2.1322,0.0,-1.9029,-1.8161,0.0,0.0,0.0,0.0,0.0,0.0,0.0,0.0,0.0,0.0,0.0,0.0,0.0,0.0,0.0,0.0,0.0,0.0,0.0,0.0,0.0,0.0,-1.8434,-1.793,-1.79,-1.8052,-1.8314,-1.5837,-1.3481,-1.3249,-1.1617,-1.0096,0.0,0.0,0.0,0.0,0.0,0.0,-1.7154,-1.8153,-1.8668,-1.8632,-1.8039,-1.7692,-1.7726,-1.7614,-1.7255,-1.6639,-1.6283,-1.5889,-1.5363,-1.3118,0.0,0.0,0.0,0.0,0.0,0.0,0.0,0.0,0.0,0.0,0.0,0.0,0.0,0.0,0.0,0.0,0.0,0.0,0.0,0.0,0.0,0.0,0.0,0.0,0.0,0.0,0.0,0.0,0.0,-1.4178,-1.5953,-1.6503,-1.6674,-1.6336,0.0,0.0,0.0,0.0,0.0,0.0,0.0,0.0,0.0,-2.0984,-2.1118,-2.1738,-2.2977,-2.3823,-2.4106,-2.3948,-2.4432,-2.4307,-2.3669,-2.3669,-2.3374,-2.2917,-2.2825,-2.2214,-2.1129,-2.0048,-1.9115,-1.8237,0.0,0.0,0.0,0.0,-1.5907,-1.5369,-1.62,-1.5985,-1.5312,-1.5312,0.0,0.0,0.0,0.0,0.0,0.0,0.0,-1.5883,-1.6952,-1.811,-1.9034,-1.9145,-1.9142,-1.9216,-1.9541,-1.7777,-1.6018,-1.571,-1.4881,-1.3763,-1.209,-1.1771,0.0,0.0,0.0,-1.5867,-1.7798,-1.847,-1.8943,-1.9289,-1.851,-1.8009,-1.8212,-1.7681,-1.7176,-1.6868,-1.6275,-1.5894,-1.5759,-1.4195,-1.275,0.0,0.0,0.0,0.0,0.0,0.0,0.0,0.0,0.0,0.0,0.0,0.0,0.0,0.0,0.0,0.0,0.0,0.0,0.0,0.0,0.0,0.0,0.0,0.0,0.0,0.0,0.0,0.0,-1.5404,-1.7047,-1.7883,-1.8517,-1.8408,0.0,0.0,0.0,0.0,0.0,0.0,-2.0196,-2.0,-2.0826,-2.301,-2.3325,-2.3979,-2.498,-2.5398,-2.5615,-2.5615,-2.5615,-2.5322,-2.4844,-2.4844,-2.4575,-2.4118,-2.4118,-2.3759,-2.3092,-2.1804,-2.0892,-2.02,-1.923,-1.8584,-1.8192,-1.854,-1.7936,-1.7075,-1.8466,-1.8254,-1.7377,-1.7377,-1.6834,-1.6099,-1.5621,0.0,0.0,0.0,0.0,-1.6698,-1.8073,-1.8815,-1.9299,-1.9831,-1.9952,-1.9935,-1.9952,-1.9165,-1.8305,-1.7762,-1.7393,-1.66,-1.4766,-1.4409,0.0,-1.4663,-1.5702,-1.701,-1.8473,-1.889,-1.9225,-1.9712,-1.8893,-1.8318,-1.8403,-1.7687,-1.7158,-1.6977,-1.6231,-1.587,-1.608,-1.5161,-1.3862,-1.2164,0.0,0.0,0.0,0.0,0.0,0.0,0.0,0.0,0.0,0.0,0.0,0.0,0.0,0.0,0.0,0.0,0.0,0.0,0.0,0.0,0.0,0.0,0.0,0.0,0.0,0.0,0.0,0.0,0.0,-1.9628,-1.973,0.0,0.0,0.0,0.0,-1.857,-1.9738,-2.1045,-2.2474,-2.3044,-2.3983,-2.5398,-2.4837,-2.4866,-2.5555,-2.5585,-2.5615,-2.5615,-2.5615,-2.5561,-2.5555,-2.5555,-2.5525,-2.5495,-2.5495,-2.5113,-2.4425,-2.3152,-2.2194,-2.1595,-2.1535,-2.1505,-2.1385,-2.0797,-2.0127,-1.9438,-1.8899,-1.8672,-1.8612,-1.8612,-1.7899,-1.7023,-1.6994,-1.6124,0.0,0.0,-1.8137,-1.799,-1.9276,-1.9636,-1.9696,-1.9797,-1.9762,-1.9726,-1.9797,-1.9767,-1.9562,-1.9017,-1.7834,-1.6939,-1.6991,0.0,-1.709,-1.734,-1.8116,-1.8922,-1.9638,-1.9718,-1.9734,-1.9719,-1.9026,-1.8317,-1.7697,-1.762,-1.7304,-1.6668,-1.6578,-1.6546,-1.656,-1.5858,-1.4751,-1.3335,-1.1956,0.0,0.0,0.0,0.0,0.0,0.0,0.0,0.0,0.0,0.0,0.0,0.0,0.0,0.0,0.0,0.0,0.0,0.0,0.0,0.0,0.0,0.0,0.0,0.0,0.0,0.0,0.0,0.0,-2.026,-2.1154,0.0,-2.0764,-2.1385,-2.2024,-2.2452,-2.2562,-2.3161,-2.4477,-2.4358,-2.4866,-2.6183,-2.6004,-2.6213,-2.6896,-2.6896,-2.6896,-2.6896,-2.6896,-2.6662,-2.6243,-2.6243,-2.6004,-2.5615,-2.5615,-2.5202,-2.4575,-2.4096,-2.352,-2.2892,-2.2493,-2.2343,-2.2254,-2.1575,-2.0917,-2.0318,-2.006,-1.9556,-1.8918,-1.866,-1.8302,-1.7992,-1.7992,-1.7689,-1.7498,-1.8348,-1.8413,-1.84,-1.9133,-1.9109,-1.9053,-1.9617,-1.9527,-1.9398,-1.9672,-1.9744,-1.9684,-1.9497,-1.9093,-1.8493,-1.7712,-1.794,-1.8125,-1.7884,-1.8407,-1.9148,-2.0076,-1.9922,-1.9888,-2.0366,-1.9529,-1.875,-1.8349,-1.7703,-1.7073,-1.6386,-1.5791,-1.5518,-1.5671,-1.4873,-1.405,-1.3277,-1.2199,-1.0653,0.0,0.0,0.0,0.0,0.0,0.0,0.0,0.0,0.0,0.0,0.0,0.0,0.0,0.0,0.0,0.0,0.0,0.0,0.0,0.0,0.0,0.0,0.0,0.0,0.0,-1.8715,-2.0198,-2.1525,-2.2652,-2.3161,-2.2742,-2.346,-2.4238,-2.4903,-2.4537,-2.4777,-2.5884,-2.5734,-2.6033,-2.6926,-2.7141,-2.7495,-2.7944,-2.7944,-2.7944,-2.7944,-2.7705,-2.7275,-2.6628,-2.6628,-2.6267,-2.5682,-2.5682,-2.5277,-2.4692,-2.4692,-2.4312,-2.3632,-2.3182,-2.2799,-2.2405,-2.1949,-2.1256,-2.0558,-2.0538,-1.9923,-1.9112,-1.8691,-1.8432,-1.8266,-1.8266,-1.8266,-1.8305,-1.8461,-1.85,-1.8558,-1.8836,-1.8693,-1.8635,-1.9165,-1.9072,-1.8988,-1.9221,-1.9295,-1.9295,-1.9295,-1.9563,-1.9491,-1.8603,-1.8813,-1.8968,-1.8614,-1.8865,-1.9355,-2.0058,-1.9904,-1.9904,-2.0392,-1.9756,-1.9137,-1.8749,-1.7884,-1.709,-1.6404,-1.5597,-1.5221,-1.5394,-1.4602,-1.3913,-1.3409,-1.2339,-1.1192,-0.9925,0.0,0.0,0.0,0.0,0.0,0.0,0.0,0.0,0.0,0.0,0.0,0.0,0.0,0.0,0.0,0.0,0.0,0.0,0.0,0.0,0.0,0.0,0.0,-1.877,-2.0509,-2.2233,-2.3468,-2.4216,-2.4634,-2.4634,-2.4672,-2.497,-2.5621,-2.5657,-2.5956,-2.6662,-2.7265,-2.7594,-2.7619,-2.8252,-2.8584,-2.8584,-2.8584,-2.8581,-2.8525,-2.7893,-2.7258,-2.6683,-2.6683,-2.6336,-2.5797,-2.5797,-2.5459,-2.4898,-2.4898,-2.4507,-2.3884,-2.3671,-2.2972,-2.2026,-2.1932,-2.1248,-2.0294,-2.023,-1.9817,-1.9252,-1.8808,-1.8302,-1.7821,-1.7821,-1.7794,-1.7895,-1.8352,-1.847,-1.8461,-1.8461,-1.8461,-1.8461,-1.8481,-1.8481,-1.8481,-1.85,-1.85,-1.85,-1.85,-1.9128,-1.9672,-1.969,-1.969,-1.969,-1.9708,-1.9708,0.0,-1.9708,-1.9708,-1.9708,-1.9708,-1.9708,-1.9438,-1.8762,-1.8087,-1.7413,-1.6741,-1.6099,-1.5769,-1.5769,-1.5125,-1.4453,-1.3812,-1.2508,-1.182,-1.182,0.0,0.0,0.0,0.0,0.0,0.0,0.0,0.0,0.0,0.0,0.0,0.0,0.0,0.0,0.0,0.0,0.0,0.0,0.0,0.0,0.0,-1.9035,-2.0373,-2.0373,-2.1934,-2.322,-2.3697,-2.4674,-2.5322,-2.5322,-2.6184,-2.7045,-2.7718,-2.7316,-2.7556,-2.873,-2.8013,-2.7822,-2.832,-2.8495,-2.839,-2.7883,-2.8362,-2.8129,-2.7226,-2.7026,-2.663,-2.6041,-2.6041,-2.596,-2.5797,-2.5797,-2.5459,-2.4898,-2.4898,-2.4507,-2.3865,-2.3339,-2.2961,-2.2668,-2.2192,-2.1564,-2.0845,-2.0048,-1.9669,-1.9386,-1.8547,-1.842,-1.8526,-1.813,-1.8024,-1.8046,-1.8169,-1.7891,-1.7605,-1.7908,-1.7767,-1.7707,-1.8344,-1.8246,-1.8088,-1.8422,-1.85,-1.85,-1.85,-1.8674,-1.8921,-1.9213,-1.9269,-1.9362,-1.9672,-1.9708,-1.9708,-1.9708,-1.9708,-1.9708,-1.9708,-1.9708,-1.9438,-1.8762,-1.8087,-1.7413,-1.6741,-1.568,-1.5065,-1.5065,-1.4423,-1.4004,-1.3812,-1.2969,-1.2519,0.0,0.0,0.0,0.0,0.0,0.0,0.0,0.0,0.0,0.0,0.0,0.0,0.0,0.0,0.0,0.0,0.0,0.0,0.0,0.0,0.0,0.0,-2.1015,-2.2145,-2.1952,-2.3215,-2.4278,-2.4622,-2.5246,-2.5795,-2.6032,-2.6757,-2.7479,-2.8126,-2.7797,-2.7967,-2.8708,-2.8024,-2.7764,-2.8168,-2.8454,-2.8365,-2.798,-2.8365,-2.8195,-2.7451,-2.7198,-2.6636,-2.5799,-2.5799,-2.552,-2.5077,-2.5077,-2.4886,-2.4559,-2.4559,-2.4341,-2.3932,0.0,0.0,0.0,0.0,-2.107,-2.0914,-2.0281,-1.9897,-1.9584,-1.9015,-1.8845,-1.8845,-1.8532,-1.8427,-1.8375,-1.8166,-1.7852,-1.7576,-1.7562,-1.7385,-1.7344,-1.7828,-1.7747,-1.7605,-1.7888,-1.7948,-1.7948,-1.7948,-1.7948,0.0,-1.8481,-1.8712,-1.895,-1.9147,-1.9203,-1.9203,-1.9203,-1.9203,-1.9203,-1.9203,-1.9362,-1.9203,-1.8658,-1.815,0.0,0.0,0.0,-1.5254,-1.4747,-1.4573,0.0,0.0,0.0,0.0,0.0,0.0,0.0,0.0,-1.1964,-1.2246,0.0,0.0,0.0,0.0,0.0,0.0,0.0,0.0,0.0,0.0,0.0,0.0,0.0,0.0,0.0,0.0,-2.2727,-2.371,-2.3349,-2.4177,-2.5019,-2.5659,-2.5825,-2.6105,-2.6638,-2.6777,-2.7056,-2.7673,-2.7609,-2.7664,-2.7813,-2.7664,0.0,0.0,0.0,-2.8446,-2.8385,-2.8446,-2.8419,-2.8274,-2.7744,-2.6895,-2.5794,-2.574,-2.5151,-2.4204,-2.4122,-2.4096,-2.4096,-2.4096,-2.4096,-2.4082,-2.3904,-2.2828,-2.1293,-2.0349,-2.0283,-2.0699,-2.0699,0.0,0.0,-1.9812,-1.9473,-1.9081,-1.9028,-1.9002,-1.8898,-1.8427,-1.8192,-1.7983,-1.7434,-1.7251,-1.7199,-1.7199,-1.7199,-1.7199,-1.7199,-1.7199,-1.7199,-1.7199,-1.7199,-1.7323,-1.7666,-1.8108,-1.8442,-1.8481,-1.85,-1.85,-1.85,-1.85,-1.85,-1.85,-1.8836,0.0,-1.8519,-1.8198,-1.7873,-1.7525,-1.6864,-1.5975,-1.4862,-1.5302,-1.5297,-1.4738,-1.5153,-1.5634,-1.6118,-1.6118,-1.5845,-1.5288,-1.3784,-1.4076,0.0,0.0,0.0,0.0,0.0,0.0,0.0,0.0,0.0,0.0,0.0,0.0,0.0,0.0,0.0,-2.1931,-2.2801,-2.3461,-2.3893,-2.4116,-2.4486,-2.5104,-2.5966,-2.6582,-2.6694,-2.7148,-2.769,-2.8258,-2.7827,-2.8002,-2.9075,-2.8098,-2.7771,-2.832,-2.8429,-2.8228,-2.7703,-2.8228,-2.7985,-2.7078,-2.694,0.0,-2.577,-2.5353,-2.503,-2.4809,-2.4308,-2.4096,-2.4096,-2.4096,-2.4096,-2.4047,-2.354,-2.259,-2.1457,-2.125,-2.0988,-2.0699,-2.0699,-2.062,-2.0438,-1.9943,-2.0072,-2.0255,-1.976,-1.963,0.0,-1.9499,-1.8819,-1.8061,-1.7957,-1.7565,-1.7199,-1.7199,-1.7199,-1.7199,-1.7199,-1.7199,-1.7199,-1.7199,-1.7199,-1.722,-1.7303,-1.7646,-1.8048,-1.8442,-1.85,-1.85,-1.85,-1.85,-1.85,-1.85,-1.8558,-1.8577,-1.85,-1.7956,-1.7599,-1.7506,-1.6764,-1.6284,-1.6132,-1.604,-1.6023,-1.6114,-1.5988,-1.6044,-1.6261,-1.6261,-1.6206,-1.6068,-1.5634,-1.5574,0.0,0.0,0.0,0.0,0.0,0.0,0.0,0.0,0.0,0.0,0.0,-1.8358,-2.0286,0.0,-2.2268,-2.35,-2.4151,-2.4592,-2.4905,-2.4931,-2.4842,-2.4585,-2.5062,-2.5614,-2.618,-2.6528,-2.7055,-2.7935,-2.7703,-2.7796,-2.8454,-2.7861,-2.7656,-2.7993,-2.7993,-2.7855,-2.749,-2.7855,-2.7696,-2.7105,-2.7105,-2.6791,-2.6242,-2.5986,-2.5698,-2.5354,-2.4805,-2.4543,-2.4517,-2.423,-2.4096,-2.407,-2.3757,-2.3104,-2.2296,-2.1694,-2.1328,-2.1066,-2.0779,-2.0699,-2.0646,-2.036,-2.0438,-2.0646,-2.0334,-2.0255,-2.0203,-1.9891,-1.9394,-1.8819,-1.8244,-1.7878,-1.7565,-1.7277,-1.7199,-1.7199,-1.7199,-1.7199,-1.7199,-1.7199,-1.7199,-1.7199,-1.7199,-1.7385,-1.7564,-1.7808,-1.7848,-1.7848,-1.7848,-1.7848,-1.7848,-1.7848,-1.8028,-1.8068,-1.7868,-1.7537,-1.7315,-1.7256,-1.6862,-1.651,-1.6262,-1.6413,-1.6394,-1.6159,-1.6316,-1.6409,-1.6382,-1.6382,-1.6382,-1.6382,-1.635,-1.6193,0.0,0.0,0.0,0.0,0.0,0.0,0.0,0.0,-1.7357,-1.9076,-1.9804,-2.0605,-2.2316,-2.3043,-2.3771,-2.4901,-2.548,-2.5793,-2.5793,-2.5793,-2.5401,-2.4413,-2.4387,-2.4775,-2.5715,-2.5897,-2.6425,-2.7411,-2.749,-2.749,-2.749,-2.749,-2.749,-2.749,-2.749,-2.749,-2.749,-2.749,-2.749,-2.749,-2.749,-2.7255,-2.6844,-2.6745,-2.6425,-2.5955,-2.528,-2.4992,-2.494,-2.436,-2.4096,-2.4096,-2.4067,-2.3783,-2.3234,-2.2113,-2.1616,-2.1433,-2.0883,-2.0699,-2.0699,-2.0699,-2.0699,-2.0699,-2.0699,-2.0699,-2.062,-2.01,-1.9891,-1.9603,-1.8662,-1.827,-1.7983,-1.7486,-1.7277,-1.7199,-1.7199,-1.7199,-1.7199,-1.7178,-1.7178,-1.7199,-1.7178,-1.7178,-1.7199,-1.7199,-1.7199,-1.7199,-1.7199,-1.7199,-1.7199,-1.7157,-1.7488,-1.7544,-1.724,-1.7178,-1.7115,-1.6989,-1.6973,-1.6725,-1.6202,-1.659,-1.6574,-1.6033,-1.6422,-1.6633,-1.6543,-1.6421,-1.6325,-1.6325,-1.6325,-1.6312,-1.4311,-1.4423,-1.5254,-1.6905,-1.7208,-1.7795,0.0,0.0,-2.0603,-2.1558,-2.2207,-2.2773,-2.3379,-2.4179,-2.4927,-2.5371,-2.5647,-2.5793,-2.5793,-2.5793,-2.5589,-2.4992,-2.5328,-2.5662,-2.5793,-2.6269,-2.6844,-2.7438,-2.749,-2.749,-2.749,-2.749,-2.749,-2.749,-2.749,-2.749,-2.749,-2.749,-2.749,-2.749,-2.749,-2.7464,-2.7385,-2.6896,-2.6667,-2.6562,-2.5463,-2.4992,-2.494,-2.436,-2.4096,-2.4096,-2.3979,-2.3956,-2.3835,-2.2715,-2.1982,-2.1433,-2.0883,-2.0699,-2.0699,-2.0699,-2.0699,-2.0699,-2.0699,-2.0699,-2.0699,-2.062,-2.0229,-1.9786,-1.9656,-1.8872,-1.8087,-1.8009,-1.7591,-1.7199,-1.7199,-1.7199,-1.7157,-1.7052,-1.7115,-1.7157,-1.7031,-1.7115,-1.7199,-1.7199,-1.7199,-1.7199,-1.7199,-1.7199,-1.7157,-1.7031,-1.7178,-1.7261,-1.7199,-1.7094,-1.701,-1.6989,-1.6825,-1.6757,-1.6786,-1.6646,-1.6625,-1.6765,-1.6603,-1.6565,-1.6675,-1.6086,-1.5793,-1.5793,-1.5793,-1.5942,-1.605,-1.6647,-1.7426,-1.8456,-1.9169,-1.9887,-2.1017,-2.1322,-2.1568,-2.2349,-2.2885,-2.3317,-2.3547,-2.4468,-2.5226,0.0,-2.6116,-2.6655,-2.6655,-2.6369,-2.5985,-2.5537,-2.5636,-2.5793,-2.5793,-2.6033,-2.6556,-2.7411,-2.749,-2.749,-2.749,-2.749,-2.749,-2.749,-2.749,-2.749,-2.749,-2.749,-2.749,-2.749,-2.749,-2.749,-2.749,-2.7288,-2.6935,-2.6499,-2.5909,-2.5252,-2.4632,-2.4369,-2.4086,-2.3806,-2.3747,-2.3747,-2.3702,-2.293,-2.2521,-2.2211,-2.1276,-2.094,-2.0862,-2.0526,-2.0423,-2.0347,-2.0042,-2.0042,-2.0067,-1.9553,-1.9379,-1.9207,-1.8659,-1.8167,-1.7726,-1.7408,-1.6942,-1.664,-1.6929,-1.6809,-1.6731,-1.6905,-1.701,-1.6947,-1.6561,-1.6514,-1.645,-1.6191,-1.6667,-1.7073,-1.7073,-1.7052,-1.6989,-1.6952,-1.6968,-1.7031,-1.7031,-1.6947,-1.691,-1.6825,-1.674,-1.6697,-1.6671,-1.6565,-1.6543,-1.6671,-1.6565,-1.6522,-1.6565,-1.6317,-1.617,-1.617,-1.617,-1.6233,-1.7003,-1.7726,-1.8288,-1.9057,-1.998,-2.073,-2.0934,-2.1322,-2.1787,-2.2301,-2.267,-2.2994,-2.3356,-2.416,-2.4944,-2.5377,-2.6341,-2.6966,-2.6892,-2.6565,-2.609,-2.5435,-2.5386,-2.5517,-2.573,-2.5923,-2.6446,-2.7411,-2.749,-2.749,-2.749,-2.749,-2.749,-2.749,-2.749,-2.749,-2.749,-2.749,-2.749,-2.7423,-2.7423,-2.7423,-2.7356,-2.7129,-2.6755,-2.6205,-2.5669,-2.4903,-2.4029,-2.3879,-2.351,-2.3035,-2.3005,-2.3005,-2.2985,-2.2526,-2.2451,-2.249,-2.1259,-2.0745,-2.0459,-1.9909,-1.9734,-1.9657,-1.9267,-1.9293,-1.9293,-1.8685,-1.8682,-1.872,-1.8005,-1.7716,-1.7503,-1.713,-1.6547,-1.6174,-1.6524,-1.6319,-1.6151,-1.6414,-1.6522,-1.6411,-1.5974,-1.5908,-1.5798,-1.5444,-1.6064,-1.6561,-1.6731,-1.6799,-1.6803,-1.6693,-1.6778,-1.6803,-1.6693,-1.6778,-1.6761,-1.6525,-1.6482,-1.6349,-1.6132,-1.6241,-1.6303,-1.6303,-1.6303,-1.6367,-1.65,-1.6367,-1.6367,-1.65,-1.65,-1.65,-1.6318,-1.6552,-1.6996,-1.8469,-1.9235,-1.9854,-2.0551,-2.1082,-2.1416,-2.1416,-2.1565,-2.1926,-2.2855,-2.3325,-2.4076,-2.5608,-2.6067,-2.6138,-2.5901,-2.6038,-2.5673,-2.432,-2.4375,-2.4828,-2.5521,-2.6257,-2.6896,-2.7464,-2.749,-2.749,-2.749,-2.749,-2.749,-2.749,-2.749,-2.749,-2.749,-2.749,-2.7423,-2.7315,-2.7315,-2.7214,-2.6977,-2.6183,-2.5847,-2.5728,-2.4433,-2.3602,-2.3095,-2.2601,-2.2106,-2.1659,-2.1502,-2.1534,-2.1604,-2.129,-2.1398,-2.1575,-2.0579,-1.9803,-1.9183,-1.8716,-1.8551,-1.8551,-1.8525,-1.8525,-1.8525,-1.8525,-1.8498,-1.8525,-1.8474,-1.8023,-1.7599,-1.7573,-1.6803,-1.6103,-1.6127,-1.5752,-1.5423,-1.5355,-1.54,-1.5399,-1.5333,-1.5377,-1.5399,-1.5399,-1.5378,-1.5557,-1.6058,-1.6479,-1.6543,-1.617,-1.6479,-1.6543,-1.617,-1.6479,-1.6525,-1.6066,-1.5888,-1.5623,-1.5153,-1.5579,-1.582,-1.582,-1.582,-1.6064,-1.65,-1.6042,-1.6064,-1.65,-1.65,-1.65,-1.6537,-1.7332,-1.8069,-1.9569,-2.038,-2.0858,-2.1105,-2.1197,-2.1095,-2.0811,-2.0773,-2.0819,-2.0869,-2.1602,-2.2393,-2.3141,-2.3992,-2.464,-2.4826,-2.4587,-2.4478,-2.4655,-2.4317,-2.4335,-2.512,-2.5646,0.0,-2.7304,-2.7356,-2.7315,-2.718,-2.718,-2.718,-2.718,-2.694,-2.6837,-2.6837,-2.6625,-2.6372,-2.6032,-2.5738,-2.5533,-2.5463,-2.504,-2.4862,-2.4826,-2.4247,-2.3722,-2.3237,-2.3052,-2.2464,-2.1726,-2.1661,-2.1486,-2.125,-2.1123,-2.0882,-2.06,-2.0361,-2.0128,-1.9789,-1.8958,-1.8709,-1.8557,-1.7855,-1.7793,-1.7847,-1.7262,-1.7234,-1.7318,-1.7151,-1.6959,-1.6801,-1.6801,-1.6326,-1.5903,-1.624,-1.5992,-1.5806,-1.6,-1.5868,-1.559,-1.5189,-1.4898,-1.4605,-1.4258,-1.4835,-1.5333,-1.5423,-1.5534,-1.5603,-1.5445,-1.5558,-1.558,-1.5445,-1.5558,-1.558,-1.5424,-1.5379,-1.5266,-1.5108,-1.5266,-1.5356,-1.5356,-1.5356,-1.54,-1.558,-1.54,-1.5424,-1.558,-1.558,-1.5734,-1.6701,-1.7593,-1.8406,-1.9687,-2.0271,-2.0581,-2.0581,-2.0351,-2.0065,-1.9754,-1.9399,-1.9223,-1.9365,-1.9885,-2.0649,-2.1717,-2.2554,-2.326,-2.3836,-2.3637,-2.356,-2.3908,-2.3735,-2.3874,-2.4677,-2.4967,0.0,-2.6305,-2.6556,-2.6552,-2.6437,-2.6576,-2.6639,-2.6639,-2.6432,-2.631,-2.631,-2.6099,-2.5765,-2.5312,-2.4888,-2.4632,-2.4446,-2.4095,-2.3913,-2.3877,-2.3475,-2.3002,-2.2523,-2.2523,-2.1948,-2.1107,-2.1107,-2.0798,-2.0387,-2.0387,-2.0096,-1.9771,-1.9928,-1.9812,-1.9492,-1.8666,-1.8423,-1.8254,-1.7399,-1.7276,-1.7283,-1.6615,-1.6516,-1.663,-1.6431,-1.6402,-1.6402,-1.6402,-1.6022,-1.58,-1.6078,-1.5854,-1.5639,-1.5847,-1.5731,-1.546,-1.506,-1.465,-1.419,-1.3689,-1.4212,-1.472,-1.4834,-1.4994,-1.504,-1.4857,-1.4994,-1.504,-1.4857,-1.4994,-1.504,-1.4857,-1.4857,-1.4766,-1.4559,-1.4766,-1.4857,-1.4857,-1.4857,-1.4926,-1.5108,-1.4926,-1.4949,-1.5108,-1.5108,-1.5266,-1.68,-1.7378,-1.7936,-1.8891,-1.9098,-1.9098,-1.9077,-1.8725,-1.8393,-1.8331,-1.7595,-1.7298,-1.8316,-1.8254,-1.8844,-2.1316,-2.178,-2.2071,-2.2863,-2.3153,-2.3005,0.0,0.0,0.0,0.0,0.0,0.0,-2.4587,-2.5104,-2.5386,-2.5409,-2.5742,-2.596,-2.596,-2.5945,-2.5969,-2.5969,-2.5907,-2.5561,-2.501,-2.4754,-2.4406,-2.3963,-2.3276,-2.2927,-2.2889,-2.2138,-2.1549,-2.1155,-2.1155,-2.0617,-1.9824,-1.9824,-1.9533,-1.9098,-1.9098,-1.9098,-1.9135,-1.9318,-1.8977,-1.834,-1.7874,-1.773,-1.7647,-1.7192,-1.7027,-1.6924,-1.6539,-1.6423,-1.6402,-1.6402,-1.6402,-1.6402,-1.6402,-1.607,-1.5732,-1.5732,-1.538,-1.507,-1.507,-1.5049,-1.5028,-1.5007,-1.4635,-1.42,-1.3721,-1.3638,-1.3808,-1.4303,-1.4743,-1.4857,-1.4396,-1.4766,-1.4834,-1.4396,-1.4766,-1.4834,-1.4373,-1.435,-1.414,-1.3621,-1.4093,-1.435,-1.435,-1.435,-1.4581,-1.5017,-1.4581,-1.4581,-1.5017,-1.5017,-1.504,-1.7275,-1.7854,-1.834,-1.8953,-1.9098,-1.9015,-1.8662,-1.8497,-1.8123,-1.7128,-1.6705,-1.6431,-1.602,-1.6672,0.0,-1.9073,-2.0139,0.0,-2.2475,-2.2674,0.0,-2.3655,0.0,-2.3491,-2.4238,-2.3816,0.0,0.0,-2.4574,-2.5275,-2.5455,-2.5555,-2.5624,-2.5624,-2.5402,-2.5263,-2.5263,-2.4335,-2.3841,-2.3694,-2.2913,-2.2509,-2.2381,-2.2176,-2.2101,-2.2101,-2.1873,-2.1735,-2.1631,-2.1631,-2.1093,-2.0265,-2.0265,-1.9768,-1.9098,-1.9098,-1.9098,-1.9131,-1.9171,-1.9043,-1.8849,-1.8361,-1.8216,-1.8133,-1.7668,-1.7296,-1.6986,-1.6882,-1.6643,-1.6402,-1.6402,-1.6402,-1.6402,-1.6402,-1.6319,-1.6236,-1.6236,-1.6133,-1.6022,-1.6022,-1.5753,-1.5401,-1.5049,-1.4904,-1.478,-1.4656,-1.4345,-1.4038,-1.3828,-1.3905,-1.3952,-1.3834,-1.3905,-1.3928,-1.381,-1.3907,-1.3928,-1.381,-1.381,-1.3739,-1.3621,-1.3739,-1.381,-1.381,-1.381,-1.3858,-1.3999,-1.3858,-1.3881,-1.3999,-1.3999,-1.4359,-1.7823,-1.834,-1.8766,-1.9036,-1.9098,-1.8932,-1.8257,-1.7947,-1.7471,-1.634,-1.578,-1.538,-1.5049,-1.5794,-1.6779,0.0,0.0,0.0,-2.2004,-2.2377,-2.2824,0.0,-2.3634,0.0,-2.4083,-2.376,-2.3577,-2.3764,-2.4258,-2.464,-2.4807,-2.4964,-2.5033,-2.5033,-2.4906,-2.4785,-2.4785,-2.3949,-2.3391,-2.3184,-2.2459,-2.2004,-2.1797,-2.1797,-2.1797,-2.1797,-2.1797,-2.1797,-2.1797,-2.1797,-2.1383,-2.0721,-2.0721,-2.0162,-1.9409,-1.9409,-1.9285,-1.9098,-1.9098,-1.9098,-1.9056,-1.8808,-1.8725,-1.8621,-1.8154,-1.7668,-1.7275,-1.7068,-1.6726,-1.6402,-1.6402,-1.6402,-1.6402,-1.6402,-1.6402,-1.6402,-1.6402,-1.6402,-1.6402,-1.6402,-1.6195,-1.5884,-1.538,-1.5297,-1.5235,-1.5028,-1.478,-1.4449,-1.3972,-1.3721,-1.3597,-1.3597,-1.3597,-1.3597,-1.3597,-1.3597,-1.3597,-1.3597,-1.3597,-1.3597,-1.3597,-1.3597,-1.3597,-1.3597,-1.3597,-1.3597,-1.3597,-1.3597,-1.3597,-1.3597,-1.3803,-1.4202,-1.8393,-1.8787,-1.9098,-1.9098,-1.9056,-1.8754,-1.7812,-1.7254,-1.6655,-1.5711,0.0,-1.4407,-1.4759,-1.5235,-1.6063,-1.7461,0.0,-2.0238,-2.1776,-2.2335,-2.2791,-2.3308,-2.3722,-2.3971,-2.3971,-2.3971,-2.4115,-2.4466,-2.4178,-2.3971,-2.3971,-2.4322,-2.4507,-2.4507,-2.4507,-2.4507,-2.4507,-2.4095,-2.3639,-2.3184,-2.2708,-2.2252,-2.1797,-2.1797,-2.1797,-2.1797,-2.1797,-2.1797,-2.1797,-2.1797,-2.1528,-2.1114,-2.1114,-2.0596,-1.9886,-1.9886,-1.9637,-1.9285,-1.9222,-1.9202,-1.9181,-1.9119,-1.9098,-1.9036,-1.8621,-1.8175,-1.7709,-1.7296,-1.685,-1.6477,-1.6477,-1.6444,-1.6402,-1.6402,-1.6402,-1.6402,-1.6402,-1.6402,-1.6402,-1.6402,-1.6402,-1.6278,-1.5856,-1.5773,-1.5649,-1.5235,-1.5132,-1.4945,-1.4531,-1.4035,-1.3659,-1.3597,-1.3597,-1.3597,-1.3597,-1.3597,-1.3597,-1.3597,-1.3597,-1.3597,-1.3597,-1.3659,-1.3679,-1.3679,-1.3741,-1.3765,-1.3679,-1.3765,-1.3741,-1.37,-1.4179,-1.4428,-1.8849,-1.9036,-1.9098,-1.9098,-1.8808,-1.8257,-1.7337,-1.6779,0.0,0.0,-1.4428,-1.4221,-1.391,-1.4552,-1.5691,-1.742,-1.8547,-2.0114,-2.2584,-2.3018,-2.337,0.0,-2.4342,-2.4383,-2.4383,-2.4383,0.0,0.0,-2.4425,-2.4383,-2.4383,-2.4466,-2.4507,-2.4507,-2.4507,-2.4507,-2.4507,-2.4095,-2.3639,-2.3184,-2.2708,-2.2252,-2.1797,-2.1797,-2.1797,-2.1797,-2.1797,-2.1797,-2.1797,-2.1797,-2.1528,-2.1114,-2.1114,-2.0783,-2.0307,-2.0307,-2.0265,-2.0141,-1.9803,-1.9679,-1.9616,-1.9222,-1.9098,-1.9098,-1.9015,-1.8662,-1.8257,-1.8175,-1.7554,-1.6903,-1.6903,-1.6663,-1.6402,-1.6402,-1.6402,-1.6402,-1.6402,-1.6402,-1.6402,-1.6402,-1.6402,-1.6381,-1.6299,-1.6299,-1.6257,-1.6174,-1.5842,-1.5546,-1.5463,-1.4718,-1.401,-1.3638,-1.3597,-1.3597,-1.3597,-1.3597,-1.3597,-1.3597,-1.3597,-1.3597,-1.3597,-1.3969,-1.4179,-1.4179,-1.4573,-1.4573,-1.4179,-1.4573,-1.4573,-1.42,-1.4656,-1.509,-1.8973,-1.9098,-1.9098,-1.9098,-1.8766,-1.8123,-1.6953,0.0,0.0,0.0,-1.3952,-1.389,-1.3638,-1.4366,0.0,-1.6477,-1.7636,-1.9251,-2.1756,-2.2315,-2.2977,-2.4342,-2.4507,-2.4507,-2.4507,-2.4507,-2.4507,-2.4507,-2.4507,-2.4507,-2.4507,-2.4507,-2.4507,-2.4507,-2.4507,-2.4507,-2.4507,-2.4095,-2.3805,-2.3536,-2.308,-2.2749,-2.2522,-2.2273,-2.217,-2.211,-2.1555,-2.1339,-2.13,-2.0972,-2.0679,-2.0501,-2.0501,-2.0187,-1.9775,-1.9775,-1.9637,-1.942,-1.9223,-1.9041,-1.8839,-1.8587,-1.8778,-1.9098,-1.9098,-1.859,-1.7995,-1.7995,-1.7276,-1.653,-1.653,-1.6226,-1.594,-1.594,-1.5762,-1.5604,-1.5604,-1.5604,-1.5604,-1.5604,-1.5604,-1.5604,-1.5604,-1.5604,-1.5604,-1.5604,-1.5676,-1.5624,-1.5381,-1.5163,-1.4842,-1.4386,-1.4324,-1.4324,-1.4324,-1.4324,-1.4324,-1.4324,-1.4324,-1.4324,-1.4324,-1.4552,-1.4656,-1.4656,-1.4883,-1.4857,-1.4553,-1.4779,-1.4779,-1.4574,-1.492,-1.5246,-1.8973,-1.9098,-1.9098,-1.9098,-1.8683,-1.7905,-1.6693,-1.5967,0.0,-1.389,-1.3597,-1.3597,-1.3597,-1.4221,-1.4945,0.0,-1.6829,-1.837,-2.0783,-2.159,-2.2563,0.0,-2.4445,0.0,-2.4507,-2.4507,0.0,-2.4507,-2.4507,-2.4507,-2.4507,-2.4507,-2.4507,-2.4507,-2.4507,-2.4401,-2.4292,-2.3987,-2.3677,-2.3429,-2.3021,-2.2818,-2.2717,-2.2372,-2.2148,-2.2027,-2.1193,-2.0761,-2.0624,-2.0099,-1.9904,-1.9904,-1.9904,-1.9675,-1.9354,-1.9354,-1.9165,-1.8863,-1.8751,-1.8543,-1.8222,-1.7962,-1.8251,-1.8731,-1.8731,-1.8188,-1.7546,-1.7546,-1.6927,-1.6247,-1.6247,-1.5927,-1.5638,-1.5638,-1.5331,-1.5038,-1.5034,-1.5031,-1.5001,-1.4921,-1.4959,-1.4996,-1.4902,-1.4883,-1.4883,-1.4883,-1.5254,-1.5399,-1.5037,-1.5287,-1.5388,-1.5023,-1.4979,-1.5007,-1.5007,-1.5007,-1.5007,-1.5007,-1.5007,-1.5007,-1.5007,-1.509,-1.5152,-1.5152,-1.5235,-1.5182,-1.492,-1.4946,-1.4879,-1.4751,-1.4982,-1.5116,-1.8973,-1.9098,-1.9098,-1.9098,-1.8423,-1.7523,-1.6601,0.0,-1.478,-1.3783,-1.3597,-1.3597,-1.3597,-1.3659,-1.4304,0.0,0.0,-1.8019,-2.0705,-2.188,-2.2811,-2.3826,0.0,0.0,-2.4507,-2.4507,-2.4507,-2.4507,-2.4507,-2.4507,-2.4507,-2.4507,-2.4507,-2.4507,-2.4507,-2.4206,-2.358,-2.356,-2.3001,-2.1907,-2.185,-2.1659,-2.1275,-2.1237,-2.105,-2.0669,-2.059,-2.0343,-1.9982,-1.9943,-1.9904,-1.9904,-1.9904,-1.9885,-1.9847,-1.9847,-1.9828,-1.9733,-1.9297,-1.9108,-1.892,-1.7824,-1.7483,-1.7545,-1.7545,-1.7491,-1.7419,-1.7419,-1.7101,-1.6746,-1.6746,-1.6411,-1.6059,-1.6059,-1.5748,-1.5441,-1.5432,-1.5451,-1.5331,-1.4974,-1.5185,-1.5317,-1.4959,-1.4883,-1.4883,-1.4883,-1.4961,-1.4971,-1.4904,-1.4963,-1.4973,-1.4906,-1.4967,-1.5007,-1.5007,-1.5007,-1.5007,-1.5007,-1.5007,-1.5007,-1.5007,-1.5401,-1.5628,-1.5628,-1.6042,-1.5986,-1.5341,-1.5417,-1.5158,-1.4619,-1.4659,-1.4679,-1.8464,-1.8891,-1.9098,-1.9098,-1.8189,-1.7073,-1.6212,0.0,-1.4278,-1.3322,-1.3382,-1.3597,-1.3481,-1.3549,-1.401,0.0,0.0,0.0,-1.9127,-2.0017,-2.0925,-2.2251,-2.3186,0.0,0.0,0.0,-2.3711,-2.3299,-2.3236,-2.3236,-2.3236,-2.3667,-2.3711,-2.3256,-2.3236,-2.3125,-2.2862,-2.2862,-2.2591,-2.2095,-2.2095,-2.2019,-2.1868,-2.1323,-2.0948,-2.0763,-1.9793,-1.9263,-1.9046,-1.8508,-1.8258,-1.824,-1.8042,-1.7957,-1.7957,-1.7957,-1.7957,-1.794,-1.7763,-1.7559,-1.732,-1.6822,-1.6522,-1.6353,-1.6633,-1.6524,-1.628,-1.628,-1.6035,-1.5861,-1.5861,-1.5513,-1.5165,-1.4922,-1.4575,-1.4295,-1.4291,-1.4293,-1.4245,-1.4087,-1.4032,-1.393,-1.3777,-1.3604,-1.345,-1.345,-1.3722,-1.3932,-1.3932,-1.4183,-1.4362,-1.4362,-1.4552,-1.4705,-1.4705,-1.4846,-1.477,-1.4431,-1.4742,-1.477,-1.4402,-1.4925,-1.5222,-1.5222,-1.5813,-1.5928,-1.5575,-1.5604,-1.5495,-1.5259,-1.5127,-1.5155,-1.7838,-1.8283,-1.8468,-1.8556,-1.7618,-1.6383,-1.5605,-1.4607,-1.3597,-1.2637,-1.2759,-1.2982,-1.2885,-1.3027,-1.3437,-1.4215,0.0,-1.5385,-1.734,-1.8248,-1.9222,-2.0644,0.0,-2.2324,-2.2032,-2.2459,-2.2536,-2.1987,-2.1943,-2.1854,-2.1676,-2.2138,-2.2403,-2.2403,-2.2271,-2.2094,-2.1872,-2.1721,-2.1543,-2.132,-2.132,-2.132,-2.132,-2.0651,-2.0281,-2.0158,-1.901,-1.8436,-1.8278,-1.7525,-1.7228,-1.7181,-1.6832,-1.6689,-1.6689,-1.6689,-1.6689,-1.6689,-1.6689,-1.6531,-1.6309,-1.6078,-1.5811,-1.5614,-1.5736,-1.558,-1.5356,-1.5256,-1.5133,-1.5026,-1.5026,-1.4812,-1.4516,-1.4307,-1.397,-1.3682,-1.3674,-1.3669,-1.3635,-1.3514,-1.3423,-1.3281,-1.3186,-1.2964,-1.279,-1.279,-1.3105,-1.3306,-1.3238,-1.3481,-1.3674,-1.3571,-1.3778,-1.4025,-1.4321,-1.454,-1.4433,-1.4034,-1.4403,-1.4433,-1.4034,-1.4403,-1.4639,-1.4639,-1.5089,-1.5284,-1.5118,-1.5003,-1.4917,-1.4859,-1.4591,-1.462,-1.7152,-1.7278,-1.6997,-1.7347,-1.6566,-1.5504,-1.4706,-1.3639,-1.26,-1.1775,-1.1616,-1.1616,-1.1616,-1.1884,-1.2272,-1.276,-1.3471,0.0,-1.5652,-1.691,-1.8155,0.0,0.0,-2.0828,-2.1084,-2.0979,-2.0926,-2.0926,-2.0926,-2.0629,-1.9985,-1.994,-2.0692,-2.2359,-2.1961,-2.1338,-2.0637,-2.0167,-1.9546,-1.8827,-1.8827,-1.8827,-1.8827,-1.8827,-1.8637,-1.8348,-1.8287,-1.8052,-1.7676,-1.7328,-1.7228,-1.7181,-1.6832,-1.6689,-1.6689,-1.6689,-1.6689,-1.6689,-1.6689,-1.6689,-1.6585,-1.5851,-1.5623,-1.5467,-1.4756,-1.4797,-1.502,-1.4708,-1.4613,-1.4613,-1.4613,-1.4597,-1.4597,-1.4597,-1.4346,-1.4094,-1.4084,-1.4096,-1.4001,-1.3575,-1.3802,-1.3963,-1.3548,-1.35,-1.35,-1.35,-1.3484,-1.3358,-1.3059,-1.3012,-1.287,-1.2553,-1.2506,-1.2901,-1.392,-1.4004,-1.4004,-1.4004,-1.4004,-1.4004,-1.4004,-1.4004,-1.4004,-1.4004,-1.4034,-1.3927,-1.3717,-1.3304,-1.3061,-1.2934,-1.2439,-1.2602,-1.4757,-1.506,-1.521,-1.5309,-1.4772,-1.3982,-1.325,-1.2675,-1.2104,-1.1277,-1.1384,-1.1566,-1.1491,-1.1485,-1.1907,-1.3268,-1.3497,0.0,0.0,0.0,0.0,-1.8014,-1.8854,-1.9635,0.0,-1.9782,-1.9438,-1.9438,-1.9438,-1.9363,-1.918,-1.9134,-1.9409,-1.9894,-1.982,-1.9592,-1.9363,-1.9225,-1.9042,-1.8781,-1.8781,-1.8781,-1.8781,-1.8458,-1.8257,-1.8149,-1.778,-1.7536,-1.7416,-1.7131,-1.6996,-1.6936,-1.6352,-1.6142,-1.6154,-1.5872,-1.5797,-1.5797,-1.5797,-1.5797,-1.5782,-1.5554,-1.5483,-1.5383,-1.4922,-1.4717,-1.466,-1.4574,-1.4423,-1.431,-1.4525,-1.4418,-1.4274,-1.4274,-1.3949,-1.368,-1.3684,-1.3708,-1.365,-1.3513,-1.3399,-1.3329,-1.3189,-1.298,-1.283,-1.283,-1.283,-1.2785,-1.268,-1.2665,-1.2635,-1.2515,-1.2505,-1.2538,-1.2676,-1.3085,-1.3055,-1.2398,-1.2765,-1.2795,-1.2382,-1.2765,-1.2962,-1.2962,-1.3433,-1.3614,-1.3554,-1.3434,-1.3352,-1.331,-1.3173,-1.321,-1.3148,-1.345,-1.356,-1.373,-1.3288,-1.2662,-1.2096,-1.1556,-1.1016,-1.0508,-1.0554,-1.0681,-1.0582,-1.0805,-1.1255,-1.2063,-1.2534,-1.3212,0.0,0.0,0.0,-1.7204,-1.7878,0.0,-1.8953,-1.8548,-1.8226,-1.8226,-1.8226,-1.8226,-1.8226,-1.8226,-1.8226,-1.8226,-1.8411,-1.855,-1.855,-1.8365,-1.8226,-1.8226,-1.8226,-1.8226,-1.821,-1.7947,-1.7807,-1.7807,-1.7466,-1.7279,0.0,-1.7035,-1.6903,-1.6844,-1.6287,-1.6009,-1.5891,-1.5687,-1.5498,-1.5382,-1.5382,-1.5382,-1.5382,-1.5382,-1.5382,-1.5352,-1.5148,-1.4823,-1.4506,-1.4515,-1.4291,-1.4109,-1.4329,-1.4128,-1.3876,-1.3876,-1.3674,-1.3492,-1.3492,-1.3492,-1.3492,-1.3492,-1.3331,-1.3184,-1.3184,-1.3023,-1.2892,-1.2892,-1.2892,-1.2848,-1.2682,-1.2701,-1.2623,-1.2492,-1.2594,-1.2564,-1.2292,-1.259,-1.254,-1.1973,-1.2296,-1.2328,-1.1958,-1.2296,-1.2504,-1.2504,-1.2917,-1.3123,-1.3123,-1.3123,-1.3123,-1.3123,-1.3359,-1.3484,0.0,-1.2307,-1.1996,-1.2404,-1.2037,-1.1489,-1.1151,-1.0312,0.0,-0.9585,-0.9365,-0.9214,-0.9258,-0.9933,-1.0302,-0.9836,-1.1018,-1.2142,0.0,-1.3783,0.0,0.0,-1.7305,-1.7508,-1.7508,-1.7381,-1.7279,-1.7279,-1.7279,-1.7279,-1.7279,-1.7279,-1.7279,-1.7279,-1.7807,-1.804,-1.804,-1.7559,-1.7279,-1.7279,-1.7279,-1.7279,-1.7279,-1.7279,-1.7279,-1.7279,-1.7279,-1.7279,-1.7264,-1.7004,-1.6932,-1.6903,-1.658,-1.6228,-1.5979,-1.5935,-1.5688,-1.5425,-1.5396,-1.5382,-1.5382,-1.5382,-1.5382,-1.5382,-1.5382,-1.4999,-1.454,-1.454,-1.4306,-1.4042,-1.4027,-1.3755,-1.3521,-1.3506,-1.3492,-1.3492,-1.3492,-1.3492,-1.3492,-1.3492,-1.3492,-1.3492,-1.3492,-1.3492,-1.3492,-1.3492,-1.3492,-1.3389,-1.3082,-1.3038,-1.2921,-1.2594,-1.2862,-1.2921,-1.2614,-1.2536,-1.2541,-1.2492,-1.2492,-1.2492,-1.2492,-1.2492,-1.2492,-1.2492,-1.2492,-1.2492,-1.2492,-1.2492,-1.2492,-1.2526,-1.3135,-1.3435,-0.9926,0.0,-1.0222,-1.0297,-1.0392,-1.0381,0.0,-0.9975,-0.9848,-0.9405,-0.9244,-0.9346,-0.979,-0.9468,-0.9643,-1.1179,-1.1748,-1.2375,-1.3492,-1.4962,0.0,-1.7175,-1.7305,-1.7348,-1.7348,-1.7328,-1.7279,-1.7279,-1.7279,-1.7279,-1.7279,-1.7279,-1.7279,-1.7279,-1.7419,-1.7466,-1.7466,-1.7372,-1.7279,-1.7279,-1.7279,-1.7279,-1.7279,-1.7279,-1.7279,-1.7279,-1.7279,-1.7279,-1.7279,-1.7252,-1.7223,-1.7179,-1.6903,-1.6741,-1.6624,-1.6096,-1.5862,-1.576,-1.5469,-1.5382,-1.5382,-1.5382,-1.5382,-1.5382,-1.5382,-1.5104,-1.4798,-1.4798,-1.4604,-1.4335,-1.4086,-1.3931,-1.3799,-1.355,-1.3492,-1.3492,-1.3492,-1.3492,-1.3492,-1.3492,-1.3492,-1.3492,-1.3492,-1.3492,-1.3492,-1.3492,-1.3492,-1.3462,-1.3389,-1.3375,-1.3345,-1.3272,-1.3331,-1.3345,-1.3272,-1.3038,-1.2755,-1.2507,-1.2492,-1.2492,-1.2492,-1.2492,-1.2492,-1.2492,-1.2492,-1.2492,-1.2492,-1.2492,-1.2492,-1.2492,-1.2646,-1.2747,-0.9292,-0.9716,-1.0053,-1.0053,-1.0082,-1.0053,-0.9877,-0.9526,0.0,0.0,0.0,-0.9082,-0.9394,-0.9629,-1.0126,-1.1194,-1.2116,-1.3214,-1.4662,0.0,-1.6815,-1.7267,-1.7279,-1.7279,-1.7279,-1.7279,-1.7279,-1.7279,-1.7279,-1.7279,-1.7279,-1.7279,-1.7279,-1.7279,-1.7279,-1.7279,-1.7279,-1.7279,-1.7279,-1.7279,-1.7279,-1.7279,-1.7279,-1.7279,-1.7279,-1.7279,-1.7279,-1.7279,-1.7279,-1.7279,-1.7279,-1.7311,-1.7135,-1.7035,-1.6844,-1.6301,-1.6038,-1.5862,-1.5498,-1.5382,-1.5382,-1.5382,-1.5382,-1.5382,-1.5382,-1.5265,-1.5119,-1.5119,-1.49,-1.4648,-1.4472,-1.4311,-1.4203,-1.3989,-1.3945,-1.3945,-1.3945,-1.3828,-1.3726,-1.3726,-1.3594,-1.3492,-1.3492,-1.3492,-1.3492,-1.3492,-1.3492,-1.3492,-1.3492,-1.3492,-1.3492,-1.3492,-1.3492,-1.3492,-1.3492,-1.3331,-1.3155,-1.298,-1.2965,-1.2965,-1.2965,-1.2965,-1.2965,-1.2965,-1.2965,-1.2965,-1.2965,-1.2965,-1.2965,-1.2965,-1.2965,-1.2965,-0.9438,-1.0155,-1.0726,-1.055,-1.0375,-1.0228,-1.0185,0.0,0.0,0.0,0.0,0.0,-0.9053,-1.0153,0.0,-1.1033,-1.2541,-1.4267,-1.5833,-1.6521,-1.702,-1.7296,-1.7279,-1.7279,-1.7279,-1.7279,-1.7279,-1.7279,-1.7279,-1.7279,-1.7279,-1.7279,-1.7279,-1.7279,-1.7279,-1.7279,-1.7279,-1.7279,-1.7279,-1.7279,-1.7279,-1.7279,-1.7279,-1.7279,-1.7279,-1.7279,-1.7279,-1.7279,-1.7279,-1.7279,-1.7279,-1.7279,-1.7279,-1.7165,-1.6932,-1.6609,-1.6243,-1.5935,-1.5513,-1.5382,-1.5382,-1.5382,-1.5382,-1.5382,-1.5382,-1.5382,-1.5382,-1.5382,-1.5192,-1.4958,-1.4915,-1.4735,-1.457,-1.4526,-1.4511,-1.4511,-1.4511,-1.4291,-1.41,-1.41,-1.3828,-1.3638,-1.3638,-1.3638,-1.3638,-1.3638,-1.3638,-1.3638,-1.3638,-1.3638,-1.3638,-1.3638,-1.3594,-1.3565,-1.3565,-1.3521,-1.3492,-1.3492,-1.3492,-1.3492,-1.3492,-1.3492,-1.3492,-1.3492,-1.3492,-1.3492,-1.3492,-1.3492,-1.3492,-1.3492,-1.3492,-1.3492,-0.9438,-1.0492,-1.1239,-1.0375,-1.055,-1.0887,-1.0608,0.0,0.0,0.0,0.0,0.0,0.0,-1.0711,-1.118,-1.2789,-1.3989,-1.5189,-1.6565,-1.6844,-1.702,-1.7296,-1.7279,-1.7279,-1.7279,-1.7279,-1.7279,-1.7279,-1.7279,-1.7279,-1.7279,-1.7279,-1.7279,-1.7279,-1.7279,-1.7279,-1.7279,-1.7279,-1.7279,-1.7279,-1.7279,-1.7279,-1.7279,-1.7279,-1.7279,-1.7279,-1.7279,-1.7279,-1.7279,-1.7279,-1.7279,-1.7279,-1.7279,-1.725,-1.7223,-1.6947,-1.6624,-1.6213,-1.5586,-1.5382,-1.5382,-1.5382,-1.5382,-1.5382,-1.5382,-1.5382,-1.5382,-1.5382,-1.5352,-1.525,-1.4973,-1.4871,-1.4754,-1.4531,-1.4511,-1.4511,-1.4511,-1.4467,-1.4438,-1.4438,-1.4394,-1.4364,-1.4364,-1.4364,-1.4364,-1.4364,-1.4364,-1.4364,-1.4364,-1.4364,-1.4364,-1.4364,-1.4077,-1.3901,-1.3901,-1.3653,-1.3492,-1.3492,-1.3492,-1.3492,-1.3492,-1.3492,-1.3492,-1.3492,-1.3492,-1.3492,-1.3492,-1.3492,-1.3492,-1.3492,-1.3492,-1.3492,-0.8883,-0.9881,-1.0648,-1.0248,-1.0655,-1.1164,-1.1147,-1.0597,0.0,0.0,0.0,0.0,0.0,0.0,-1.2745,-1.4516,-1.5467,-1.6184,-1.6815,-1.7004,-1.7165,-1.7311,-1.7279,-1.7138,-1.6763,-1.6716,-1.6527,-1.6136,-1.6089,-1.6089,-1.6089,-1.6089,-1.6089,-1.6089,-1.6089,-1.6089,-1.6089,-1.6089,-1.6339,-1.6716,-1.6716,-1.6527,-1.6089,-1.6089,-1.6089,-1.6136,-1.6527,-1.648,-1.6136,-1.6527,-1.648,-1.6089,-1.6089,-1.6089,-1.6062,-1.5763,-1.5463,-1.512,-1.4805,-1.4602,-1.448,-1.448,-1.4414,-1.4321,-1.4321,-1.4321,-1.4321,-1.4321,-1.4838,-1.5352,-1.5206,-1.5163,-1.5133,-1.5028,-1.4984,-1.4984,-1.4984,-1.4853,-1.4721,-1.4721,-1.4589,-1.4511,-1.4511,-1.4511,-1.4511,-1.4511,-1.4511,-1.4511,-1.4511,-1.4511,-1.4511,-1.4511,-1.4379,-1.4291,-1.4291,-1.4144,-1.3872,-1.3521,-1.3492,-1.3492,-1.3492,-1.3492,-1.3492,-1.3492,-1.3492,-1.3492,-1.3492,-1.3492,-1.3492,-1.3492,-1.3492,-1.3492,-0.824,-0.9018,-0.9644,-0.9845,-1.0456,-1.1125,-1.149,-1.0724,0.0,0.0,0.0,0.0,0.0,-1.2312,-1.3977,-1.529,-1.6192,-1.6685,-1.6501,-1.6793,-1.6998,-1.681,-1.6763,-1.6574,-1.5994,-1.5947,-1.5724,-1.514,-1.5105,-1.5105,-1.5105,-1.5105,-1.5105,-1.5105,-1.5105,-1.5105,-1.5105,-1.5105,-1.5391,-1.5947,-1.5947,-1.5663,-1.5105,-1.5105,-1.5105,-1.5153,-1.571,-1.5615,-1.514,-1.5724,-1.5615,-1.5105,-1.5105,-1.5105,-1.5067,-1.474,-1.4452,-1.4204,-1.4141,-1.3976,-1.3799,-1.3724,-1.3615,-1.3481,-1.3417,-1.3392,-1.3392,-1.3392,-1.4068,-1.4824,-1.509,-1.5173,-1.5215,-1.534,-1.5257,-1.5173,-1.5173,-1.4972,-1.4758,-1.4758,-1.4692,-1.4652,-1.4692,-1.4652,-1.4652,-1.4692,-1.4692,-1.4692,-1.4692,-1.4692,-1.4692,-1.4692,-1.4579,-1.4467,-1.4355,-1.4379,-1.4176,-1.3681,-1.3689,-1.3726,-1.3726,-1.3726,-1.3726,-1.3726,-1.3726,-1.3726,-1.3726,-1.3726,-1.3726,-1.3726,-1.3726,-1.3726,-0.7808,-0.8193,-0.8436,-0.8962,-0.9768,-1.064,-1.1344,-1.1037,0.0,-1.1527,0.0,0.0,0.0,-1.2801,-1.3817,-1.4263,-1.5404,-1.6015,-1.5305,-1.5839,-1.6042,-1.533,-1.5248,-1.5248,-1.5201,-1.5201,-1.5153,-1.5105,-1.5105,-1.5105,-1.5105,-1.5105,-1.5105,-1.5105,-1.5105,-1.5105,-1.5105,-1.5105,-1.5153,-1.5201,-1.5201,-1.5153,-1.5105,-1.5105,-1.5105,-1.5105,-1.5153,-1.5153,-1.5105,-1.5153,-1.5153,-1.5105,-1.5105,-1.5105,-1.5067,-1.474,-1.4566,-1.4515,-1.4204,-1.4103,-1.4052,-1.3787,-1.3698,-1.3635,-1.3468,-1.3392,-1.3392,-1.3392,-1.3167,-1.3142,-1.4181,-1.4475,-1.4615,-1.5257,-1.4908,-1.4475,-1.4475,-1.4461,-1.4448,-1.4448,-1.4768,-1.5101,-1.5323,-1.5184,-1.5101,-1.5323,-1.5323,-1.5323,-1.5323,-1.5323,-1.5323,-1.5323,-1.4883,-1.4379,-1.3884,-1.4013,-1.4116,-1.4073,-1.4268,-1.4438,-1.4438,-1.4438,-1.4438,-1.4438,-1.4438,-1.4438,-1.4438,-1.4438,-1.4438,-1.4438,-1.4438,-1.4438,-0.6912,-0.7475,-0.7955,-0.8204,-0.8644,0.0,0.0,-1.1139,-1.1492,-1.2497,-1.2535,0.0,0.0,0.0,-1.3648,-1.4389,-1.5084,-1.5425,-1.5153,-1.533,-1.5439,-1.5153,-1.5105,-1.4914,-1.4376,-1.434,-1.4148,-1.3715,-1.3667,-1.3667,-1.3667,-1.3329,-1.3184,-1.3184,-1.2834,-1.2689,-1.2689,-1.2689,-1.2689,-1.2689,-1.38,-1.3956,-1.3184,-1.3184,-1.299,-1.2689,-1.3162,-1.3113,-1.2689,-1.3162,-1.3076,-1.2689,-1.2689,-1.2689,-1.2678,-1.2544,-1.2512,-1.2502,-1.2738,-1.2476,-1.2102,-1.2341,-1.2062,-1.1674,-1.1485,-1.1421,-1.1389,-1.1327,-1.1154,-1.1402,-1.293,-1.3142,-1.2972,-1.3226,-1.3099,-1.2887,-1.2887,-1.2887,-1.2887,-1.2887,-1.3057,-1.3184,-1.3269,-1.3226,-1.3184,-1.3269,-1.3269,-1.3269,-1.3269,-1.3789,-1.4181,-1.4181,-1.4462,-1.4558,-1.4405,-1.4432,-1.4472,-1.4472,-1.432,-1.434,-1.4511,-1.4511,-1.4511,-1.4511,-1.4511,-1.4433,-1.4262,-1.4262,-1.4184,-1.4052,-1.4052,-1.4052,-0.5984,-0.6451,-0.6962,-0.7326,0.0,0.0,-0.9987,-1.0588,-1.1109,-1.2296,-1.2563,-1.2552,-1.2694,0.0,-1.2848,-1.3613,-1.4158,-1.4472,-1.4388,-1.458,-1.4567,-1.4184,-1.4136,-1.3848,-1.3136,-1.3028,-1.2845,-1.2322,-1.2273,-1.2273,-1.2273,-1.1932,-1.1736,-1.1736,-1.1394,-1.1198,-1.1198,-1.1198,-1.1198,-1.1198,-1.2457,-1.2603,-1.1736,-1.1736,-1.1541,-1.1247,-1.1717,-1.1668,-1.1247,-1.1717,-1.1668,-1.1198,-1.1198,-1.1198,-1.1198,-1.1198,-1.1198,-1.1247,-1.1639,-1.1395,-1.0972,-1.1249,-1.1028,-1.0538,-1.0378,-1.0276,-1.0284,-1.0187,-1.0061,-1.0229,-1.1444,-1.1772,-1.1826,-1.2067,-1.1946,-1.176,-1.176,-1.1705,-1.1692,-1.1692,-1.1821,-1.1938,-1.198,-1.1949,-1.1938,-1.198,-1.198,-1.198,-1.198,-1.2547,-1.293,-1.2845,-1.3451,-1.3789,-1.362,-1.3971,-1.4181,-1.4181,-1.4172,-1.4311,-1.4565,-1.4565,-1.4565,-1.4565,-1.4565,-1.4471,-1.4271,-1.4271,-1.4231,-1.4071,-1.4071,-1.4071,-0.511,-0.5118,-0.5344,-0.6336,0.0,0.0,-0.891,-0.9214,-0.9536,-1.066,-1.1091,-1.1129,-1.0621,-1.0944,-1.1338,-1.1569,-1.2443,-1.3028,-1.2807,-1.3426,-1.3426,-1.2127,-1.198,-1.1785,-1.1247,-1.1198,-1.1198,-1.1198,-1.1198,-1.1198,-1.1198,-1.1198,-1.1198,-1.1198,-1.1198,-1.1198,-1.1198,-1.1198,-1.1198,-1.1198,-1.1198,-1.1198,-1.1198,-1.1198,-1.1198,-1.1198,-1.1198,-1.1198,-1.1198,-1.1198,-1.1198,-1.1198,-1.1198,-1.1198,-1.1198,-1.1198,-1.1198,-1.1198,-1.1198,-1.1198,-1.1161,-1.0866,-1.0801,-1.0754,-1.0538,-1.0482,-1.0473,-1.0473,-1.0158,-0.9786,-0.9786,-1.0505,-1.1413,-1.2269,-1.1822,-1.1172,-1.1172,-1.1095,-1.0992,-1.0992,-1.1359,-1.1735,-1.1949,-1.1821,-1.1735,-1.1949,-1.1992,-1.1992,-1.1992,-1.1992,-1.1906,-1.1735,-1.1852,-1.1821,-1.1327,-1.2334,-1.2972,-1.2972,-1.3873,-1.4475,-1.4699,-1.4699,-1.4699,-1.4699,-1.4699,-1.4699,-1.4699,-1.4699,-1.4699,-1.4699,-1.4699,-1.4699,-0.5417,-0.5823,-0.6302,-0.6581,0.0,0.0,0.0,-0.9266,0.0,0.0,-1.1029,-1.0886,-1.0745,-1.0839,-1.0953,-1.102,-1.1781,-1.2165,-1.1736,-1.2165,-1.2262,-1.1541,-1.1443,-1.1394,-1.1198,-1.1198,-1.1198,-1.1198,-1.1198,-1.1198,-1.1198,-1.0855,-1.0659,-1.0659,-1.0265,-1.0068,-1.0068,-1.0068,-1.0068,-1.0068,-1.0068,-1.0265,-1.0659,-1.0659,-1.0413,-1.0068,-1.0068,-1.0068,-1.0068,-1.0068,-1.0068,-1.0068,-1.0068,-1.0068,-1.0068,-1.0068,-1.0068,-1.0117,-1.0511,-1.0413,-1.0109,-1.044,-1.0276,-0.9949,-0.9762,-0.975,-0.9677,-0.955,-0.9423,-0.9354,-0.9479,-0.9708,-0.9968,-1.0074,-0.9919,-0.9745,-0.9745,-0.9701,-0.9666,-0.9666,-0.9794,-0.9885,-0.9967,-0.9804,-0.966,-0.9749,-0.9684,-0.9811,-1.0453,-1.0539,-1.0755,-1.1359,-1.1488,-1.1445,-1.1327,-1.1617,-1.1789,-1.1789,-1.2046,-1.2984,-1.4643,-1.4699,-1.4699,-1.4699,-1.4097,-1.4013,-1.4475,-1.3184,-1.3154,-1.425,-1.3603,-1.3294,-0.5547,-0.6034,-0.6596,-0.692,-0.7602,-0.8276,-0.8633,0.0,0.0,0.0,-1.0554,-1.0485,-1.0373,-1.0416,-1.0532,-1.0614,-1.1065,-1.1345,-1.1198,-1.1492,-1.1492,-1.0953,-1.0904,-1.0806,-1.0609,-1.056,-1.056,-1.056,-1.056,-1.056,-1.056,-1.0265,-1.0068,-1.0068,-0.9772,-0.9575,-0.9575,-0.9575,-0.9575,-0.9575,-0.9575,-0.9772,-1.0068,-1.0068,-0.992,-0.9575,-0.9575,-0.9575,-0.9575,-0.9575,-0.9575,-0.9575,-0.9575,-0.9575,-0.9575,-0.9575,-0.9575,-0.9624,-0.9969,-0.9871,-0.9673,-0.9969,-0.9871,-0.9608,-0.9494,-0.9462,-0.9445,-0.934,-0.9307,-0.9332,-0.9437,-0.9462,-0.9437,-0.9332,-0.925,-0.9202,-0.9202,-0.9145,-0.9096,-0.9096,-0.9096,-0.9096,-0.9096,-0.9007,-0.8934,-0.8934,-0.8844,-0.8996,-0.9526,-0.9571,-0.9795,-1.0365,-1.041,-1.0381,-1.0284,-1.0636,-1.0814,-1.0766,-1.1111,-1.1918,-1.3281,-1.3366,-1.3366,-1.3366,-1.2814,-1.2772,-1.3154,-1.2089,-1.2046,-1.2966,-1.24,-1.2143,-0.5571,-0.5967,-0.6441,-0.7347,-0.7813,-0.8308,-0.9192,-0.9388,-0.9453,-0.9592,0.0,-0.9969,-0.9649,-0.9835,-1.0114,-1.0288,-1.0364,-1.056,-1.1002,-1.11,-1.0953,-1.0413,-1.0314,-1.0117,-0.9624,-0.9575,-0.9575,-0.9575,-0.9575,-0.9575,-0.9575,-0.9575,-0.9575,-0.9575,-0.9575,-0.9575,-0.9575,-0.9575,-0.9575,-0.9575,-0.9575,-0.9575,-0.9575,-0.9575,-0.9575,-0.9575,-0.9575,-0.9575,-0.9575,-0.9575,-0.9575,-0.9575,-0.9575,-0.9575,-0.9575,-0.9575,-0.9575,-0.9575,-0.9575,-0.9575,-0.9575,-0.9575,-0.9575,-0.9575,-0.9575,-0.9575,-0.9575,-0.9575,-0.9575,-0.9575,-0.9575,-0.9575,-0.9575,-0.9575,-0.9502,-0.9429,-0.9429,-0.9259,-0.9145,-0.9145,-0.9145,-0.9145,-0.9145,-0.9129,-0.9112,-0.9096,-0.9096,-0.9096,-0.9096,-0.9096,-0.9096,-0.9096,-0.9096,-0.9031,-0.8861,-0.9606,-1.0018,-0.9842,-1.0609,-1.1077,-1.1056,-1.1208,-1.1284,-1.1284,-1.1241,-1.1198,-1.1284,-1.1111,-1.1154,-1.1284,-1.1198,-1.1154,-0.6034,-0.64,-0.6808,-0.7675,-0.8276,-0.8739,-0.9072,-0.9306,-0.9453,-0.9592,-0.9649,-0.9682,-0.9624,-0.9649,-0.9731,-0.9772,-1.0117,-1.0314,-0.9969,-1.0314,-1.0364,-0.9821,-0.9772,-0.9723,-0.9624,-0.9575,-0.9575,-0.9575,-0.9575,-0.9575,-0.9575,-0.9575,-0.9575,-0.9575,-0.9575,-0.9575,-0.9575,-0.9575,-0.9575,-0.9575,-0.9575,-0.9575,-0.9575,-0.9575,-0.9575,-0.9575,-0.9575,-0.9575,-0.9575,-0.9575,-0.9575,-0.9575,-0.9575,-0.9575,-0.9575,-0.9575,-0.9575,-0.9575,-0.9575,-0.9575,-0.9575,-0.9575,-0.9575,-0.9575,-0.9575,-0.9575,-0.9575,-0.9575,-0.9575,-0.9575,-0.9575,-0.9575,-0.9575,-0.9575,-0.96,-0.9567,-0.9567,-0.9543,-0.951,-0.951,-0.951,-0.951,-0.951,-0.9397,-0.9298,-0.912,-0.9096,-0.9096,-0.9096,-0.9096,-0.9096,-0.9096,-0.9096,-0.908,-0.9039,-0.9225,-0.9292,-0.9259,-0.948,-0.9503,-0.9347,-1.0596,-1.1284,-1.1284,-1.0593,-1.0549,-1.1284,-0.9864,-0.9907,-1.1284,-1.0549,-1.0202,-0.6148,-0.6611,-0.7102,-0.813,0.0,-0.8869,-0.9056,-0.9169,-0.9283,-0.9462,-0.9567,-0.9575,-0.9575,-0.9575,-0.9575,-0.9575,-0.9821,-0.992,-0.9624,-0.9821,-0.992,-0.9624,-0.9575,-0.9575,-0.9575,-0.9575,-0.9575,-0.9575,-0.9575,-0.9575,-0.9575,-0.9575,-0.9575,-0.9575,-0.9575,-0.9575,-0.9575,-0.9575,-0.9575,-0.9575,-0.9575,-0.9575,-0.9575,-0.9575,-0.9575,-0.9575,-0.9575,-0.9575,-0.9575,-0.9575,-0.9575,-0.9575,-0.9575,-0.9575,-0.9575,-0.9575,-0.9575,-0.9575,-0.9575,-0.9575,-0.9575,-0.9575,-0.9575,-0.9575,-0.9575,-0.9575,-0.9575,-0.9575,-0.9575,-0.9575,-0.9575,-0.9575,-0.9575,-0.9575,-0.9575,-0.9575,-0.9575,-0.9575,-0.9575,-0.9575,-0.9575,-0.9575,-0.9575,-0.9551,-0.9453,-0.9364,-0.9348,-0.9348,-0.9348,-0.9348,-0.9348,-0.9348,-0.9348,-0.9315,-0.9226,-0.9265,-0.9185,-0.9104,-0.9096,-0.9056,-0.8958,-0.9759,-1.0197,-1.0093,-0.9606,-0.9606,-1.0093,-0.9086,-0.9087,-0.9994,-0.9515,-0.9253,-0.5825,-0.6549,-0.728,-0.8446,-0.8755,0.0,-0.8966,-0.9031,-0.9096,-0.9322,-0.9453,-0.9583,-0.9583,-0.9608,-0.9567,-0.9583,-0.9608,-0.9575,-0.9575,-0.9575,-0.9575,-0.9575,-0.9575,-0.9616,-0.9583,-0.9583,-0.9583,-0.9583,-0.9583,-0.9592,-0.9575,-0.9575,-0.9575,-0.9575,-0.9575,-0.9575,-0.9575,-0.9575,-0.9575,-0.9575,-0.9575,-0.9575,-0.9575,-0.9575,-0.9575,-0.9575,-0.9575,-0.9575,-0.9575,-0.9575,-0.9575,-0.9575,-0.9575,-0.9575,-0.9575,-0.9575,-0.9575,-0.9575,-0.9575,-0.9575,-0.9575,-0.9575,-0.9575,-0.9575,-0.9575,-0.9575,-0.9575,-0.9575,-0.9575,-0.9575,-0.9575,-0.9575,-0.9575,-0.9575,-0.9575,-0.9575,-0.9575,-0.9575,-0.9575,-0.9575,-0.9575,-0.9575,-0.9575,-0.9575,-0.9575,-0.9575,-0.9575,-0.9575,-0.9575,-0.9575,-0.9575,-0.9575,-0.9575,-0.9567,-0.9461,-0.9453,-0.934,-0.9194,-0.9185,-0.9177,-0.9145,-0.9169,-0.9104,-0.8917,-0.8885,-0.8869,-0.8869,-0.8731,-0.8686,-0.8653,-0.8653,-0.8637,-0.464,0.0,-0.7212,0.0,-0.8479,-0.8653,0.0,0.0,-0.8909,-0.9096,-0.9267,-0.9437,-0.9437,-0.9518,-0.9575,-0.9469,-0.9527,-0.9575,-0.9575,-0.9575,-0.9575,-0.9575,-0.9575,-0.9567,-0.9453,-0.9437,-0.9437,-0.9437,-0.9437,-0.9462,-0.9567,-0.9575,-0.9575,-0.9575,-0.9575,-0.9575,-0.9575,-0.9575,-0.9575,-0.9575,-0.9575,-0.9575,-0.9575,-0.9575,-0.9575,-0.9575,-0.9575,-0.9575,-0.9575,-0.9575,-0.9575,-0.9575,-0.9575,-0.9575,-0.9575,-0.9575,-0.9575,-0.9575,-0.9575,-0.9575,-0.9575,-0.9575,-0.9575,-0.9575,-0.9575,-0.9575,-0.9575,-0.9575,-0.9575,-0.9575,-0.9575,-0.9575,-0.9575,-0.9575,-0.9575,-0.9575,-0.9575,-0.9575,-0.9575,-0.9575,-0.9575,-0.9575,-0.9575,-0.9575,-0.9575,-0.9575,-0.9575,-0.9575,-0.9575,-0.9575,-0.9575,-0.9575,-0.9575,-0.9616,-0.9592,-0.9592,-0.9583,-0.9559,-0.951,-0.9486,-0.9371,-0.947,-0.947,-0.9331,-0.9137,-0.9064,-0.9064,-0.9039,-0.8942,-0.8787,-0.8787,-0.8706,-0.458,-0.5507,-0.6479,0.0,-0.7869,-0.804,-0.85,-0.8625,-0.8755,-0.9039,-0.9161,-0.9267,-0.947,-0.9575,-0.96,-0.9518,-0.9575,-0.9592,-0.9486,-0.9478,-0.9437,-0.934,-0.9332,-0.9299,-0.9218,-0.921,-0.9298,-0.9396,-0.9404,-0.9486,-0.9616,-0.9575,-0.9575,-0.9575,-0.9575,-0.9575,-0.9575,-0.9575,-0.9575,-0.9575,-0.9575,-0.9575,-0.9575,-0.9575,-0.9575,-0.9575,-0.9575,-0.9575,-0.9575,-0.9575,-0.9575,-0.9575,-0.9575,-0.9575,-0.9575,-0.9575,-0.9575,-0.9575,-0.9575,-0.9575,-0.9575,-0.9575,-0.9575,-0.9575,-0.9575,-0.9575,-0.9575,-0.9575,-0.9575,-0.9575,-0.9575,-0.9575,-0.9575,-0.9575,-0.9575,-0.9575,-0.9575,-0.9575,-0.9575,-0.9575,-0.9575,-0.9575,-0.9575,-0.9575,-0.9575,-0.9575,-0.9575,-0.9575,-0.9575,-0.9575,-0.9575,-0.9575,-0.9575,-0.9575,-0.9575,-0.9575,-0.9575,-0.9575,-0.9575,-0.9592,-0.951,-0.9583,-0.9592,-0.951,-0.9332,-0.929,-0.929,-0.9145,-0.9056,-0.8974,-0.8974,-0.8934,-0.443,0.0,-0.5487,-0.6646,-0.7021,-0.7325,0.0,-0.8348,-0.8543,-0.8985,-0.9129,-0.9259,-0.9567,-0.9592,-0.9543,-0.9502,-0.9494,-0.9445,-0.9355,-0.9339,-0.929,-0.9112,-0.9096,-0.908,-0.9031,-0.9031,-0.9096,-0.9322,-0.9339,-0.9388,-0.9567,-0.9575,-0.9575,-0.9575,-0.9575,-0.9575,-0.9575,-0.9575,-0.9575,-0.9575,-0.9575,-0.9575,-0.9575,-0.9575,-0.9575,-0.9575,-0.9575,-0.9575,-0.9575,-0.9575,-0.9575,-0.9575,-0.9575,-0.9575,-0.9575,-0.9575,-0.9575,-0.9575,-0.9575,-0.9575,-0.9575,-0.9575,-0.9575,-0.9575,-0.9575,-0.9575,-0.9575,-0.9575,-0.9575,-0.9575,-0.9575,-0.9575,-0.9575,-0.9575,-0.9575,-0.9575,-0.9575,-0.9575,-0.9575,-0.9575,-0.9575,-0.9575,-0.9575,-0.9575,-0.9575,-0.9575,-0.9575,-0.9575,-0.9575,-0.9575,-0.9575,-0.9575,-0.9575,-0.9575,-0.9575,-0.9575,-0.9575,-0.9575,-0.9575,-0.9575,-0.9575,-0.9575,-0.9575,-0.9575,-0.9494,-0.9469,-0.9469,-0.9299,-0.921,-0.9161,-0.9161,-0.9137,-0.3559,-0.3972,0.0,-0.5407,-0.5988,-0.6485,0.0,-0.768,-0.8086,-0.8916,-0.9273,-0.9445,-0.9592,-0.9486,-0.9363,-0.9153,-0.9129,-0.912,-0.9112,-0.9112,-0.9104,-0.9096,-0.9096,-0.9031,-0.8852,-0.8836,-0.8909,-0.9096,-0.9112,-0.9267,-0.9558,-0.9575,-0.9575,-0.9575,-0.9575,-0.9575,-0.9575,-0.9575,-0.9575,-0.9575,-0.9575,-0.9575,-0.9575,-0.9575,-0.9575,-0.9575,-0.9575,-0.9575,-0.9575,-0.9575,-0.9575,-0.9575,-0.9575,-0.9575,-0.9575,-0.9575,-0.9575,-0.9575,-0.9575,-0.9575,-0.9575,-0.9575,-0.9575,-0.9575,-0.9575,-0.9575,-0.9575,-0.9575,-0.9575,-0.9575,-0.9575,-0.9575,-0.9575,-0.9575,-0.9575,-0.9575,-0.9575,-0.9575,-0.9575,-0.9575,-0.9575,-0.9575,-0.9575,-0.9575,-0.9575,-0.9575,-0.9575,-0.9575,-0.9575,-0.9575,-0.9575,-0.9575,-0.9575,-0.9575,-0.9575,-0.9575,-0.9575,-0.9575,-0.9575,-0.9575,-0.9575,-0.9575,-0.9575,-0.9575,-0.9567,-0.9616,-0.9616,-0.9558,-0.951,-0.9388,-0.9388,-0.9298,-0.2911,0.0,0.0,-0.4589,-0.5035,-0.5483,-0.6398,-0.6754,-0.7125,-0.8166,-0.8472,-0.8705,-0.9373,-0.9445,-0.938,-0.9322,-0.9169,-0.9056,-0.8934,-0.8917,-0.8877,-0.8771,-0.8755,-0.8731,-0.8666,-0.8658,-0.8779,-0.908,-0.9096,-0.925,-0.9558,-0.9575,-0.9575,-0.9575,-0.9575,-0.9575,-0.9575,-0.9575,-0.9575,-0.9575,-0.9575,-0.9575,-0.9575,-0.9575,-0.9575,-0.9575,-0.9575,-0.9575,-0.9575,-0.9575,-0.9575,-0.9575,-0.9575,-0.9575,-0.9575,-0.9575,-0.9575,-0.9575,-0.9575,-0.9575,-0.9575,-0.9575,-0.9575,-0.9575,-0.9575,-0.9575,-0.9575,-0.9575,-0.9575,-0.9575,-0.9575,-0.9575,-0.9575,-0.9575,-0.9575,-0.9575,-0.9575,-0.9575,-0.9575,-0.9575,-0.9575,-0.9575,-0.9575,-0.9575,-0.9575,-0.9575,-0.9575,-0.9575,-0.9575,-0.9575,-0.9575,-0.9575,-0.9575,-0.9575,-0.9575,-0.9575,-0.9575,-0.9575,-0.9575,-0.9575,-0.9575,-0.9575,-0.9575,-0.9575,-0.9575,-0.9575,-0.9575,-0.9575,-0.9592,-0.9527,-0.9527,-0.9494,-0.2344,0.0,0.0,0.0,-0.4062,-0.4411,-0.5543,-0.5859,-0.6208,-0.7294,-0.7602,-0.7846,-0.8475,-0.8547,-0.8659,-0.913,-0.9031,-0.8877,-0.8755,-0.8739,-0.869,-0.862,-0.8612,-0.8612,-0.8612,-0.8661,-0.8779,-0.9072,-0.9153,-0.9315,-0.9558,-0.9575,-0.9575,-0.9575,-0.9575,-0.9575,-0.9575,-0.9575,-0.9575,-0.9575,-0.9575,-0.9575,-0.9575,-0.9575,-0.9575,-0.9575,-0.9575,-0.9575,-0.9575,-0.9575,-0.9575,-0.9575,-0.9575,-0.9575,-0.9575,-0.9575,-0.9575,-0.9575,-0.9575,-0.9575,-0.9575,-0.9575,-0.9575,-0.9575,-0.9575,-0.9575,-0.9575,-0.9575,-0.9575,-0.9575,-0.9575,-0.9575,-0.9575,-0.9575,-0.9575,-0.9575,-0.9575,-0.9575,-0.9575,-0.9575,-0.9575,-0.9575,-0.9575,-0.9575,-0.9575,-0.9575,-0.9575,-0.9575,-0.9575,-0.9575,-0.9575,-0.9575,-0.9575,-0.9575,-0.9575,-0.9575,-0.9575,-0.9575,-0.9575,-0.9575,-0.9575,-0.9575,-0.9575,-0.9575,-0.9575,-0.9575,-0.9575,-0.9575,-0.9575,-0.9575,-0.9575,-0.9575,0.0,0.0,0.0,0.0,0.0,0.0,-0.4665,-0.5004,-0.5355,-0.6343,-0.6773,-0.6954,-0.6967,-0.6814,-0.7138,-0.8495,-0.8629,-0.8524,-0.8524,-0.8524,-0.8524,-0.8524,-0.8524,-0.8524,-0.8524,-0.8678,-0.8802,-0.9033,-0.9211,-0.9389,-0.9567,-0.9575,-0.9575,-0.9575,-0.9575,-0.9575,-0.9575,-0.9575,-0.9575,-0.9575,-0.9575,-0.9575,-0.9575,-0.9575,-0.9575,-0.9575,-0.9575,-0.9575,-0.9575,-0.9575,-0.9575,-0.9575,-0.9575,-0.9575,-0.9575,-0.9575,-0.9575,-0.9575,-0.9575,-0.9575,-0.9575,-0.9575,-0.9575,-0.9575,-0.9575,-0.9575,-0.9575,-0.9575,-0.9575,-0.9575,-0.9575,-0.9575,-0.9575,-0.9575,-0.9575,-0.9575,-0.9575,-0.9575,-0.9575,-0.9575,-0.9575,-0.9575,-0.9575,-0.9575,-0.9575,-0.9575,-0.9575,-0.9575,-0.9575,-0.9575,-0.9575,-0.9575,-0.9575,-0.9575,-0.9575,-0.9575,-0.9575,-0.9575,-0.9575,-0.9575,-0.9575,-0.9575,-0.9575,-0.9575,-0.9575,-0.9575,-0.9575,-0.9575,-0.9575,-0.9575,-0.9575,-0.9575,-0.1627,0.0,0.0,0.0,0.0,0.0,0.0,-0.3893,-0.4298,-0.5485,-0.578,-0.6014,-0.6655,-0.6752,-0.6788,-0.7039,-0.703,-0.701,-0.701,-0.701,-0.701,-0.701,-0.701,-0.701,-0.701,-0.7143,-0.7283,-0.7429,-0.7576,-0.7973,-0.8669,-0.9278,-0.9575,-0.9575,-0.9575,-0.9575,-0.9575,-0.9575,-0.9575,-0.9575,-0.9575,-0.9575,-0.9575,-0.9575,-0.9484,-0.9335,-0.9335,-0.9179,-0.9072,-0.9426,-0.9575,-0.9575,-0.9575,-0.9575,-0.9575,-0.9575,-0.9575,-0.9575,-0.9575,-0.9575,-0.9575,-0.9575,-0.9575,-0.9575,-0.9575,-0.9575,-0.9575,-0.9385,-0.9335,-0.9278,-0.9072,-0.9023,-0.9023,-0.9023,-0.9179,-0.9335,-0.9335,-0.9476,-0.9575,-0.9575,-0.9575,-0.9575,-0.9575,-0.9575,-0.9575,-0.9575,-0.9575,-0.9575,-0.9575,-0.9575,-0.9575,-0.9575,-0.9575,-0.9575,-0.9575,-0.9575,-0.9575,-0.9575,-0.9575,-0.9575,-0.9575,-0.9575,-0.9575,-0.9575,-0.9575,-0.9575,-0.9575,-0.9575,-0.9575,-0.9575,-0.9575,-0.9575,0.0,0.0,0.0,0.0,0.0,0.0,-0.3147,-0.3303,-0.3589,-0.4454,-0.4714,-0.488,-0.5443,-0.5518,-0.5529,-0.5468,-0.5473,-0.5709,-0.6334,-0.6384,-0.6384,-0.6384,-0.6384,-0.6384,-0.6384,-0.6557,-0.6691,-0.6767,-0.6954,-0.729,-0.7875,-0.8329,-0.8733,-0.908,-0.908,-0.9278,-0.9575,-0.9575,-0.9426,-0.908,-0.8874,-0.857,-0.8273,-0.8024,-0.7826,-0.7677,-0.7677,-0.7627,-0.7471,-0.7819,-0.8471,-0.9278,-0.9377,-0.908,-0.8676,-0.9229,-0.908,-0.8676,-0.9122,-0.9327,-0.9426,-0.9327,-0.9327,-0.9426,-0.9278,-0.9278,-0.913,-0.8528,-0.8024,-0.7677,-0.7521,-0.7471,-0.7471,-0.7471,-0.7577,-0.7677,-0.7677,-0.7826,-0.8273,-0.9377,-0.9575,-0.9575,-0.9575,-0.9575,-0.9575,-0.9575,-0.9575,-0.9575,-0.9575,-0.9575,-0.9575,-0.9575,-0.9575,-0.9575,-0.9575,-0.9575,-0.9575,-0.9575,-0.9575,-0.9575,-0.9575,-0.9575,-0.9575,-0.9575,-0.9484,-0.9377,-0.9278,-0.9476,-0.9575,-0.9575,-0.9484,-0.9434,0.0,0.0,0.0,0.0,0.0,0.0,-0.2764,-0.2924,-0.3098,-0.3443,-0.3608,-0.3697,-0.381,-0.3831,-0.3887,-0.4057,-0.4101,-0.458,-0.5968,-0.6163,-0.6163,-0.6163,-0.6163,-0.6163,-0.6163,-0.6331,-0.6461,-0.6538,-0.6828,-0.7009,-0.708,-0.7135,-0.7534,-0.8237,-0.828,-0.8634,-0.9426,-0.9327,-0.8924,-0.828,-0.767,-0.7018,-0.6271,-0.5822,-0.5572,-0.5572,-0.5572,-0.5522,-0.5522,-0.5522,-0.6675,-0.8471,-0.8726,-0.8074,-0.7173,-0.8379,-0.8024,-0.7173,-0.8124,-0.8577,-0.8783,-0.8528,-0.8627,-0.8783,-0.8528,-0.8421,-0.8223,-0.7273,-0.6271,-0.5522,-0.5522,-0.5522,-0.5522,-0.5522,-0.5522,-0.5572,-0.5572,-0.5572,-0.6321,-0.8676,-0.9278,-0.9377,-0.9476,-0.9525,-0.9525,-0.9525,-0.9525,-0.9525,-0.9525,-0.9525,-0.9525,-0.9525,-0.9525,-0.9525,-0.9525,-0.9525,-0.9525,-0.9525,-0.9525,-0.9525,-0.9525,-0.9525,-0.9525,-0.9525,-0.9286,-0.9031,-0.8825,-0.9278,-0.9525,-0.9525,-0.9278,-0.9137,0.0,0.0,0.0,0.0,0.0,0.0,-0.2165,-0.2253,-0.2415,-0.2877,-0.2971,-0.3048,-0.3222,-0.3262,-0.3295,-0.3392,-0.3512,-0.3902,-0.463,-0.4696,-0.4696,-0.4696,-0.4696,-0.4696,-0.4696,-0.479,-0.4888,-0.5034,-0.5748,-0.6216,-0.6242,-0.6842,-0.7285,-0.7434,-0.7434,-0.7733,-0.8287,-0.7478,-0.7173,-0.7422,-0.647,-0.5922,-0.5772,-0.5672,-0.5477,-0.5277,-0.5277,-0.5177,-0.4972,-0.4972,-0.5472,-0.6221,-0.6271,-0.6121,-0.5922,-0.6221,-0.6121,-0.5922,-0.6171,-0.6271,-0.6271,-0.6221,-0.6271,-0.6271,-0.6221,-0.6221,-0.6121,-0.5727,-0.5277,-0.4972,-0.4972,-0.4972,-0.4972,-0.4972,-0.5127,-0.5277,-0.5277,-0.5427,-0.5772,-0.6271,-0.7074,-0.7925,-0.8825,-0.8973,-0.8973,-0.8973,-0.8973,-0.8973,-0.8973,-0.8973,-0.8973,-0.8973,-0.8973,-0.8973,-0.8973,-0.8973,-0.8973,-0.8973,-0.8973,-0.8973,-0.8973,-0.8973,-0.8973,-0.8973,-0.8924,-0.8874,-0.8825,-0.8924,-0.8973,-0.8973,-0.8924,-0.8874,0.0,0.0,0.0,-0.1366,0.0,0.0,0.0,-0.1962,-0.2134,-0.2429,-0.2473,-0.2498,-0.2672,-0.269,-0.268,-0.2822,-0.3113,-0.3401,-0.3475,-0.3968,-0.43,-0.43,-0.43,-0.43,-0.43,-0.434,-0.4422,-0.4608,-0.5085,-0.539,-0.5386,-0.5787,-0.6082,-0.6182,-0.6182,-0.6381,-0.6781,-0.6276,-0.5927,-0.5777,-0.4972,-0.4372,-0.3974,-0.3723,-0.3525,-0.3425,-0.3425,-0.3324,-0.3224,-0.3224,-0.3374,-0.3723,-0.4926,-0.4977,-0.4475,-0.5177,-0.4977,-0.4475,-0.5022,-0.5277,-0.5377,-0.5222,-0.5277,-0.5377,-0.5222,-0.4826,-0.4375,-0.4225,-0.3726,-0.3224,-0.3224,-0.3224,-0.3224,-0.3224,-0.3324,-0.3425,-0.3425,-0.3525,-0.3773,-0.4325,-0.4826,-0.5622,-0.6974,-0.767,-0.8024,-0.8024,-0.8471,-0.8825,-0.8825,-0.8825,-0.8825,-0.8825,-0.8825,-0.8825,-0.8825,-0.8825,-0.8825,-0.8825,-0.8825,-0.8825,-0.8825,-0.8825,-0.8726,-0.8577,-0.8577,-0.8528,-0.8379,-0.8379,-0.8528,-0.8775,-0.8676,-0.8577,0.0,0.0,0.0,0.0,0.0,-0.1485,0.0,0.0,0.0,-0.2028,-0.2011,-0.1995,-0.2108,-0.2088,-0.2119,-0.2294,-0.2679,-0.2844,-0.2649,-0.3429,-0.4004,-0.4063,-0.4182,-0.4246,-0.4246,-0.4202,-0.4287,-0.4532,-0.4454,-0.444,-0.4602,-0.4526,-0.4583,-0.483,-0.483,-0.4977,-0.5272,-0.5072,-0.4726,-0.4178,-0.3522,-0.2871,-0.2221,-0.1819,-0.1617,-0.1617,-0.1617,-0.1617,-0.1617,-0.1617,-0.1617,-0.1819,-0.3726,-0.3827,-0.3022,-0.4128,-0.3827,-0.3022,-0.3874,-0.4325,-0.4479,-0.4275,-0.4325,-0.4479,-0.4225,-0.3572,-0.2874,-0.2874,-0.2271,-0.1617,-0.1617,-0.1617,-0.1617,-0.1617,-0.1617,-0.1617,-0.1617,-0.1617,-0.1868,-0.2723,-0.2874,-0.3425,-0.5172,-0.6171,-0.6725,-0.6725,-0.7471,-0.8024,-0.8024,-0.8223,-0.8329,-0.8329,-0.8528,-0.8627,-0.8627,-0.8627,-0.8627,-0.8627,-0.8627,-0.8627,-0.8627,-0.8627,-0.8528,-0.8336,-0.8336,-0.8237,-0.7988,-0.7988,-0.8237,-0.8627,-0.8428,-0.8336,0.0,0.0,0.0,0.0,-0.1265,0.0,0.0,0.0,-0.1261,-0.1466,0.0,-0.1503,-0.159,0.0,0.0,-0.1692,-0.1851,-0.206,-0.2376,-0.2648,-0.2918,-0.3302,-0.3763,-0.4025,-0.4025,-0.381,-0.3866,-0.4384,-0.3656,-0.3436,-0.3971,-0.3598,-0.338,-0.343,-0.343,-0.3679,-0.4175,-0.3224,-0.2972,-0.3324,-0.232,-0.1767,-0.1667,-0.1617,-0.1617,-0.1617,-0.1617,-0.1617,-0.1617,-0.1617,-0.1617,-0.1617,-0.192,-0.1918,-0.1819,-0.1969,-0.1918,-0.1819,-0.1918,-0.1969,-0.2019,-0.1969,-0.1969,-0.2019,-0.1969,-0.1868,-0.1768,-0.1768,-0.1718,-0.1617,-0.1617,-0.1617,-0.1617,-0.1617,-0.1617,-0.1617,-0.1617,-0.1617,-0.1617,-0.1768,-0.1768,-0.2421,-0.4526,-0.4972,-0.5072,-0.5072,-0.5172,-0.5272,-0.5272,-0.6082,-0.6686,-0.6686,-0.7534,-0.8088,-0.8088,-0.8088,-0.8088,-0.8088,-0.8088,-0.8088,-0.8088,-0.8088,-0.8088,-0.8038,-0.8038,-0.8038,-0.7988,-0.7988,-0.8038,-0.8088,-0.8038,-0.8038,0.0,0.0,0.0,0.0,0.0,0.0,-0.1138,0.0,-0.1127,0.0,0.0,0.0,0.0,0.0,0.0,0.0,-0.1522,-0.1699,-0.1611,-0.21,-0.2586,-0.2885,-0.3077,-0.332,-0.3617,-0.3498,-0.3654,-0.4263,-0.3456,-0.3215,-0.3792,-0.3439,-0.3044,-0.2723,-0.2725,-0.2672,-0.2622,-0.217,-0.207,-0.2271,-0.1817,-0.1617,-0.1617,-0.1617,-0.1617,-0.1617,-0.1617,-0.1617,-0.1617,-0.1617,-0.1617,-0.1617,-0.1617,-0.1617,-0.1617,-0.1617,-0.1617,-0.1617,-0.1617,-0.1617,-0.1617,-0.1617,-0.1617,-0.1617,-0.1617,-0.1617,-0.1617,-0.1617,-0.1617,-0.1617,-0.1617,-0.1617,-0.1617,-0.1617,-0.1617,-0.1617,-0.1617,-0.1617,-0.1617,-0.1617,-0.1617,-0.1868,-0.2773,-0.3475,-0.3874,-0.3874,-0.4425,-0.4822,-0.4822,-0.5177,-0.5477,-0.5477,-0.5877,-0.6126,-0.6126,-0.6126,-0.6126,-0.6126,-0.6126,-0.6126,-0.6126,-0.6126,-0.6126,-0.6126,-0.6126,-0.6126,-0.6126,-0.6126,-0.6126,-0.6176,-0.6781,-0.7086,-0.0456,0.0,0.0,0.0,0.0,0.0,0.0,0.0,0.0,0.0,0.0,0.0,0.0,0.0,0.0,0.0,0.0,-0.1399,-0.104,-0.1571,-0.21,-0.2371,-0.2467,-0.2702,-0.3133,-0.3004,-0.3122,-0.3733,-0.2935,-0.2719,-0.3337,-0.2986,-0.256,-0.2169,-0.217,-0.1969,-0.1617,-0.1617,-0.1617,-0.1617,-0.1617,-0.1617,-0.1617,-0.1617,-0.1617,-0.1617,-0.1617,-0.1617,-0.1617,-0.1617,-0.1617,-0.1617,-0.1617,-0.1617,-0.1617,-0.1617,-0.1617,-0.1617,-0.1617,-0.1617,-0.1617,-0.1617,-0.1617,-0.1617,-0.1617,-0.1617,-0.1617,-0.1617,-0.1617,-0.1617,-0.1617,-0.1617,-0.1617,-0.1617,-0.1617,-0.162,-0.1628,-0.1622,-0.162,-0.1628,-0.1622,-0.1617,-0.1617,-0.2271,-0.2773,-0.2773,-0.3425,-0.3924,-0.3924,-0.4175,-0.4375,-0.4375,-0.4622,-0.4822,-0.4822,-0.4822,-0.4822,-0.4822,-0.4822,-0.4822,-0.4822,-0.4822,-0.4822,-0.4822,-0.4822,-0.4822,-0.4822,-0.4822,-0.4822,-0.4822,-0.5577,-0.5982,-0.013,-0.0303,-0.047,-0.112,-0.1298,-0.1264,-0.114,-0.1145,-0.1191,0.0,0.0,0.0,0.0,0.0,0.0,0.0,0.0,0.0,0.0,0.0,0.0,0.0,0.0,0.0,-0.2608,-0.2161,-0.2108,-0.2707,-0.1832,-0.154,-0.2208,-0.1794,-0.1554,-0.1614,-0.1617,-0.1617,-0.1617,-0.1617,-0.1617,-0.1617,-0.1617,-0.1617,-0.1617,-0.1617,-0.1617,-0.1617,-0.1617,-0.1617,-0.1617,-0.1617,-0.1617,-0.1617,-0.1617,-0.1617,-0.1617,-0.1617,-0.1617,-0.1617,-0.1617,-0.1617,-0.1617,-0.1617,-0.1617,-0.1617,-0.1617,-0.1617,-0.1617,-0.1617,-0.1617,-0.1617,-0.1617,-0.1617,-0.1617,-0.1617,-0.1617,-0.1625,-0.1707,-0.1637,-0.1625,-0.1707,-0.1637,-0.1617,-0.1617,-0.1617,-0.1667,-0.1667,-0.1667,-0.1718,-0.1718,-0.2622,-0.3274,-0.3274,-0.4175,-0.4822,-0.4822,-0.4822,-0.4822,-0.4822,-0.4822,-0.4822,-0.4822,-0.4822,-0.4822,-0.4822,-0.4822,-0.4822,-0.4822,-0.4822,-0.4822,-0.4822,-0.4826,-0.4876,0.1056,0.0762,0.0269,-0.0426,-0.054,-0.0642,-0.1054,-0.1175,-0.1194,-0.1097,0.0,0.0,0.0,0.0,0.0,0.0,0.0,0.0,0.0,0.0,0.0,0.0,0.0,0.0,0.0,-0.1847,-0.1948,-0.2446,-0.1691,-0.146,-0.2032,-0.172,-0.1545,-0.1585,-0.1606,-0.1617,-0.1617,-0.1617,-0.1617,-0.1617,-0.1617,-0.1617,-0.1617,-0.1617,-0.1617,-0.1617,-0.1617,-0.1617,-0.1617,-0.1617,-0.1617,-0.1617,-0.1617,-0.1617,-0.1617,-0.1617,-0.1617,-0.1617,-0.1617,-0.1617,-0.1617,-0.1617,-0.1617,-0.1617,-0.1617,-0.1617,-0.1617,-0.1617,-0.1617,-0.1617,-0.1617,-0.1632,-0.1647,-0.1647,-0.1662,-0.1678,-0.1688,-0.1682,-0.1678,-0.1688,-0.1682,-0.1674,-0.1674,-0.1659,-0.164,-0.162,-0.1617,-0.1624,-0.1644,-0.2005,-0.222,-0.2193,-0.2508,-0.2756,-0.2724,-0.269,-0.2672,-0.2672,-0.2672,-0.2672,-0.2672,-0.2672,-0.2672,-0.2672,-0.2672,-0.2672,-0.2672,-0.2672,-0.2672,-0.2672,-0.2672,-0.3073,0.182,0.1573,0.1018,0.0044,-0.0174,-0.0336,-0.1072,-0.1238,-0.1258,-0.1198,-0.1241,0.0,0.0,0.0,0.0,0.0,0.0,0.0,0.0,-0.0997,0.0,0.0,0.0,0.0,0.0,-0.1454,-0.1583,-0.1955,-0.1467,-0.1357,-0.1771,-0.1604,-0.1528,-0.162,-0.16,-0.1617,-0.1617,-0.1617,-0.1617,-0.1617,-0.1617,-0.1617,-0.1617,-0.1617,-0.1617,-0.1617,-0.1617,-0.1617,-0.1617,-0.1617,-0.1617,-0.1617,-0.1617,-0.1617,-0.1617,-0.1617,-0.1617,-0.1617,-0.1617,-0.1617,-0.1617,-0.1617,-0.1624,-0.1633,-0.1633,-0.164,-0.1648,-0.1648,-0.1648,-0.1648,-0.1648,-0.1663,-0.1677,-0.1677,-0.169,-0.1707,-0.1718,-0.1712,-0.1707,-0.1718,-0.1711,-0.1704,-0.1704,-0.1689,-0.167,-0.1651,-0.164,-0.1644,-0.1674,-0.1677,-0.1684,-0.1703,-0.1704,-0.1693,-0.1717,-0.1644,-0.1628,-0.1618,-0.1617,-0.1617,-0.1617,-0.1617,-0.1617,-0.1617,-0.1617,-0.1617,-0.1617,-0.1617,-0.1617,-0.1617,-0.1617,-0.1969]},{"header":{"parameterUnit":"m.s-1","parameterCategory":1,"la1":30.6,"la2":29.2853,"lo1":-89.7004,"lo2":-87.6739,"dy":0.0162,"dx":0.0183,"nx":112,"ny":82,"refTime":"2024-09-19T12:00:00:Z","depth":0,"parameterNumber":3,"parameterNumberName":"V-component_of_WINDS"},"data":[0.0,0.0,0.0,0.0,0.0,0.0,0.0,0.0,0.0,0.0,0.0,0.0,0.0,0.0,0.0,0.0,0.0,0.0,0.0,0.0,0.0,0.0,0.0,0.0,0.0,0.0,0.0,0.0,0.0,0.0,0.0,0.0,0.0,0.0,0.0,0.0,0.0,0.0,0.0,0.0,0.0,0.0,0.0,0.0,0.0,0.0,0.0,0.0,0.0,0.0,0.0,0.0,0.0,0.0,0.0,0.0,0.0,0.0,0.0,0.0,0.0,0.0,0.0,0.0,0.0,0.0,0.0,0.0,0.0,0.0,0.0,0.0,0.0,0.0,0.0,0.0,0.0,0.0,0.0,0.0,0.0,0.0,0.0,0.0,0.0,0.0,0.0,0.0,0.0,0.0,0.3454,0.4126,0.486,0.5179,0.4832,0.48,0.4361,0.3337,0.0,0.0,0.0,0.0,0.0,0.0,0.0,0.0,0.0,0.0,0.0,0.0,0.0,0.0,0.0,0.0,0.0,0.0,0.0,0.0,0.0,0.0,0.0,0.0,0.0,0.0,0.0,0.0,0.0,0.0,0.0,0.0,0.0,0.0,0.0,0.0,0.0,0.0,0.0,0.0,0.0,0.0,0.0,0.0,0.0,0.0,0.0,0.0,0.0,0.0,0.0,0.0,0.0,0.0,0.0,0.0,0.0,0.0,0.0,0.0,0.0,0.0,0.0,0.0,0.0,0.0,0.0,0.0,0.0,0.0,0.0,0.0,0.0,0.0,0.0,0.0,0.0,0.0,0.0,0.0,0.0,0.0,0.0,0.0,0.0,0.0,0.0,0.0,0.0,0.0,0.0,0.0,0.0,0.0,0.0,0.0,0.0,0.0,0.0,0.0,0.0,0.0,0.0,0.0,0.3579,0.4589,0.5048,0.5179,0.4832,0.48,0.4476,0.3668,0.0,0.0,0.0,0.0,0.0,0.0,0.0,0.0,0.0,0.0,0.0,0.0,0.0,0.0,0.0,0.0,0.0,0.0,0.0,0.0,0.0,0.0,0.0,0.0,0.0,0.0,0.0,0.0,0.0,0.0,0.0,0.0,0.0,0.0,0.0,0.0,0.0,0.0,0.0,0.0,0.0,0.0,0.0,0.0,0.0,0.0,0.0,0.0,0.0,0.0,0.0,0.0,0.0,0.0,0.0,0.0,0.0,0.0,0.0,0.0,0.0,0.0,0.0,0.0,0.0,0.0,0.0,0.0,0.0,0.0,0.0,0.0,0.0,0.0,0.0,0.0,0.0,0.0,0.0,0.0,0.0,0.0,0.0,0.0,0.0,0.0,0.0,0.0,0.0,0.0,0.0,0.0,0.0,0.0,0.0,0.0,0.0,0.0,0.0,0.0,0.0,0.0,0.0,0.3513,0.3886,0.4565,0.4872,0.4921,0.4662,0.471,0.4484,0.3843,0.3415,0.0,0.0,0.0,0.0,0.0,0.0,0.0,0.0,0.0,0.0,0.0,0.0,0.0,0.0,0.0,0.0,0.0,0.0,0.0,0.0,0.0,0.0,0.0,0.0,0.0,0.0,0.0,0.0,0.0,0.0,0.0,0.0,0.0,0.0,0.0,0.0,0.0,0.0,0.0,0.0,0.0,0.0,0.0,0.0,0.0,0.0,0.0,0.0,0.0,0.0,0.0,0.0,0.0,0.0,0.0,0.0,0.0,0.0,0.0,0.0,0.0,0.0,0.0,0.0,0.0,0.0,0.0,0.0,0.0,0.0,0.0,0.0,0.0,0.0,0.0,0.0,0.0,0.0,0.0,0.0,0.0,0.0,0.0,0.0,0.0,0.0,0.0,0.0,0.0,0.0,0.0,0.0,0.0,0.0,0.0,0.0,0.0,0.0,0.0,0.0,0.0,0.0,0.4016,0.4177,0.4469,0.4678,0.4711,0.4517,0.4536,0.4358,0.3864,0.3517,0.0,0.0,0.0,0.0,0.0,0.0,0.0,0.0,0.0,0.0,0.0,0.0,0.0,0.0,0.0,0.0,0.0,0.0,0.0,0.0,0.0,0.0,0.0,0.0,0.0,0.0,0.0,0.0,0.0,0.0,0.0,0.0,0.0,0.0,0.0,0.0,0.0,0.0,0.0,0.0,0.0,0.0,0.0,0.0,0.0,0.0,0.0,0.0,0.0,0.0,0.0,0.0,0.0,0.0,0.0,0.0,0.0,0.0,0.0,0.0,0.0,0.0,0.0,0.0,0.0,0.0,0.0,0.0,0.0,0.0,0.0,0.0,0.0,0.0,0.0,0.0,0.0,0.0,0.0,0.0,0.0,0.0,0.0,0.0,0.0,0.0,0.0,0.0,0.0,0.0,0.0,0.0,0.0,0.0,0.0,0.0,0.0,0.0,0.0,0.0,0.0,0.0,0.4089,0.4329,0.4477,0.4678,0.4711,0.4517,0.4291,0.3998,0.3643,0.3135,0.0,0.0,0.0,0.0,0.0,0.0,0.0,0.0,0.0,0.0,0.0,0.0,0.0,0.0,0.0,0.0,0.0,0.0,0.0,0.0,0.0,0.0,0.0,0.0,0.0,0.0,0.0,0.0,0.0,0.0,0.0,0.0,0.0,0.0,0.0,0.0,0.0,0.0,0.0,0.0,0.0,0.0,0.0,0.0,0.0,0.0,0.0,0.0,0.0,0.0,0.0,0.0,0.0,0.0,0.0,0.0,0.0,0.0,0.0,0.0,0.0,0.0,0.0,0.0,0.0,0.0,0.0,0.0,0.0,0.0,0.0,0.0,0.0,0.0,0.0,0.0,0.0,0.0,0.0,0.0,0.0,0.0,0.0,0.0,0.0,0.0,0.0,0.0,0.0,0.0,0.0,0.0,0.0,0.0,0.0,0.0,0.0,0.0,0.0,0.0,0.0,0.0,0.4538,0.4777,0.0,0.4934,0.4988,0.4995,0.4787,0.4538,0.4231,0.0,0.0,0.0,0.0,0.0,0.0,0.0,0.0,0.0,0.0,0.0,0.0,0.0,0.0,0.0,0.0,0.0,0.0,0.0,0.0,0.0,0.0,0.0,0.0,0.0,0.0,0.0,0.0,0.0,0.0,0.0,0.0,0.0,0.0,0.0,0.0,0.0,0.0,0.0,0.0,0.0,0.0,0.0,0.0,0.0,0.0,0.0,0.0,0.0,0.0,0.0,0.0,0.0,0.0,0.0,0.0,0.0,0.0,0.0,0.0,0.0,0.0,0.0,0.0,0.0,0.0,0.0,0.0,0.0,0.0,0.0,0.0,0.0,0.0,0.0,0.0,0.0,0.0,0.0,0.0,0.0,0.0,0.0,0.0,0.0,0.0,0.0,0.0,0.0,0.0,0.0,0.0,0.0,0.0,0.0,0.0,0.0,0.0,0.0,0.0,0.0,0.0,0.4521,0.4879,0.5136,0.0,0.5373,0.5416,0.5524,0.5217,0.491,0.462,0.0,0.0,0.0,0.0,0.0,0.0,0.0,0.0,0.0,0.0,0.0,0.0,0.0,0.0,0.0,0.0,0.0,0.0,0.0,0.0,0.0,0.0,0.0,0.0,0.0,0.0,0.0,0.0,0.0,0.0,0.0,0.0,0.0,0.0,0.0,0.0,0.0,0.0,0.0,0.0,0.0,0.0,0.0,0.0,0.0,0.0,0.0,0.0,0.0,0.0,0.0,0.0,0.0,0.0,0.0,0.0,0.0,0.0,0.0,0.0,0.0,0.0,0.0,0.0,0.0,0.0,0.0,0.0,0.0,0.0,0.0,0.0,0.0,0.0,0.0,0.0,0.0,0.0,0.0,0.0,0.0,0.0,0.0,0.0,0.0,0.0,0.0,0.0,0.0,0.0,0.0,0.0,0.0,0.0,0.0,0.0,0.0,0.0,0.0,0.0,0.0,0.0,0.4746,0.5039,0.5428,0.596,0.6017,0.6017,0.6017,0.5462,0.4961,0.0,0.0,0.0,0.0,0.0,0.0,0.0,0.0,0.0,0.0,0.0,0.0,0.0,0.0,0.0,0.0,0.0,0.0,0.0,0.0,0.0,0.0,0.0,0.0,0.0,0.0,0.0,0.0,0.0,0.0,0.0,0.0,0.0,0.0,0.0,0.0,0.0,0.0,0.0,0.0,0.0,0.0,0.0,0.0,0.0,0.0,0.0,0.0,0.0,0.0,0.0,0.0,0.0,0.0,0.0,0.0,0.0,0.0,0.0,0.0,0.0,0.0,0.0,0.0,0.0,0.0,0.0,0.0,0.0,0.0,0.0,0.0,0.0,0.0,0.0,0.0,0.0,0.0,0.0,0.0,0.0,0.0,0.0,0.0,0.0,0.0,0.0,0.0,0.0,0.0,0.0,0.0,0.0,0.0,0.0,0.0,0.0,0.0,0.0,0.0,0.0,0.0,0.0,0.5228,0.5768,0.6239,0.6596,0.6626,0.6647,0.6698,0.615,0.5624,0.5195,0.0,0.0,0.0,0.0,0.0,0.0,0.0,0.0,0.0,0.0,0.0,0.0,0.0,0.0,0.0,0.0,0.0,0.0,0.0,0.0,0.0,0.0,0.0,0.0,0.0,0.0,0.0,0.0,0.0,0.0,0.0,0.0,0.0,0.0,0.0,0.0,0.0,0.0,0.0,0.0,0.0,0.0,0.0,0.0,0.0,0.0,0.0,0.0,0.0,0.0,0.0,0.0,0.0,0.0,0.0,0.0,0.0,0.0,0.0,0.0,0.0,0.0,0.0,0.0,0.0,0.0,0.0,0.0,0.0,0.0,0.0,0.0,0.0,0.0,0.0,0.0,0.0,0.0,0.0,0.0,0.0,0.0,0.0,0.0,0.0,0.0,0.0,0.0,0.0,0.0,0.0,0.0,0.0,0.0,0.0,0.0,0.0,0.0,0.0,0.0,0.0,0.0,0.5963,0.679,0.7357,0.7487,0.7503,0.744,0.728,0.6707,0.6176,0.5788,0.0,0.0,0.0,0.0,0.0,0.0,0.0,0.0,0.0,0.0,0.0,0.0,0.0,0.0,0.0,0.0,0.0,0.0,0.0,0.0,0.0,0.0,0.0,0.0,0.0,0.0,0.0,0.0,0.0,0.0,0.0,0.0,0.0,0.0,0.0,0.0,0.0,0.0,0.0,0.0,0.0,0.0,0.0,0.0,0.0,0.0,0.0,0.0,0.0,0.0,0.0,0.0,0.0,0.0,0.0,0.0,0.0,0.0,0.0,0.0,0.0,0.0,0.0,0.0,0.0,0.0,0.0,0.0,0.0,0.0,0.0,0.0,0.0,0.0,0.0,0.0,0.0,0.0,0.0,0.0,0.0,0.0,0.0,0.0,0.0,0.0,0.0,0.0,0.0,0.0,0.0,0.0,0.0,0.0,0.0,0.0,0.0,0.0,0.0,0.0,0.0,0.0,0.682,0.7855,0.8481,0.8464,0.8455,0.8291,0.7857,0.7237,0.6736,0.6428,0.0,0.0,0.0,0.0,0.0,0.0,0.0,0.0,0.0,0.0,0.0,0.0,0.0,0.0,0.0,0.0,0.0,0.0,0.0,0.0,0.0,0.0,0.0,0.0,0.0,0.0,0.0,0.0,0.0,0.0,0.0,0.0,0.0,0.0,0.0,0.0,0.0,0.0,0.0,0.0,0.0,0.0,0.0,0.0,0.0,0.0,0.0,0.0,0.0,0.0,0.0,0.0,0.0,0.0,0.0,0.0,0.0,0.0,0.0,0.0,1.0119,0.942,0.0,0.0,0.0,0.0,0.0,0.0,0.0,0.0,0.0,0.0,0.0,0.0,0.0,0.0,0.0,0.0,0.0,0.0,0.0,0.0,0.0,0.0,0.0,0.0,0.0,0.0,0.0,0.0,0.0,0.0,0.0,0.0,0.0,0.0,0.0,0.0,0.0,0.0,0.0,0.0,0.7143,0.7998,0.8596,0.8832,0.8883,0.8842,0.8724,0.8345,0.785,0.7198,0.677,0.0,0.0,0.0,0.0,0.0,0.0,0.0,0.0,0.0,0.0,0.0,0.0,0.0,0.0,0.0,0.0,0.0,0.0,0.0,0.0,0.0,0.0,0.0,0.0,0.0,0.0,0.0,0.0,0.0,0.0,0.0,0.0,0.0,0.0,0.0,0.0,0.0,0.0,0.0,0.0,0.0,0.0,0.0,0.0,0.0,0.0,0.0,0.0,0.0,0.0,0.0,0.0,0.0,0.0,0.0,0.0,0.0,0.0,0.0,1.1994,1.1114,0.0,0.0,0.0,0.0,0.0,0.0,0.0,0.0,0.0,0.0,0.0,0.0,0.0,0.0,0.0,0.0,0.0,0.0,0.0,0.0,0.0,0.0,0.0,0.0,0.0,0.0,0.0,0.0,0.0,0.0,0.0,0.0,0.0,0.0,0.0,0.0,0.0,0.0,0.0,0.0,0.7779,0.8767,0.933,0.9293,0.9288,0.9208,0.9024,0.8742,0.8436,0.8053,0.7445,0.0,0.0,0.0,0.0,0.0,0.0,0.0,0.0,0.0,0.0,0.0,0.0,0.0,0.0,0.0,0.0,0.0,0.0,0.0,0.0,0.0,0.0,0.0,0.0,0.0,0.0,0.0,0.0,0.0,0.0,0.0,0.0,0.0,0.0,0.0,0.0,0.0,0.0,0.0,0.0,0.0,0.0,0.0,0.0,0.0,0.0,0.0,0.0,0.0,0.0,0.0,0.0,0.0,1.4541,1.4844,1.5429,1.5057,1.5326,1.597,1.3937,1.3027,1.2917,1.2082,0.0,0.0,0.0,0.0,0.0,0.0,0.0,0.0,0.0,0.0,0.0,0.0,0.0,0.0,0.0,0.0,0.0,0.0,0.0,0.0,0.0,0.0,1.1753,1.1697,1.2237,1.24,1.0969,0.0,0.0,0.0,0.0,0.0,0.0,0.0,0.0,0.0,0.0,0.0,0.8698,0.979,1.0312,0.9937,0.9823,0.9648,0.9308,0.9123,0.9002,0.8929,0.8156,0.7657,0.0,0.0,0.0,0.0,0.0,0.0,0.0,0.0,0.0,0.0,0.0,0.0,0.0,0.0,0.0,0.0,0.0,0.0,0.0,0.0,0.0,0.0,0.0,0.0,0.0,0.0,0.0,0.0,0.0,0.0,0.0,0.0,1.0296,1.0821,0.0,0.0,0.0,0.0,0.0,0.0,0.0,0.0,0.0,0.0,0.0,0.0,0.0,1.3776,1.4693,1.6079,1.6338,1.5543,1.6782,1.7188,1.6809,1.6763,1.7027,1.7506,1.7305,0.0,1.447,1.4062,0.0,0.0,0.0,0.0,0.0,0.0,0.0,0.0,0.0,0.0,0.0,0.0,0.0,0.0,0.0,0.0,0.0,0.0,0.0,0.0,0.0,0.0,1.4663,1.4103,1.4143,1.4327,1.4437,1.1826,0.9418,0.9342,0.8267,0.7102,0.0,0.0,0.0,0.0,0.0,0.0,1.0054,1.0666,1.1024,1.1085,1.0705,1.0448,1.039,1.035,1.0189,0.985,0.976,0.943,0.8781,0.7823,0.0,0.0,0.0,0.0,0.0,0.0,0.0,0.0,0.0,0.0,0.0,0.0,0.0,0.0,0.0,0.0,0.0,0.0,0.0,0.0,0.0,0.0,0.0,0.0,0.0,0.0,0.0,0.0,0.0,1.0325,1.1537,1.224,1.2338,1.2006,0.0,0.0,0.0,0.0,0.0,0.0,0.0,0.0,0.0,1.6029,1.6241,1.6907,1.8113,1.912,1.9391,1.8964,1.9609,1.964,1.9124,1.9124,1.9054,1.8933,1.8983,1.8312,1.711,1.6271,1.5376,1.4409,0.0,0.0,0.0,0.0,1.2568,1.2116,1.2828,1.2659,1.2125,1.2125,0.0,0.0,0.0,0.0,0.0,0.0,0.0,1.2662,1.3514,1.4568,1.5413,1.54,1.5466,1.5561,1.5718,1.3983,1.2235,1.1865,1.1213,1.023,0.8544,0.8319,0.0,0.0,0.0,1.028,1.1175,1.1938,1.2214,1.1734,1.151,1.128,1.1024,1.0995,1.0916,1.0746,1.0798,1.0595,1.0015,0.9552,0.862,0.0,0.0,0.0,0.0,0.0,0.0,0.0,0.0,0.0,0.0,0.0,0.0,0.0,0.0,0.0,0.0,0.0,0.0,0.0,0.0,0.0,0.0,0.0,0.0,0.0,0.0,0.0,0.0,1.1687,1.2817,1.3847,1.4176,1.3997,0.0,0.0,0.0,0.0,0.0,0.0,1.5708,1.5451,1.6235,1.8385,1.8804,1.9548,2.073,2.1265,2.1493,2.1493,2.1493,2.1295,2.0893,2.0893,2.0666,2.0238,2.0238,1.9936,1.9334,1.8134,1.7337,1.6763,1.5852,1.5285,1.4963,1.5215,1.472,1.4045,1.5121,1.4948,1.4293,1.4293,1.3969,1.3569,1.3166,0.0,0.0,0.0,0.0,1.3704,1.4799,1.5373,1.5768,1.6167,1.6265,1.6287,1.6265,1.5624,1.4823,1.4065,1.365,1.2824,1.0976,1.0735,0.0,1.0387,1.1149,1.1938,1.2431,1.3135,1.3337,1.2679,1.2505,1.224,1.1752,1.1707,1.1655,1.1505,1.1551,1.1451,1.1155,1.0965,1.0095,0.8439,0.0,0.0,0.0,0.0,0.0,0.0,0.0,0.0,0.0,0.0,0.0,0.0,0.0,0.0,0.0,0.0,0.0,0.0,0.0,0.0,0.0,0.0,0.0,0.0,0.0,0.0,0.0,0.0,0.0,1.5859,1.6228,0.0,0.0,0.0,0.0,1.5547,1.6525,1.7581,1.8733,1.9208,2.0035,2.1265,2.084,2.0865,2.1443,2.1468,2.1493,2.1493,2.1493,2.1496,2.1443,2.1443,2.1418,2.1393,2.1393,2.1119,2.0541,1.9384,1.8581,1.808,1.803,1.8005,1.7904,1.7451,1.6851,1.6274,1.5823,1.5668,1.5618,1.5618,1.5491,1.5361,1.5335,1.455,0.0,0.0,1.5151,1.4962,1.6103,1.6403,1.6454,1.6392,1.6436,1.6479,1.6392,1.6367,1.6126,1.5434,1.4474,1.3656,1.3275,0.0,1.3084,1.2685,1.3012,1.3497,1.404,1.413,1.4174,1.4261,1.3887,1.34,1.2858,1.2831,1.2601,1.2082,1.2072,1.2049,1.2031,1.1601,1.0865,0.9823,0.8928,0.0,0.0,0.0,0.0,0.0,0.0,0.0,0.0,0.0,0.0,0.0,0.0,0.0,0.0,0.0,0.0,0.0,0.0,0.0,0.0,0.0,0.0,0.0,0.0,0.0,0.0,0.0,0.0,1.6813,1.7633,0.0,1.7307,1.7904,1.848,1.8881,1.8932,1.9434,2.0539,2.0439,2.0865,2.197,2.182,2.1995,2.2518,2.2518,2.2518,2.2518,2.2518,2.2372,2.202,2.202,2.182,2.1493,2.1493,2.1194,2.0666,2.0264,1.9736,1.9208,1.8832,1.8707,1.8632,1.8103,1.7551,1.7049,1.687,1.674,1.67,1.6987,1.703,1.6962,1.6962,1.6713,1.646,1.6923,1.691,1.675,1.6928,1.7131,1.7193,1.6607,1.6714,1.6863,1.6543,1.6457,1.6407,1.6143,1.5774,1.5211,1.4439,1.4592,1.4612,1.4036,1.4446,1.4893,1.5094,1.5425,1.5468,1.4899,1.4716,1.4257,1.3423,1.331,1.3042,1.2461,1.2337,1.2179,1.1917,1.1672,1.1076,1.0096,0.9638,0.8569,0.0,0.0,0.0,0.0,0.0,0.0,0.0,0.0,0.0,0.0,0.0,0.0,0.0,0.0,0.0,0.0,0.0,0.0,0.0,0.0,0.0,0.0,0.0,0.0,0.0,1.5739,1.6948,1.8102,1.9007,1.9434,1.9083,1.9685,2.0338,2.0943,2.0589,2.079,2.1719,2.1594,2.1845,2.2543,2.2774,2.302,2.3396,2.3396,2.3396,2.3396,2.3195,2.3039,2.2894,2.2894,2.2834,2.2672,2.2672,2.2363,2.1846,2.1846,2.1509,2.0862,1.9712,1.9258,1.9178,1.887,1.8477,1.8148,1.817,1.7978,1.7822,1.8208,1.8193,1.8028,1.8028,1.8028,1.7988,1.7828,1.7787,1.7727,1.7488,1.7585,1.7646,1.7068,1.7173,1.7323,1.7005,1.6921,1.6921,1.6921,1.6671,1.6211,1.5507,1.5682,1.574,1.531,1.562,1.5885,1.5884,1.6262,1.6262,1.5647,1.5574,1.5222,1.4387,1.4099,1.3716,1.3136,1.2829,1.2548,1.2273,1.201,1.1494,1.069,1.0149,0.9329,0.8164,0.0,0.0,0.0,0.0,0.0,0.0,0.0,0.0,0.0,0.0,0.0,0.0,0.0,0.0,0.0,0.0,0.0,0.0,0.0,0.0,0.0,0.0,0.0,1.5855,1.7247,1.8656,1.9736,2.0365,2.0717,2.0717,2.0794,2.1046,2.1546,2.1625,2.1876,2.2372,2.2929,2.3206,2.3175,2.3759,2.4092,2.4092,2.4092,2.4035,2.4041,2.3457,2.3539,2.4131,2.4131,2.4452,2.5021,2.5021,2.4639,2.4096,2.4096,2.377,2.3065,2.0759,1.9837,1.9788,1.9834,1.9771,1.9641,1.9707,1.9347,1.8919,1.9307,1.9035,1.8576,1.8576,1.8548,1.845,1.7996,1.7875,1.7828,1.7828,1.7828,1.7828,1.7808,1.7808,1.7808,1.7787,1.7787,1.7787,1.7787,1.711,1.6543,1.6522,1.6522,1.6522,1.65,1.65,0.0,1.65,1.65,1.65,1.65,1.65,1.6274,1.5743,1.5211,1.4676,1.4141,1.3509,1.3173,1.3173,1.2663,1.2128,1.1615,1.0495,0.9918,0.9918,0.0,0.0,0.0,0.0,0.0,0.0,0.0,0.0,0.0,0.0,0.0,0.0,0.0,0.0,0.0,0.0,0.0,0.0,0.0,0.0,0.0,1.8302,1.9333,1.9333,1.9363,1.9788,2.0966,2.1213,2.1295,2.1295,2.2811,2.3666,2.3362,2.4596,2.503,2.4161,2.5223,2.5606,2.5055,2.5211,2.5563,2.6115,2.5594,2.5328,2.5388,2.5202,2.4996,2.4766,2.4766,2.4851,2.5021,2.5021,2.4639,2.4096,2.4096,2.377,2.3197,2.2052,2.1599,2.1511,2.1105,2.0688,2.0307,2.0224,2.0103,1.9943,1.9932,2.0102,2.0217,1.9785,1.967,1.9651,1.9484,1.9102,1.8674,1.8383,1.8519,1.8577,1.7948,1.8048,1.8206,1.7868,1.7787,1.7787,1.7787,1.7605,1.7338,1.7073,1.701,1.6905,1.6543,1.65,1.65,1.65,1.65,1.65,1.65,1.65,1.6274,1.5743,1.5211,1.4676,1.4141,1.3157,1.2613,1.2613,1.2102,1.1751,1.1615,1.0858,1.0482,0.0,0.0,0.0,0.0,0.0,0.0,0.0,0.0,0.0,0.0,0.0,0.0,0.0,0.0,0.0,0.0,0.0,0.0,0.0,0.0,0.0,0.0,2.0969,2.2049,2.2732,2.2126,2.1957,2.2911,2.2983,2.3074,2.3337,2.4572,2.5345,2.5214,2.6264,2.6539,2.5735,2.6478,2.6695,2.6268,2.6476,2.68,2.7257,2.68,2.6639,2.6625,2.6437,2.6118,2.5743,2.5743,2.5744,2.5742,2.5742,2.5546,2.521,2.521,2.5041,2.4621,0.0,0.0,0.0,0.0,2.1629,2.1563,2.1465,2.129,2.1048,2.0934,2.093,2.093,2.0582,2.0465,2.0407,2.0175,1.9827,1.9392,1.8874,1.8931,1.8969,1.8461,1.8539,1.8674,1.8403,1.8344,1.8344,1.8344,1.8344,0.0,1.7808,1.7564,1.7365,1.7089,1.7026,1.7026,1.7026,1.7026,1.7026,1.7026,1.6905,1.673,1.658,1.5917,0.0,0.0,0.0,1.3765,1.3278,1.3179,0.0,0.0,0.0,0.0,0.0,0.0,0.0,0.0,1.0469,1.0321,0.0,0.0,0.0,0.0,0.0,0.0,0.0,0.0,0.0,0.0,0.0,0.0,0.0,0.0,0.0,0.0,2.3178,2.4128,2.5705,2.5036,2.4587,2.505,2.5103,2.532,2.5836,2.6085,2.6415,2.6958,2.719,2.7245,2.7094,2.7245,0.0,0.0,0.0,2.7954,2.8016,2.7954,2.7927,2.7906,2.7443,2.7131,2.7004,2.6947,2.6913,2.6881,2.6849,2.682,2.682,2.682,2.682,2.657,2.4431,2.3078,2.239,2.2256,2.2527,2.2888,2.2888,0.0,0.0,2.2004,2.1627,2.1191,2.1133,2.1104,2.0988,2.0465,2.0204,1.9972,1.9362,1.9159,1.9101,1.9101,1.9101,1.9101,1.9101,1.9101,1.9101,1.9101,1.9101,1.8988,1.8616,1.8187,1.7848,1.7808,1.7787,1.7787,1.7787,1.7787,1.7787,1.7787,1.7488,0.0,1.7767,1.697,1.6631,1.6998,1.65,1.5733,1.4637,1.5136,1.5197,1.4706,1.5286,1.5909,1.6473,1.6473,1.6194,1.5591,1.2826,1.2209,0.0,0.0,0.0,0.0,0.0,0.0,0.0,0.0,0.0,0.0,0.0,0.0,0.0,0.0,0.0,2.4091,2.4883,2.5603,2.6477,2.6433,2.6144,2.577,2.574,2.5782,2.5891,2.7266,2.7994,2.7588,2.9005,2.9379,2.8261,2.9287,2.9651,2.9072,2.9184,2.9487,3.0034,2.9487,2.9233,2.9229,2.9143,0.0,2.8308,2.779,2.7556,2.7492,2.6997,2.682,2.682,2.682,2.682,2.6707,2.5689,2.4599,2.3571,2.3548,2.3258,2.2888,2.2888,2.2801,2.2649,2.2149,2.2243,2.2446,2.1946,2.1801,0.0,2.1656,2.0901,2.0059,1.9943,1.9508,1.9101,1.9101,1.9101,1.9101,1.9101,1.9101,1.9101,1.9101,1.9101,1.9082,1.9007,1.8635,1.8246,1.7848,1.7787,1.7787,1.7787,1.7787,1.7787,1.7787,1.7727,1.7707,1.7787,1.7226,1.6921,1.7017,1.6546,1.6143,1.5853,1.6111,1.6128,1.587,1.6163,1.6327,1.6332,1.6332,1.6277,1.6138,1.5634,1.5138,0.0,0.0,0.0,0.0,0.0,0.0,0.0,0.0,0.0,0.0,0.0,2.0841,2.2629,0.0,2.4839,2.6042,2.6823,2.7372,2.7721,2.775,2.7409,2.648,2.6352,2.6582,2.7229,2.8138,2.8823,2.9118,3.0034,3.0267,2.9594,3.0206,3.0447,3.0085,3.0085,3.0266,3.0598,3.0266,3.0093,3.0103,3.0103,2.9755,2.9145,2.8797,2.8478,2.8158,2.7549,2.7258,2.7229,2.691,2.682,2.6791,2.6442,2.5716,2.4762,2.4147,2.3688,2.3345,2.3026,2.2888,2.283,2.2562,2.2649,2.283,2.2533,2.2446,2.2388,2.2091,2.154,2.0901,2.0262,1.9856,1.9508,1.9188,1.9101,1.9101,1.9101,1.9101,1.9101,1.9101,1.9101,1.9101,1.9101,1.8931,1.8712,1.8481,1.8442,1.8442,1.8442,1.8442,1.8442,1.8442,1.8266,1.8226,1.8422,1.8199,1.8087,1.8144,1.7925,1.7666,1.7363,1.7756,1.7774,1.7405,1.7845,1.8025,1.7996,1.7996,1.7996,1.7996,1.8078,1.7213,0.0,0.0,0.0,0.0,0.0,0.0,0.0,0.0,2.0055,2.1562,2.2483,2.3495,2.5058,2.5875,2.6692,2.7777,2.836,2.8709,2.8709,2.8709,2.8273,2.7113,2.7084,2.7576,2.8622,2.8825,2.9348,3.051,3.0598,3.0598,3.0598,3.0598,3.0598,3.0598,3.0598,3.0598,3.0598,3.0598,3.0598,3.0598,3.0598,3.0336,2.9813,2.9639,2.9348,2.8826,2.8014,2.7695,2.7637,2.7055,2.682,2.682,2.6846,2.6471,2.5861,2.4559,2.4007,2.3804,2.3142,2.2888,2.2888,2.2888,2.2888,2.2888,2.2888,2.2888,2.2801,2.2323,2.2091,2.1772,2.0727,2.0291,1.9972,1.942,1.9188,1.9101,1.9101,1.9101,1.9101,1.912,1.912,1.9101,1.912,1.912,1.9101,1.9101,1.9101,1.9101,1.9101,1.9101,1.9101,1.9139,1.8836,1.8731,1.9064,1.912,1.9176,1.9288,1.9354,1.9156,1.8679,1.9169,1.9235,1.8772,1.9313,1.9647,1.9672,1.957,1.9498,1.9498,1.9498,1.8478,1.6904,1.6962,1.7742,1.9362,1.9926,2.0606,0.0,0.0,2.3911,2.4529,2.5155,2.5854,2.6777,2.727,2.7806,2.8614,2.8735,2.8709,2.8709,2.8709,2.8419,2.7695,2.8129,2.8564,2.8709,2.9174,2.9813,3.0539,3.0598,3.0598,3.0598,3.0598,3.0598,3.0598,3.0598,3.0598,3.0598,3.0598,3.0598,3.0598,3.0598,3.0569,3.0481,2.9871,2.9552,2.9436,2.8217,2.7695,2.7637,2.7055,2.682,2.682,2.6925,2.6841,2.653,2.5172,2.436,2.3804,2.3142,2.2888,2.2888,2.2888,2.2888,2.2888,2.2888,2.2888,2.2888,2.2801,2.2417,2.1975,2.183,2.0959,2.0088,2.0001,1.9537,1.9101,1.9101,1.9101,1.9139,1.9232,1.9176,1.9139,1.925,1.9176,1.9101,1.9101,1.9101,1.9101,1.9101,1.9101,1.9139,1.925,1.912,1.9045,1.9101,1.9195,1.9269,1.9288,1.9483,1.949,1.931,1.9533,1.9551,1.9328,1.957,1.9654,1.9611,1.9086,1.8822,1.8822,1.8822,1.8542,1.9775,2.0195,2.0767,2.1325,2.2052,2.2877,2.386,2.4528,2.5141,2.5653,2.6326,2.6882,2.7148,2.79,2.8638,0.0,2.9519,2.993,2.993,2.9609,2.9114,2.8361,2.8534,2.8709,2.8709,2.8913,2.9493,3.051,3.0598,3.0598,3.0598,3.0598,3.0598,3.0598,3.0598,3.0598,3.0598,3.0598,3.0598,3.0598,3.0598,3.0598,3.0598,3.0306,3.0046,2.9755,2.9285,2.8668,2.7964,2.7727,2.7404,2.7026,2.7078,2.7078,2.6909,2.5975,2.5399,2.4995,2.4048,2.372,2.3632,2.3252,2.3135,2.3201,2.3414,2.3414,2.3392,2.3773,2.3613,2.3299,2.299,2.2534,2.2037,2.1641,2.1063,2.0503,2.0265,1.9856,1.946,1.9362,1.9269,1.9325,1.9606,1.9594,1.9648,1.9861,1.9515,1.9213,1.9213,1.9232,1.9288,1.9372,1.9306,1.925,1.925,1.9325,1.9409,1.9483,1.9556,1.9593,1.9563,1.9654,1.9672,1.9563,1.9654,1.969,1.9654,1.9403,1.9271,1.9271,1.9271,1.9218,2.201,2.2536,2.2888,2.322,2.413,2.498,2.5115,2.5808,2.6488,2.6874,2.7379,2.7771,2.7774,2.8476,2.9141,2.9387,3.0102,3.0749,3.1073,3.0425,2.975,2.9131,2.8757,2.8589,2.8765,2.8854,2.9435,3.051,3.0598,3.0598,3.0598,3.0598,3.0598,3.0598,3.0598,3.0598,3.0598,3.0598,3.0598,3.0657,3.0657,3.0657,3.0717,3.0866,3.0778,3.0479,3.0524,2.9943,2.8892,2.8711,2.8205,2.7635,2.766,2.766,2.7575,2.7144,2.6697,2.61,2.4891,2.4559,2.4545,2.3884,2.3674,2.3687,2.4006,2.3985,2.3985,2.4461,2.4513,2.4287,2.3947,2.3725,2.3493,2.2992,2.2209,2.1512,2.1245,2.0561,1.9945,1.978,1.969,1.9732,2.0037,2.0089,2.0176,2.0448,2.0015,1.9606,1.946,1.9453,1.9501,1.9545,1.9472,1.9501,1.9545,1.9472,1.9538,1.9738,1.9774,1.9833,2.001,1.9922,1.9821,1.9821,1.9821,1.9767,1.9708,1.9767,1.9767,1.9708,1.9708,1.9708,2.2667,2.2835,2.3285,2.5305,2.6293,2.6954,2.7458,2.8232,2.881,2.881,2.8748,2.8769,2.9187,2.9063,2.9207,3.0116,3.0185,3.0536,3.1702,3.0826,3.006,2.9966,2.8856,2.8311,2.8846,2.929,2.9871,3.0569,3.0598,3.0598,3.0598,3.0598,3.0598,3.0598,3.0598,3.0598,3.0598,3.0598,3.0657,3.0806,3.0806,3.0895,3.1102,3.1622,3.1847,3.1842,3.1769,3.1321,3.0579,2.9924,2.927,2.8677,2.8795,2.8772,2.867,2.8904,2.814,2.6761,2.5356,2.5176,2.5456,2.4781,2.4563,2.4563,2.4583,2.4583,2.4583,2.4583,2.4603,2.4583,2.4572,2.4081,2.3568,2.3587,2.2554,2.1614,2.1596,2.0999,2.0513,2.0563,2.053,2.0482,2.058,2.0499,2.0482,2.0482,2.0547,2.0412,1.9919,1.9726,1.9672,1.9879,1.9726,1.9672,1.9879,1.9726,1.9738,2.0063,2.0154,2.0361,2.0761,2.0395,2.0158,2.0158,2.0158,2.0015,1.9708,2.0032,2.0015,1.9708,1.9708,1.9708,2.4231,2.4868,2.5449,2.6872,2.7731,2.8252,2.8457,2.8778,2.8902,2.8383,2.8266,2.8135,2.7757,2.8279,2.9051,2.9954,3.0777,3.1609,3.2501,3.1897,3.119,3.0651,3.0571,3.0456,3.027,2.9568,0.0,3.0659,3.0717,3.0806,3.0925,3.0925,3.0925,3.0925,3.1752,3.2196,3.2196,3.3026,3.3228,3.28,3.2285,3.2099,3.2155,3.2485,3.2621,3.2648,3.2693,3.2352,3.1691,3.1439,3.0707,2.9698,2.9746,2.9438,2.8982,2.9074,2.9007,2.8681,2.7453,2.714,2.705,2.5915,2.5516,2.5483,2.5265,2.5118,2.5079,2.5532,2.5551,2.5495,2.5607,2.5501,2.5324,2.5324,2.4608,2.3857,2.3629,2.2946,2.2313,2.2174,2.169,2.1409,2.1743,2.1375,2.1103,2.1339,2.0942,2.058,2.0513,2.0429,2.0426,2.0496,2.046,2.0443,2.0496,2.046,2.0443,2.0561,2.0595,2.0678,2.0794,2.0678,2.0611,2.0611,2.0611,2.053,2.0443,2.053,2.0561,2.0443,2.0443,2.0275,2.5717,2.658,2.7352,2.8512,2.9153,2.9461,2.9461,2.9335,2.9058,2.8608,2.8094,2.7645,2.7211,2.7559,2.8356,2.9754,3.069,3.1722,3.3186,3.2608,3.1986,3.1727,3.1857,3.1899,3.1728,3.0901,0.0,3.1419,3.1718,3.1925,3.2071,3.2311,3.246,3.246,3.323,3.3675,3.3675,3.4478,3.4582,3.3897,3.3482,3.3137,3.2886,3.324,3.3371,3.3397,3.3681,3.3391,3.2772,3.2772,3.1935,3.0712,3.0712,3.0261,2.9595,2.9595,2.9793,2.987,2.8725,2.8426,2.8361,2.7223,2.6869,2.6747,2.6287,2.604,2.5989,2.6143,2.6114,2.6041,2.6168,2.6185,2.6185,2.6185,2.564,2.5041,2.4817,2.4124,2.3517,2.333,2.2889,2.2601,2.2916,2.2344,2.1851,2.1801,2.137,2.1023,2.099,2.0876,2.0844,2.0974,2.0876,2.0844,2.0974,2.0876,2.0844,2.0974,2.0974,2.1039,2.1135,2.1039,2.0974,2.0974,2.0974,2.0925,2.0794,2.0925,2.0909,2.0794,2.0794,2.0678,2.695,2.7879,2.8774,3.0158,3.0489,3.0489,3.0456,2.9893,2.9363,2.9264,2.8158,2.7283,2.7412,2.6936,2.729,2.961,3.0046,3.1086,3.3817,3.3143,3.2627,0.0,0.0,0.0,0.0,0.0,0.0,3.2926,3.3466,3.3841,3.3873,3.4551,3.4924,3.4924,3.4983,3.5015,3.5015,3.5012,3.4781,3.4265,3.4306,3.398,3.3287,3.3866,3.4151,3.4176,3.4667,3.4485,3.3856,3.3856,3.2994,3.1648,3.1648,3.1184,3.0489,3.0489,3.0489,3.0327,2.9186,2.9083,2.935,2.8674,2.8442,2.831,2.758,2.7315,2.7149,2.6468,2.6219,2.6185,2.6185,2.6185,2.6185,2.6185,2.5656,2.5176,2.5176,2.4613,2.4116,2.4116,2.4083,2.405,2.4017,2.3421,2.2725,2.2011,2.1879,2.1726,2.1356,2.1055,2.0974,2.1293,2.1039,2.099,2.1293,2.1039,2.099,2.1309,2.1324,2.1464,2.1797,2.1495,2.1324,2.1324,2.1324,2.1167,2.086,2.1167,2.1167,2.086,2.086,2.0844,2.7713,2.8641,2.935,3.0257,3.0489,3.0357,2.9794,2.9529,2.8933,2.7344,2.6733,2.6168,2.5087,2.6107,0.0,2.93,3.0937,0.0,3.5194,3.5251,0.0,3.5402,0.0,3.5745,3.5432,3.5812,0.0,0.0,3.4771,3.4313,3.4956,3.5173,3.5268,3.5268,3.6194,3.6672,3.6672,3.6592,3.645,3.6313,3.5283,3.4661,3.4464,3.4643,3.4691,3.4691,3.4835,3.4783,3.4618,3.4618,3.3756,3.2431,3.2431,3.1636,3.0489,3.0489,3.0489,3.0468,3.0166,3.0108,3.0092,2.9383,2.9152,2.9019,2.8343,2.7746,2.7249,2.7083,2.6634,2.6185,2.6185,2.6185,2.6185,2.6185,2.6053,2.5921,2.5921,2.5755,2.564,2.564,2.5209,2.4646,2.4083,2.3851,2.3653,2.3454,2.2957,2.2412,2.1759,2.1617,2.1587,2.1663,2.1617,2.1602,2.1678,2.1569,2.1602,2.1678,2.1678,2.1723,2.1797,2.1723,2.1678,2.1678,2.1678,2.1648,2.1556,2.1648,2.1632,2.1556,2.1556,2.1694,2.8522,2.935,2.9959,3.039,3.0489,3.0224,2.9218,2.8721,2.7959,2.6086,2.5192,2.4613,2.4083,2.5276,2.6917,0.0,0.0,0.0,3.5214,3.581,3.6175,0.0,3.7188,0.0,3.7085,3.7385,3.7731,3.803,3.6737,3.6104,3.6605,3.6923,3.7112,3.7112,3.7807,3.8166,3.8166,3.7774,3.7433,3.7102,3.5943,3.5214,3.4883,3.4883,3.4883,3.4883,3.4883,3.4883,3.4883,3.4883,3.422,3.316,3.316,3.2266,3.0986,3.0986,3.0787,3.0489,3.0489,3.0489,3.0423,3.0026,2.9893,2.9728,2.9052,2.8343,2.7713,2.7381,2.6766,2.6185,2.6185,2.6185,2.6185,2.6185,2.6185,2.6185,2.6185,2.6185,2.6185,2.6185,2.5854,2.5358,2.4613,2.4481,2.4381,2.405,2.3653,2.3123,2.2361,2.2011,2.1812,2.1812,2.1812,2.1812,2.1812,2.1812,2.1812,2.1812,2.1812,2.1812,2.1812,2.1812,2.1812,2.1812,2.1812,2.1812,2.1812,2.1812,2.1812,2.1812,2.2144,2.2401,2.9363,2.9992,3.0489,3.0489,3.0423,3.0013,2.8575,2.768,2.6718,2.5143,0.0,2.3056,2.3619,2.4381,2.5706,2.8011,0.0,3.231,3.4849,3.5744,3.6473,3.7301,3.7963,3.8361,3.8361,3.8361,3.8593,3.9249,3.8692,3.8361,3.8361,3.8924,3.9315,3.9315,3.9315,3.9315,3.9315,3.856,3.7831,3.7102,3.634,3.5611,3.4883,3.4883,3.4883,3.4883,3.4883,3.4883,3.4883,3.4883,3.4452,3.3789,3.3789,3.2961,3.1747,3.1747,3.135,3.0787,3.0688,3.0654,3.0621,3.0522,3.0489,3.039,2.9728,2.9085,2.8409,2.7746,2.6965,2.6369,2.6369,2.6252,2.6185,2.6185,2.6185,2.6185,2.6185,2.6185,2.6185,2.6185,2.6185,2.5987,2.5375,2.5243,2.5044,2.4381,2.4216,2.3918,2.3255,2.246,2.1912,2.1812,2.1812,2.1812,2.1812,2.1812,2.1812,2.1812,2.1812,2.1812,2.1812,2.1912,2.1945,2.1945,2.2044,2.2029,2.1945,2.2029,2.2044,2.1978,2.2692,2.3089,3.0092,3.039,3.0489,3.0489,3.0026,2.9218,2.7812,2.6917,0.0,0.0,2.3089,2.2758,2.2261,2.3288,2.511,2.7945,2.9682,3.2111,3.6141,3.6837,3.74,0.0,3.905,3.9116,3.9116,3.9116,0.0,0.0,3.9183,3.9116,3.9116,3.9249,3.9315,3.9315,3.9315,3.9315,3.9315,3.856,3.7831,3.7102,3.634,3.5611,3.4883,3.4883,3.4883,3.4883,3.4883,3.4883,3.4883,3.4883,3.4452,3.3789,3.3789,3.3259,3.2497,3.2497,3.2431,3.2232,3.1615,3.1416,3.1317,3.0688,3.0489,3.0489,3.0357,2.9794,2.9218,2.9085,2.8092,2.7116,2.7116,2.6667,2.6185,2.6185,2.6185,2.6185,2.6185,2.6185,2.6185,2.6185,2.6185,2.6152,2.602,2.602,2.5954,2.5821,2.5292,2.4878,2.4746,2.3553,2.2475,2.1879,2.1812,2.1812,2.1812,2.1812,2.1812,2.1812,2.1812,2.1812,2.1812,2.2409,2.2692,2.2692,2.3321,2.3321,2.2692,2.3321,2.3321,2.2725,2.3454,2.4149,3.029,3.0489,3.0489,3.0489,2.9959,2.8933,2.7131,0.0,0.0,0.0,2.2327,2.2228,2.1879,2.299,0.0,2.6369,2.8224,3.0808,3.4816,3.5711,3.6771,3.905,3.9315,3.9315,3.9315,3.9315,3.9315,3.9315,3.9315,3.9315,3.9315,3.9315,3.9315,3.9315,3.9315,3.9315,3.9315,3.856,3.8004,3.7665,3.6936,3.6406,3.6042,3.5644,3.5479,3.547,3.5261,3.5165,3.5188,3.5339,3.5194,3.4891,3.4891,3.4442,3.3823,3.3823,3.3587,3.3216,3.2879,3.2487,3.2062,3.1712,3.1098,3.0489,3.0489,3.0115,2.9655,2.9655,2.9038,2.8345,2.8345,2.7753,2.7196,2.7196,2.6893,2.6623,2.6623,2.6623,2.6623,2.6623,2.6623,2.6623,2.6623,2.6623,2.6623,2.6623,2.6218,2.5747,2.5347,2.4564,2.3752,2.3023,2.2924,2.2924,2.2924,2.2924,2.2924,2.2924,2.2924,2.2924,2.2924,2.3288,2.3454,2.3454,2.3818,2.3834,2.3518,2.3883,2.3883,2.3551,2.4347,2.488,3.029,3.0489,3.0489,3.0489,2.9827,2.8655,2.6649,2.549,0.0,2.2228,2.1812,2.1812,2.1812,2.2758,2.3918,0.0,2.6932,2.947,3.3259,3.4551,3.6108,0.0,3.9216,0.0,3.9315,3.9315,0.0,3.9315,3.9315,3.9315,3.9315,3.9315,3.9315,3.9315,3.9315,3.9335,3.9448,3.8857,3.8543,3.842,3.7845,3.7511,3.7344,3.6777,3.641,3.6209,3.5889,3.569,3.5543,3.5798,3.5907,3.5907,3.5907,3.5587,3.5095,3.5095,3.4753,3.4206,3.409,3.3624,3.3043,3.274,3.1772,3.0716,3.0716,3.0496,3.0239,3.0239,2.9918,2.9538,2.9538,2.8956,2.8357,2.8357,2.7946,2.7483,2.7262,2.7398,2.7414,2.7057,2.7125,2.7194,2.7023,2.6989,2.6989,2.6989,2.6825,2.6472,2.5914,2.5631,2.5297,2.4696,2.4265,2.4017,2.4017,2.4017,2.4017,2.4017,2.4017,2.4017,2.4017,2.4149,2.4249,2.4249,2.4381,2.4415,2.4347,2.4331,2.428,2.413,2.4812,2.5096,3.029,3.0489,3.0489,3.0489,2.9483,2.8111,2.6568,0.0,2.3653,2.2111,2.1812,2.1812,2.1812,2.1912,2.2891,0.0,0.0,2.8906,3.3216,3.5015,3.6506,3.8129,0.0,0.0,3.9315,3.9315,3.9315,3.9315,3.9315,3.9315,3.9315,3.9315,3.9315,3.9315,3.9315,3.9501,3.9833,3.9799,3.9539,3.9218,3.9116,3.8775,3.8184,3.8116,3.7683,3.7001,3.6956,3.6512,3.5864,3.5885,3.5907,3.5907,3.5907,3.5873,3.5805,3.5805,3.577,3.56,3.4993,3.474,3.4487,3.3259,3.22,3.1408,3.1408,3.1393,3.1344,3.1344,3.0851,3.0288,3.0288,2.9759,2.9195,2.9195,2.9231,2.9041,2.8202,2.8681,2.8834,2.7295,2.7536,2.7775,2.7125,2.6989,2.6989,2.6989,2.699,2.694,2.6888,2.6855,2.6805,2.6753,2.5094,2.4017,2.4017,2.4017,2.4017,2.4017,2.4017,2.4017,2.4017,2.4646,2.5011,2.5011,2.5673,2.5708,2.5096,2.5096,2.4796,2.421,2.4277,2.431,2.9549,3.0158,3.0489,3.0489,2.9536,2.8204,2.6716,0.0,2.3822,2.2392,2.1945,2.1812,2.1838,2.1842,2.2475,0.0,0.0,0.0,3.0609,3.2034,3.3815,3.685,3.7652,0.0,0.0,0.0,3.9755,3.9952,3.9944,3.9944,3.9944,3.9781,3.9755,3.9978,3.9944,4.0054,4.0204,4.0204,4.0133,3.9963,3.9963,3.9826,3.9552,3.9272,3.8986,3.8642,3.8534,3.8321,3.7993,3.7737,3.7642,3.7607,3.7095,3.6919,3.6919,3.6919,3.6919,3.6884,3.6622,3.6201,3.5709,3.5168,3.4446,3.3529,3.2209,3.1913,3.2038,3.2038,3.19,3.1725,3.1725,3.12,3.05,3.0011,3.005,3.0055,2.971,2.9882,2.9949,2.9288,2.9011,2.88,2.8484,2.8047,2.773,2.773,2.7597,2.7491,2.7491,2.7319,2.7225,2.7225,2.6457,2.5925,2.5925,2.5844,2.5842,2.6034,2.5859,2.5842,2.6049,2.6114,2.6168,2.6168,2.6318,2.6248,2.605,2.6033,2.5916,2.5648,2.5681,2.5664,2.911,2.9982,3.051,3.073,2.9835,2.852,2.7029,2.5621,2.4217,2.274,2.2268,2.2093,2.215,2.2338,2.2868,2.4132,0.0,2.6118,2.9364,3.0596,3.2471,3.6028,0.0,3.7898,3.9953,4.0207,4.0343,4.0601,4.0625,4.0672,4.0767,4.0563,4.0417,4.0417,4.049,4.0587,4.0707,4.0744,4.0838,4.0955,4.0955,4.0955,4.0955,4.064,4.0346,4.0101,3.9967,3.9762,3.9534,3.9018,3.8809,3.8702,3.7916,3.7595,3.7595,3.7595,3.7595,3.7595,3.7595,3.7238,3.6738,3.6541,3.6146,3.538,3.3651,3.3034,3.2837,3.2625,3.2639,3.2688,3.2688,3.2314,3.1762,3.1213,3.1194,3.1279,3.0984,3.1157,3.1172,3.0713,3.0326,3.0005,2.979,2.929,2.8897,2.8897,2.8756,2.8534,2.8308,2.8106,2.7882,2.7672,2.7787,2.7751,2.7291,2.7131,2.7144,2.7396,2.7159,2.7144,2.7396,2.7159,2.7033,2.7033,2.6874,2.6809,2.6858,2.6653,2.6568,2.66,2.6391,2.6241,2.9338,3.0078,3.0506,3.1295,3.0432,2.9007,2.7441,2.6061,2.4663,2.311,2.2797,2.2797,2.2797,2.345,2.4216,2.4976,2.6367,0.0,3.0473,3.1887,3.3525,0.0,0.0,3.7672,3.9445,4.0516,4.107,4.107,4.107,4.1263,4.1666,4.1687,4.1276,4.0441,4.0659,4.099,4.1391,4.1578,4.1917,4.2287,4.2287,4.2287,4.2287,4.2287,4.1859,4.1089,4.1074,4.0665,3.9935,3.9149,3.8809,3.8702,3.7916,3.7595,3.7595,3.7595,3.7595,3.7595,3.7595,3.7595,3.747,3.6895,3.6695,3.6549,3.5957,3.4966,3.3934,3.3132,3.2918,3.2918,3.2918,3.2882,3.2882,3.2882,3.2993,3.2804,3.1913,3.2419,3.2588,3.0942,3.1183,3.1454,3.0698,3.0591,3.0591,3.0591,3.0555,3.0269,2.9505,2.9397,2.9076,2.8276,2.9022,2.8976,2.7542,2.7411,2.7411,2.7411,2.7411,2.7411,2.7411,2.7411,2.7411,2.7411,2.7396,2.7407,2.7512,2.6758,2.6486,2.6592,2.5789,2.5275,2.6969,2.7738,2.8234,2.8491,2.8377,2.7816,2.6217,2.5631,2.4954,2.3444,2.2958,2.2822,2.286,2.2601,2.3306,2.6252,2.6705,0.0,0.0,0.0,0.0,3.663,3.9089,4.0707,0.0,4.159,4.1924,4.1924,4.1924,4.2002,4.2086,4.2107,4.198,4.1709,4.1788,4.1895,4.2002,4.2065,4.2148,4.2308,4.2308,4.2308,4.2308,4.245,4.2366,4.2115,4.2272,4.2205,4.1916,4.1104,4.078,4.0635,3.9355,3.885,3.876,3.8201,3.8021,3.8021,3.8021,3.8021,3.7984,3.7783,3.7728,3.76,3.6817,3.5973,3.5067,3.4128,3.347,3.3008,3.2914,3.2961,3.3024,3.3024,3.3162,3.3232,3.2934,3.3094,3.316,3.2624,3.2249,3.1982,3.1744,3.1239,3.0878,3.0878,3.0878,3.077,3.0517,3.0481,3.0409,3.0121,3.0378,2.9899,2.8221,2.8465,2.8564,2.8259,2.801,2.7996,2.8224,2.801,2.7876,2.7876,2.7695,2.7607,2.7636,2.7391,2.73,2.7364,2.7083,2.6935,2.5874,2.6685,2.7198,2.7462,2.7549,2.7154,2.5866,2.5212,2.4599,2.3671,2.3093,2.2776,2.2822,2.3106,2.3931,2.5795,2.6955,2.8578,0.0,0.0,0.0,3.7534,4.0273,0.0,4.1588,4.2154,4.255,4.255,4.255,4.255,4.255,4.255,4.255,4.255,4.247,4.2409,4.2409,4.249,4.255,4.255,4.255,4.255,4.2514,4.2668,4.2727,4.2727,4.2825,4.2901,0.0,4.2031,4.1705,4.156,4.0311,3.9623,3.9333,3.8826,3.848,3.8191,3.8191,3.8191,3.8191,3.8191,3.8191,3.8118,3.7611,3.6689,3.5679,3.5042,3.429,3.3646,3.3553,3.3384,3.3193,3.3193,3.3319,3.3393,3.3393,3.3393,3.3393,3.3393,3.2995,3.2632,3.2632,3.2234,3.1908,3.1908,3.1908,3.1799,3.1487,3.1437,3.1342,3.1016,3.127,3.0903,2.9494,2.975,2.9814,2.9541,2.9323,2.931,2.9505,2.9323,2.9192,2.9192,2.9012,2.8963,2.8963,2.8963,2.8963,2.8963,2.8811,2.8753,0.0,2.6543,2.6942,2.7616,2.7437,2.6823,2.6033,2.4818,0.0,2.3723,2.318,2.2735,2.2843,2.4509,2.5497,2.4422,2.7357,3.0147,0.0,3.3274,0.0,0.0,4.0522,4.1497,4.1497,4.2353,4.2901,4.2901,4.2901,4.2901,4.2901,4.2901,4.2901,4.2901,4.2727,4.2629,4.2629,4.2787,4.2901,4.2901,4.2901,4.2901,4.2901,4.2901,4.2901,4.2901,4.2901,4.2901,4.2865,4.2085,4.1777,4.1705,4.0908,4.0166,3.955,3.9441,3.8952,3.8299,3.8227,3.8191,3.8191,3.8191,3.8191,3.8191,3.8191,3.7123,3.5876,3.5876,3.5297,3.4645,3.4609,3.4045,3.3465,3.3429,3.3393,3.3393,3.3393,3.3393,3.3393,3.3393,3.3393,3.3393,3.3393,3.3393,3.3393,3.3393,3.3393,3.314,3.2379,3.227,3.1981,3.127,3.1836,3.1981,3.122,3.1125,3.1039,3.1016,3.1016,3.1016,3.1016,3.1016,3.1016,3.1016,3.1016,3.1016,3.1016,3.1016,3.1016,3.1003,3.0665,3.0534,2.3455,0.0,2.4602,2.4782,2.5165,2.5296,0.0,2.4534,2.4375,2.3206,2.2807,2.3061,2.423,2.3433,2.3868,2.7755,2.9168,3.0726,3.3393,3.6801,0.0,4.172,4.23,4.2536,4.2536,4.2755,4.2901,4.2901,4.2901,4.2901,4.2901,4.2901,4.2901,4.2901,4.2844,4.2825,4.2825,4.2863,4.2901,4.2901,4.2901,4.2901,4.2901,4.2901,4.2901,4.2901,4.2901,4.2901,4.2901,4.2701,4.2629,4.252,4.1705,4.1307,4.1017,3.984,3.926,3.9007,3.8408,3.8191,3.8191,3.8191,3.8191,3.8191,3.8191,3.7502,3.6741,3.6741,3.6146,3.5369,3.4754,3.448,3.4154,3.3538,3.3393,3.3393,3.3393,3.3393,3.3393,3.3393,3.3393,3.3393,3.3393,3.3393,3.3393,3.3393,3.3393,3.3321,3.314,3.3103,3.3031,3.285,3.2995,3.3031,3.285,3.227,3.1668,3.1053,3.1016,3.1016,3.1016,3.1016,3.1016,3.1016,3.1016,3.1016,3.1016,3.1016,3.1016,3.1016,3.0912,3.087,2.2998,2.4049,2.4882,2.4882,2.4954,2.4882,2.4447,2.3578,0.0,0.0,0.0,2.2409,2.3252,2.3831,2.5063,2.7707,2.9989,3.2705,3.629,0.0,4.1488,4.2737,4.2901,4.2901,4.2901,4.2901,4.2901,4.2901,4.2901,4.2901,4.2901,4.2901,4.2901,4.2901,4.2901,4.2901,4.2901,4.2901,4.2901,4.2901,4.2901,4.2901,4.2901,4.2901,4.2901,4.2901,4.2901,4.2901,4.2901,4.2901,4.2901,4.2846,4.2411,4.2031,4.156,4.0347,3.9695,3.926,3.848,3.8191,3.8191,3.8191,3.8191,3.8191,3.8191,3.7901,3.7538,3.7538,3.6995,3.6254,3.582,3.5421,3.5044,3.4624,3.4516,3.4516,3.4516,3.4226,3.3973,3.3973,3.3647,3.3393,3.3393,3.3393,3.3393,3.3393,3.3393,3.3393,3.3393,3.3393,3.3393,3.3393,3.3393,3.3393,3.3393,3.2995,3.256,3.2125,3.2089,3.2089,3.2089,3.2089,3.2089,3.2089,3.2089,3.2089,3.2089,3.2089,3.2089,3.2089,3.2089,3.2089,2.3361,2.5135,2.6464,2.6113,2.5679,2.5316,2.5208,0.0,0.0,0.0,0.0,0.0,2.2337,2.5052,0.0,2.7308,3.1039,3.5313,3.9188,4.089,4.1994,4.281,4.2901,4.2901,4.2901,4.2901,4.2901,4.2901,4.2901,4.2901,4.2901,4.2901,4.2901,4.2901,4.2901,4.2901,4.2901,4.2901,4.2901,4.2901,4.2901,4.2901,4.2901,4.2901,4.2901,4.2901,4.2901,4.2901,4.2901,4.2901,4.2901,4.2901,4.2901,4.2484,4.1777,4.0981,4.0202,3.9441,3.8517,3.8191,3.8191,3.8191,3.8191,3.8191,3.8191,3.8191,3.8191,3.8191,3.772,3.714,3.7031,3.6472,3.5949,3.584,3.5804,3.5804,3.5804,3.5261,3.479,3.479,3.4226,3.3755,3.3755,3.3755,3.3755,3.3755,3.3755,3.3755,3.3755,3.3755,3.3755,3.3755,3.3647,3.3574,3.3574,3.3465,3.3393,3.3393,3.3393,3.3393,3.3393,3.3393,3.3393,3.3393,3.3393,3.3393,3.3393,3.3393,3.3393,3.3393,3.3393,3.3393,2.3361,2.5968,2.7731,2.5679,2.6113,2.6862,2.6174,0.0,0.0,0.0,0.0,0.0,0.0,2.6427,2.7671,3.1655,3.4624,3.7594,4.0872,4.156,4.1994,4.281,4.2901,4.2901,4.2901,4.2901,4.2901,4.2901,4.2901,4.2901,4.2901,4.2901,4.2901,4.2901,4.2901,4.2901,4.2901,4.2901,4.2901,4.2901,4.2901,4.2901,4.2901,4.2901,4.2901,4.2901,4.2901,4.2901,4.2901,4.2901,4.2901,4.2901,4.2901,4.2829,4.2629,4.1813,4.1017,4.013,3.8698,3.8191,3.8191,3.8191,3.8191,3.8191,3.8191,3.8191,3.8191,3.8191,3.8118,3.7865,3.7176,3.6922,3.6633,3.5965,3.5804,3.5804,3.5804,3.5695,3.5623,3.5623,3.5514,3.5442,3.5442,3.5442,3.5442,3.5442,3.5442,3.5442,3.5442,3.5442,3.5442,3.5442,3.4842,3.4407,3.4407,3.3791,3.3393,3.3393,3.3393,3.3393,3.3393,3.3393,3.3393,3.3393,3.3393,3.3393,3.3393,3.3393,3.3393,3.3393,3.3393,3.3393,2.2992,2.5328,2.7293,2.661,2.7668,2.8895,2.8943,2.7606,0.0,0.0,0.0,0.0,0.0,0.0,3.1546,3.5928,3.8282,4.0057,4.1488,4.2085,4.2484,4.2846,4.2901,4.2957,4.3105,4.3124,4.3196,4.3302,4.332,4.332,4.332,4.332,4.332,4.332,4.332,4.332,4.332,4.332,4.3268,4.3124,4.3124,4.3196,4.332,4.332,4.332,4.3302,4.3196,4.3214,4.3302,4.3196,4.3214,4.332,4.332,4.332,4.3246,4.2441,4.1635,4.0846,4.013,3.958,3.925,3.925,3.8941,3.8559,3.8559,3.8559,3.8559,3.8559,3.8405,3.8118,3.7756,3.7647,3.7575,3.7196,3.7087,3.7087,3.7087,3.6761,3.6435,3.6435,3.6109,3.5804,3.5804,3.5804,3.5804,3.5804,3.5804,3.5804,3.5804,3.5804,3.5804,3.5804,3.5478,3.5261,3.5261,3.4899,3.4335,3.3465,3.3393,3.3393,3.3393,3.3393,3.3393,3.3393,3.3393,3.3393,3.3393,3.3393,3.3393,3.3393,3.3393,3.3393,2.3189,2.486,2.6586,2.78,2.8826,2.9954,3.1568,2.9768,0.0,0.0,0.0,0.0,0.0,3.293,3.6058,3.9319,4.1105,4.2087,4.2159,4.2632,4.3013,4.3087,4.3105,4.3178,4.3355,4.3372,4.3495,4.366,4.3714,4.3714,4.3714,4.3714,4.3714,4.3714,4.3714,4.3714,4.3714,4.3714,4.3614,4.3372,4.3372,4.3475,4.3714,4.3714,4.3714,4.3697,4.3458,4.3493,4.366,4.3495,4.3493,4.3714,4.3714,4.3714,4.3603,4.2807,4.2121,4.1545,4.136,4.088,4.0362,4.0141,3.9682,3.915,3.8966,3.8892,3.8892,3.8892,3.8652,3.8368,3.8307,3.8274,3.8257,3.8207,3.8241,3.8274,3.8274,3.7766,3.7346,3.7346,3.6826,3.6379,3.6363,3.6379,3.6379,3.6363,3.6363,3.6363,3.6363,3.6363,3.6363,3.6363,3.6198,3.6032,3.5867,3.5815,3.5307,3.4075,3.3987,3.3973,3.3973,3.3973,3.3973,3.3973,3.3973,3.3973,3.3973,3.3973,3.3973,3.3973,3.3973,3.3973,2.4857,2.5596,2.6256,2.8753,2.8572,2.8842,3.2945,3.2514,0.0,3.4327,0.0,0.0,0.0,3.7442,3.9985,4.0987,4.2323,4.3264,4.352,4.337,4.3337,4.3594,4.3664,4.3664,4.3681,4.3681,4.3697,4.3714,4.3714,4.3714,4.3714,4.3714,4.3714,4.3714,4.3714,4.3714,4.3714,4.3714,4.3697,4.3681,4.3681,4.3697,4.3714,4.3714,4.3714,4.3714,4.3697,4.3697,4.3714,4.3697,4.3697,4.3714,4.3714,4.3714,4.3603,4.2807,4.2453,4.2306,4.1545,4.1249,4.1102,4.0325,4.0067,3.9882,3.9113,3.8892,3.8892,3.8892,3.8927,3.8853,3.8569,3.846,3.8449,3.8241,3.8336,3.846,3.846,3.8423,3.8387,3.8387,3.8223,3.8092,3.8046,3.8059,3.8092,3.8046,3.8046,3.8046,3.8046,3.8046,3.8046,3.8046,3.7423,3.6739,3.6052,3.5918,3.5836,3.5726,3.5649,3.5623,3.5623,3.5623,3.5623,3.5623,3.5623,3.5623,3.5623,3.5623,3.5623,3.5623,3.5623,3.5623,2.4107,2.5855,2.7628,2.8612,2.9298,0.0,0.0,3.4537,3.5367,3.7215,3.7327,0.0,0.0,0.0,4.1238,4.1936,4.2894,4.356,4.3697,4.3594,4.3597,4.3697,4.3714,4.3779,4.3918,4.3971,4.4033,4.417,4.4185,4.4185,4.4185,4.4288,4.4331,4.4331,4.4393,4.4435,4.4435,4.4435,4.4435,4.4435,4.4102,4.4094,4.4331,4.4331,4.4388,4.4435,4.4256,4.427,4.4435,4.4256,4.4322,4.4435,4.4435,4.4435,4.4397,4.411,4.3998,4.396,4.3526,4.3154,4.2733,4.234,4.1892,4.1393,4.0553,4.0328,4.0215,3.9664,3.9551,3.9439,3.8924,3.8853,3.891,3.8824,3.8868,3.8938,3.8938,3.8938,3.8938,3.8938,3.8882,3.8839,3.881,3.8824,3.8839,3.881,3.881,3.881,3.881,3.867,3.8569,3.8569,3.8172,3.7801,3.7525,3.7473,3.7458,3.7458,3.6469,3.5831,3.5804,3.5804,3.5804,3.5804,3.5804,3.5835,3.5862,3.5862,3.5893,3.5903,3.5903,3.5903,2.3669,2.5284,2.729,2.8326,0.0,0.0,3.4685,3.6178,3.7653,3.9906,4.0151,4.0113,4.0724,0.0,4.2025,4.2687,4.3414,4.3886,4.3955,4.3892,4.3855,4.398,4.3996,4.4087,4.4345,4.4336,4.443,4.4619,4.4632,4.4632,4.4632,4.4725,4.4776,4.4776,4.4865,4.4914,4.4914,4.4914,4.4914,4.4914,4.4541,4.45,4.4776,4.4776,4.4827,4.4902,4.4701,4.4714,4.4902,4.4701,4.4714,4.4914,4.4914,4.4914,4.4914,4.4914,4.4914,4.4902,4.4802,4.4461,4.4004,4.3692,4.3225,4.2663,4.1817,4.1601,4.1438,4.0858,4.0729,4.0647,4.024,3.9901,3.9763,3.9935,3.9849,3.9701,3.9701,3.9514,3.9314,3.9314,3.9275,3.9199,3.9186,3.9236,3.9199,3.9186,3.9186,3.9186,3.9186,3.9049,3.8924,3.8952,3.8789,3.867,3.873,3.8646,3.8569,3.8569,3.7405,3.6682,3.6624,3.6624,3.6624,3.6624,3.6624,3.6619,3.6698,3.6698,3.6713,3.6775,3.6775,3.6775,2.3913,2.3951,2.4742,2.8003,0.0,0.0,3.6587,3.7478,3.8605,4.2754,4.2886,4.227,4.2401,4.2319,4.2498,4.3366,4.3936,4.4336,4.4482,4.4258,4.4258,4.4672,4.4712,4.4764,4.4902,4.4914,4.4914,4.4914,4.4914,4.4914,4.4914,4.4914,4.4914,4.4914,4.4914,4.4914,4.4914,4.4914,4.4914,4.4914,4.4914,4.4914,4.4914,4.4914,4.4914,4.4914,4.4914,4.4914,4.4914,4.4914,4.4914,4.4914,4.4914,4.4914,4.4914,4.4914,4.4914,4.4914,4.4914,4.4914,4.4762,4.399,4.3725,4.3535,4.2663,4.2435,4.2397,4.2397,4.2514,4.2601,4.2601,4.1745,4.0979,4.1587,4.1229,4.0803,4.0803,4.0176,3.9637,3.9637,3.9452,3.9301,3.9236,3.9275,3.9301,3.9236,3.9223,3.9223,3.9223,3.9223,3.9249,3.9301,3.9225,3.9275,3.9502,3.9117,3.891,3.891,3.864,3.846,3.8417,3.8417,3.8417,3.8417,3.8417,3.8417,3.8417,3.8417,3.8417,3.8417,3.8417,3.8417,2.5485,2.7396,2.949,3.0469,0.0,0.0,0.0,3.9353,0.0,0.0,4.3829,4.3261,4.3296,4.3272,4.3324,4.3589,4.4159,4.4621,4.4776,4.4621,4.4595,4.4827,4.4852,4.4865,4.4914,4.4914,4.4914,4.4914,4.4914,4.4914,4.4914,4.4998,4.5045,4.5045,4.5136,4.5181,4.5181,4.5181,4.5181,4.5181,4.5181,4.5136,4.5045,4.5045,4.5103,4.5181,4.5181,4.5181,4.5181,4.5181,4.5181,4.5181,4.5181,4.5181,4.5181,4.5181,4.5181,4.517,4.508,4.5103,4.5132,4.4775,4.4733,4.4647,4.3808,4.3531,4.3427,4.2855,4.2723,4.2858,4.3431,4.334,4.296,4.2574,4.233,4.221,4.221,4.202,4.1867,4.1867,4.1797,4.1776,4.1716,4.1233,4.0826,4.0805,4.0338,3.9905,3.9702,3.9679,3.9621,3.9452,3.9414,3.9427,3.9502,3.9377,3.9326,3.9326,3.9248,3.8947,3.8396,3.8417,3.8417,3.8417,3.86,3.8631,3.846,3.8839,3.889,3.8627,3.8818,3.8884,2.6097,2.8389,3.0866,3.2554,3.5763,3.8935,4.0616,0.0,0.0,0.0,4.4387,4.3882,4.427,4.4019,4.387,4.4212,4.4585,4.4877,4.4914,4.484,4.484,4.4974,4.4986,4.501,4.5057,4.5068,4.5068,4.5068,4.5068,4.5068,4.5068,4.5136,4.5181,4.5181,4.5246,4.5288,4.5288,4.5288,4.5288,4.5288,4.5288,4.5246,4.5181,4.5181,4.5213,4.5288,4.5288,4.5288,4.5288,4.5288,4.5288,4.5288,4.5288,4.5288,4.5288,4.5288,4.5288,4.5277,4.5203,4.5224,4.5267,4.5203,4.5224,4.5201,4.4666,4.4513,4.4437,4.394,4.3787,4.3902,4.4399,4.4513,4.4399,4.3902,4.352,4.3291,4.3291,4.3023,4.2794,4.2794,4.2794,4.2794,4.2794,4.2374,4.203,4.203,4.1609,4.1217,4.1058,4.1047,4.0994,4.0814,4.0802,4.0689,4.031,4.0219,4.001,3.9658,3.9563,3.9287,3.8847,3.8818,3.8818,3.8818,3.9004,3.9017,3.889,3.9234,3.9248,3.9036,3.9178,3.9259,2.6211,2.7924,3.014,3.438,3.6757,3.9088,4.3013,4.393,4.4236,4.5125,0.0,4.4282,4.5152,4.4592,4.4249,4.5011,4.5114,4.5068,4.4962,4.4938,4.4974,4.5103,4.5125,4.517,4.5277,4.5288,4.5288,4.5288,4.5288,4.5288,4.5288,4.5288,4.5288,4.5288,4.5288,4.5288,4.5288,4.5288,4.5288,4.5288,4.5288,4.5288,4.5288,4.5288,4.5288,4.5288,4.5288,4.5288,4.5288,4.5288,4.5288,4.5288,4.5288,4.5288,4.5288,4.5288,4.5288,4.5288,4.5288,4.5288,4.5288,4.5288,4.5288,4.5288,4.5288,4.5288,4.5288,4.5288,4.5288,4.5288,4.5288,4.5288,4.5288,4.5288,4.4704,4.4121,4.4121,4.3558,4.3023,4.3023,4.3023,4.3023,4.3023,4.2947,4.287,4.2794,4.2794,4.2794,4.2794,4.2794,4.2794,4.2794,4.2794,4.2488,4.1686,4.14,4.094,4.022,3.9943,3.9775,3.97,3.9576,3.9514,3.9514,3.9526,3.9539,3.9514,3.9563,3.9551,3.9514,3.9539,3.9551,2.8389,3.0109,3.1859,3.6107,3.8935,4.1113,4.2679,4.3548,4.4236,4.5125,4.5152,4.5065,4.5277,4.5152,4.5055,4.5246,4.517,4.5125,4.5203,4.5125,4.5114,4.5235,4.5246,4.5256,4.5277,4.5288,4.5288,4.5288,4.5288,4.5288,4.5288,4.5288,4.5288,4.5288,4.5288,4.5288,4.5288,4.5288,4.5288,4.5288,4.5288,4.5288,4.5288,4.5288,4.5288,4.5288,4.5288,4.5288,4.5288,4.5288,4.5288,4.5288,4.5288,4.5288,4.5288,4.5288,4.5288,4.5288,4.5288,4.5288,4.5288,4.5288,4.5288,4.5288,4.5288,4.5288,4.5288,4.5288,4.5288,4.5288,4.5288,4.5288,4.5288,4.5288,4.5163,4.501,4.501,4.4895,4.4743,4.4743,4.4743,4.4743,4.4743,4.4208,4.351,4.2908,4.2794,4.2794,4.2794,4.2794,4.2794,4.2794,4.2794,4.2717,4.2526,4.2487,4.2352,4.2199,4.211,4.1785,4.1099,4.0068,3.9514,3.9514,3.9705,3.9717,3.9514,3.9933,3.9922,3.9514,3.9717,3.9807,2.8924,3.1102,3.3234,3.8247,0.0,4.1724,4.2603,4.3138,4.3673,4.4513,4.501,4.5288,4.5288,4.5288,4.5288,4.5288,4.5235,4.5213,4.5277,4.5235,4.5213,4.5277,4.5288,4.5288,4.5288,4.5288,4.5288,4.5288,4.5288,4.5288,4.5288,4.5288,4.5288,4.5288,4.5288,4.5288,4.5288,4.5288,4.5288,4.5288,4.5288,4.5288,4.5288,4.5288,4.5288,4.5288,4.5288,4.5288,4.5288,4.5288,4.5288,4.5288,4.5288,4.5288,4.5288,4.5288,4.5288,4.5288,4.5288,4.5288,4.5288,4.5288,4.5288,4.5288,4.5288,4.5288,4.5288,4.5288,4.5288,4.5288,4.5288,4.5288,4.5288,4.5288,4.5288,4.5288,4.5288,4.5288,4.5288,4.5288,4.5288,4.5288,4.5288,4.4934,4.4475,4.4055,4.3978,4.3978,4.3978,4.3978,4.3978,4.3978,4.3978,4.3825,4.3405,4.3357,4.3214,4.2832,4.2794,4.2603,4.2144,4.1445,4.0896,4.0479,4.0598,4.0598,4.0479,4.0357,4.0157,3.99,4.0017,4.0078,2.8313,3.1315,3.4434,3.9737,4.1189,0.0,4.2183,4.2488,4.2794,4.3624,4.4475,4.5086,4.5086,4.5201,4.525,4.5086,4.5201,4.5288,4.5288,4.5288,4.5288,4.5288,4.5288,4.5239,4.5086,4.5086,4.5086,4.5086,4.5086,4.5125,4.5288,4.5288,4.5288,4.5288,4.5288,4.5288,4.5288,4.5288,4.5288,4.5288,4.5288,4.5288,4.5288,4.5288,4.5288,4.5288,4.5288,4.5288,4.5288,4.5288,4.5288,4.5288,4.5288,4.5288,4.5288,4.5288,4.5288,4.5288,4.5288,4.5288,4.5288,4.5288,4.5288,4.5288,4.5288,4.5288,4.5288,4.5288,4.5288,4.5288,4.5288,4.5288,4.5288,4.5288,4.5288,4.5288,4.5288,4.5288,4.5288,4.5288,4.5288,4.5288,4.5288,4.5288,4.5288,4.5288,4.5288,4.5288,4.5288,4.5288,4.5288,4.5288,4.5288,4.501,4.4274,4.4236,4.394,4.3252,4.3214,4.3176,4.3023,4.3138,4.2832,4.1953,4.18,4.1724,4.1724,4.1074,4.0645,4.0492,4.0492,4.0416,2.6313,0.0,3.5645,0.0,3.989,4.0492,0.0,0.0,4.1915,4.2794,4.3596,4.4159,4.4159,4.4781,4.5048,4.4312,4.4819,4.5288,4.5288,4.5288,4.5288,4.5288,4.5288,4.501,4.4236,4.4159,4.4159,4.4159,4.4159,4.4513,4.525,4.5288,4.5288,4.5288,4.5288,4.5288,4.5288,4.5288,4.5288,4.5288,4.5288,4.5288,4.5288,4.5288,4.5288,4.5288,4.5288,4.5288,4.5288,4.5288,4.5288,4.5288,4.5288,4.5288,4.5288,4.5288,4.5288,4.5288,4.5288,4.5288,4.5288,4.5288,4.5288,4.5288,4.5288,4.5288,4.5288,4.5288,4.5288,4.5288,4.5288,4.5288,4.5288,4.5288,4.5288,4.5288,4.5288,4.5288,4.5288,4.5288,4.5288,4.5288,4.5288,4.5288,4.5288,4.5288,4.5288,4.5288,4.5288,4.5288,4.5288,4.5288,4.5288,4.5239,4.5125,4.5125,4.5086,4.4972,4.4982,4.4628,4.3854,4.4551,4.4551,4.3663,4.2985,4.2641,4.2641,4.2526,4.2068,4.1342,4.1342,4.096,2.7552,3.1634,3.5388,0.0,3.9338,3.9742,4.0205,4.0578,4.1189,4.2526,4.31,4.3596,4.4551,4.5048,4.5163,4.4781,4.5048,4.5125,4.4628,4.459,4.4399,4.394,4.3902,4.3749,4.3367,4.3329,4.351,4.3968,4.4006,4.4388,4.5239,4.5288,4.5288,4.5288,4.5288,4.5288,4.5288,4.5288,4.5288,4.5288,4.5288,4.5288,4.5288,4.5288,4.5288,4.5288,4.5288,4.5288,4.5288,4.5288,4.5288,4.5288,4.5288,4.5288,4.5288,4.5288,4.5288,4.5288,4.5288,4.5288,4.5288,4.5288,4.5288,4.5288,4.5288,4.5288,4.5288,4.5288,4.5288,4.5288,4.5288,4.5288,4.5288,4.5288,4.5288,4.5288,4.5288,4.5288,4.5288,4.5288,4.5288,4.5288,4.5288,4.5288,4.5288,4.5288,4.5288,4.5288,4.5288,4.5288,4.5288,4.5288,4.5288,4.5288,4.5288,4.5288,4.5288,4.5288,4.5288,4.5125,4.4743,4.5086,4.5125,4.4743,4.3902,4.3472,4.3472,4.3023,4.2603,4.2221,4.2221,4.203,2.7972,0.0,3.3459,3.6986,3.8347,3.9045,0.0,4.0356,4.1074,4.2498,4.2947,4.3558,4.501,4.5125,4.4895,4.4704,4.4666,4.4437,4.3777,4.3701,4.3472,4.287,4.2794,4.2717,4.2488,4.2488,4.2794,4.3624,4.3701,4.4169,4.525,4.5288,4.5288,4.5288,4.5288,4.5288,4.5288,4.5288,4.5288,4.5288,4.5288,4.5288,4.5288,4.5288,4.5288,4.5288,4.5288,4.5288,4.5288,4.5288,4.5288,4.5288,4.5288,4.5288,4.5288,4.5288,4.5288,4.5288,4.5288,4.5288,4.5288,4.5288,4.5288,4.5288,4.5288,4.5288,4.5288,4.5288,4.5288,4.5288,4.5288,4.5288,4.5288,4.5288,4.5288,4.5288,4.5288,4.5288,4.5288,4.5288,4.5288,4.5288,4.5288,4.5288,4.5288,4.5288,4.5288,4.5288,4.5288,4.5288,4.5288,4.5288,4.5288,4.5288,4.5288,4.5288,4.5288,4.5288,4.5288,4.5288,4.5288,4.5288,4.5288,4.5288,4.4666,4.4312,4.4312,4.3749,4.3329,4.31,4.31,4.2985,2.5732,2.7606,0.0,3.3433,3.6267,3.8243,0.0,4.0449,4.1843,4.2632,4.3395,4.4197,4.5125,4.4628,4.3815,4.3061,4.2947,4.2908,4.287,4.287,4.2832,4.2794,4.2794,4.2488,4.1648,4.1571,4.1915,4.2794,4.287,4.3596,4.5211,4.5288,4.5288,4.5288,4.5288,4.5288,4.5288,4.5288,4.5288,4.5288,4.5288,4.5288,4.5288,4.5288,4.5288,4.5288,4.5288,4.5288,4.5288,4.5288,4.5288,4.5288,4.5288,4.5288,4.5288,4.5288,4.5288,4.5288,4.5288,4.5288,4.5288,4.5288,4.5288,4.5288,4.5288,4.5288,4.5288,4.5288,4.5288,4.5288,4.5288,4.5288,4.5288,4.5288,4.5288,4.5288,4.5288,4.5288,4.5288,4.5288,4.5288,4.5288,4.5288,4.5288,4.5288,4.5288,4.5288,4.5288,4.5288,4.5288,4.5288,4.5288,4.5288,4.5288,4.5288,4.5288,4.5288,4.5288,4.5288,4.5288,4.5288,4.5288,4.5288,4.5288,4.525,4.5239,4.5239,4.5211,4.4743,4.393,4.393,4.351,2.4594,0.0,0.0,3.1898,3.4202,3.6149,3.798,3.9307,4.0669,4.2504,4.3081,4.3513,4.4332,4.4197,4.3892,4.3624,4.3138,4.2603,4.203,4.1953,4.1762,4.1266,4.1189,4.1074,4.0769,4.0731,4.1304,4.2717,4.2794,4.352,4.5211,4.5288,4.5288,4.5288,4.5288,4.5288,4.5288,4.5288,4.5288,4.5288,4.5288,4.5288,4.5288,4.5288,4.5288,4.5288,4.5288,4.5288,4.5288,4.5288,4.5288,4.5288,4.5288,4.5288,4.5288,4.5288,4.5288,4.5288,4.5288,4.5288,4.5288,4.5288,4.5288,4.5288,4.5288,4.5288,4.5288,4.5288,4.5288,4.5288,4.5288,4.5288,4.5288,4.5288,4.5288,4.5288,4.5288,4.5288,4.5288,4.5288,4.5288,4.5288,4.5288,4.5288,4.5288,4.5288,4.5288,4.5288,4.5288,4.5288,4.5288,4.5288,4.5288,4.5288,4.5288,4.5288,4.5288,4.5288,4.5288,4.5288,4.5288,4.5288,4.5288,4.5288,4.5288,4.5288,4.5288,4.5288,4.5125,4.4819,4.4819,4.4666,2.3281,0.0,0.0,0.0,3.1654,3.3224,3.6812,3.8067,3.9199,4.1631,4.2569,4.312,4.3598,4.3464,4.3283,4.3186,4.2488,4.1762,4.1189,4.1113,4.0883,4.0339,4.0301,4.0301,4.0301,4.053,4.1304,4.2679,4.3061,4.3825,4.5211,4.5288,4.5288,4.5288,4.5288,4.5288,4.5288,4.5288,4.5288,4.5288,4.5288,4.5288,4.5288,4.5288,4.5288,4.5288,4.5288,4.5288,4.5288,4.5288,4.5288,4.5288,4.5288,4.5288,4.5288,4.5288,4.5288,4.5288,4.5288,4.5288,4.5288,4.5288,4.5288,4.5288,4.5288,4.5288,4.5288,4.5288,4.5288,4.5288,4.5288,4.5288,4.5288,4.5288,4.5288,4.5288,4.5288,4.5288,4.5288,4.5288,4.5288,4.5288,4.5288,4.5288,4.5288,4.5288,4.5288,4.5288,4.5288,4.5288,4.5288,4.5288,4.5288,4.5288,4.5288,4.5288,4.5288,4.5288,4.5288,4.5288,4.5288,4.5288,4.5288,4.5288,4.5288,4.5288,4.5288,4.5288,4.5288,4.5288,4.5288,4.5288,0.0,0.0,0.0,0.0,0.0,0.0,3.5436,3.677,3.751,4.0048,4.1878,4.2996,4.3073,4.2425,4.1817,4.1523,4.0816,4.032,4.032,4.032,4.032,4.032,4.032,4.032,4.032,4.1046,4.1858,4.2727,4.3568,4.4409,4.525,4.5288,4.5288,4.5288,4.5288,4.5288,4.5288,4.5288,4.5288,4.5288,4.5288,4.5288,4.5288,4.5288,4.5288,4.5288,4.5288,4.5288,4.5288,4.5288,4.5288,4.5288,4.5288,4.5288,4.5288,4.5288,4.5288,4.5288,4.5288,4.5288,4.5288,4.5288,4.5288,4.5288,4.5288,4.5288,4.5288,4.5288,4.5288,4.5288,4.5288,4.5288,4.5288,4.5288,4.5288,4.5288,4.5288,4.5288,4.5288,4.5288,4.5288,4.5288,4.5288,4.5288,4.5288,4.5288,4.5288,4.5288,4.5288,4.5288,4.5288,4.5288,4.5288,4.5288,4.5288,4.5288,4.5288,4.5288,4.5288,4.5288,4.5288,4.5288,4.5288,4.5288,4.5288,4.5288,4.5288,4.5288,4.5288,4.5288,4.5288,4.5288,2.2911,0.0,0.0,0.0,0.0,0.0,0.0,3.3839,3.5325,3.903,4.0172,4.0849,4.2015,4.2039,4.1677,4.0962,4.0646,4.0531,4.0531,4.0531,4.0531,4.0531,4.0531,4.0531,4.0531,4.1301,4.2109,4.2956,4.3803,4.4645,4.539,4.535,4.5288,4.5288,4.5288,4.5288,4.5288,4.5288,4.5288,4.5288,4.5288,4.5288,4.5288,4.5288,4.5347,4.5378,4.5378,4.537,4.5351,4.5319,4.5288,4.5288,4.5288,4.5288,4.5288,4.5288,4.5288,4.5288,4.5288,4.5288,4.5288,4.5288,4.5288,4.5288,4.5288,4.5288,4.5288,4.5367,4.5378,4.535,4.5351,4.5361,4.5361,4.5361,4.537,4.5378,4.5378,4.5309,4.5288,4.5288,4.5288,4.5288,4.5288,4.5288,4.5288,4.5288,4.5288,4.5288,4.5288,4.5288,4.5288,4.5288,4.5288,4.5288,4.5288,4.5288,4.5288,4.5288,4.5288,4.5288,4.5288,4.5288,4.5288,4.5288,4.5288,4.5288,4.5288,4.5288,4.5288,4.5288,4.5288,4.5288,0.0,0.0,0.0,0.0,0.0,0.0,3.1601,3.2096,3.2773,3.6605,3.7714,3.8363,3.9667,3.9894,3.9971,4.0176,4.0215,4.0301,4.0563,4.0595,4.0595,4.0595,4.0595,4.0595,4.0595,4.1398,4.2247,4.3026,4.3906,4.4762,4.5535,4.5494,4.5458,4.539,4.539,4.535,4.5288,4.5288,4.5319,4.539,4.539,4.5409,4.5464,4.5509,4.5543,4.5569,4.5569,4.5577,4.5563,4.5505,4.5428,4.535,4.5329,4.539,4.5429,4.536,4.539,4.5429,4.5341,4.5339,4.5319,4.5339,4.5339,4.5319,4.535,4.535,4.538,4.5457,4.5509,4.5569,4.5555,4.5563,4.5563,4.5563,4.5585,4.5569,4.5569,4.5543,4.5464,4.5329,4.5288,4.5288,4.5288,4.5288,4.5288,4.5288,4.5288,4.5288,4.5288,4.5288,4.5288,4.5288,4.5288,4.5288,4.5288,4.5288,4.5288,4.5288,4.5288,4.5288,4.5288,4.5288,4.5288,4.5288,4.5347,4.5329,4.535,4.5309,4.5288,4.5288,4.5347,4.5357,0.0,0.0,0.0,0.0,0.0,0.0,3.1598,3.1074,3.0429,3.3456,3.4696,3.555,3.6638,3.6833,3.7376,3.9008,3.9436,3.9815,4.0539,4.0629,4.0629,4.0629,4.0629,4.0629,4.0629,4.1433,4.2283,4.3101,4.4044,4.4886,4.5665,4.5696,4.5632,4.555,4.5503,4.5477,4.5319,4.5339,4.5381,4.5503,4.553,4.5596,4.5705,4.5764,4.5795,4.5795,4.5795,4.5801,4.5801,4.5801,4.5687,4.5428,4.5419,4.55,4.5611,4.5485,4.5509,4.5611,4.5491,4.5448,4.5448,4.5457,4.5438,4.5448,4.5457,4.5437,4.5473,4.5595,4.5705,4.5801,4.5801,4.5801,4.5801,4.5801,4.5801,4.5795,4.5795,4.5795,4.5698,4.5429,4.535,4.5329,4.5309,4.5298,4.5298,4.5298,4.5298,4.5298,4.5298,4.5298,4.5298,4.5298,4.5298,4.5298,4.5298,4.5298,4.5298,4.5298,4.5298,4.5298,4.5298,4.5298,4.5298,4.5298,4.5388,4.54,4.54,4.535,4.5298,4.5298,4.535,4.5418,0.0,0.0,0.0,0.0,0.0,0.0,2.9569,2.9876,3.0686,3.1313,3.1579,3.2396,3.4655,3.5083,3.5433,3.6483,3.7767,3.9181,4.0635,4.0824,4.0824,4.0824,4.0824,4.0824,4.0824,4.1639,4.2493,4.3341,4.4789,4.5673,4.5866,4.5781,4.5673,4.5648,4.5648,4.5599,4.5541,4.5602,4.5611,4.5571,4.5677,4.5751,4.577,4.5783,4.5846,4.5869,4.5869,4.5881,4.5864,4.5864,4.5807,4.5711,4.5705,4.5725,4.5751,4.5711,4.5725,4.5751,4.5718,4.5705,4.5705,4.5711,4.5705,4.5705,4.5711,4.5711,4.5725,4.5815,4.5869,4.5864,4.5864,4.5864,4.5864,4.5864,4.5886,4.5869,4.5869,4.5852,4.577,4.5705,4.5627,4.5526,4.54,4.5371,4.5371,4.5371,4.5371,4.5371,4.5371,4.5371,4.5371,4.5371,4.5371,4.5371,4.5371,4.5371,4.5371,4.5371,4.5371,4.5371,4.5371,4.5371,4.5371,4.5371,4.5381,4.539,4.54,4.5381,4.5371,4.5371,4.5381,4.539,0.0,0.0,0.0,3.208,0.0,0.0,0.0,3.0445,3.0511,3.1743,3.0995,3.0876,3.3487,3.3251,3.3134,3.4416,3.6038,3.7463,3.828,3.9842,4.0907,4.0907,4.0907,4.0907,4.0907,4.1296,4.2073,4.3389,4.4633,4.5541,4.5935,4.5886,4.5809,4.5796,4.5796,4.5768,4.5711,4.5743,4.579,4.5809,4.5864,4.5925,4.6,4.6021,4.6076,4.6084,4.6084,4.6091,4.6098,4.6098,4.6087,4.6021,4.5908,4.5903,4.5954,4.5881,4.5903,4.5954,4.5859,4.5869,4.5858,4.5836,4.5869,4.5858,4.5836,4.5919,4.5964,4.5978,4.606,4.6098,4.6098,4.6098,4.6098,4.6098,4.6091,4.6084,4.6084,4.6076,4.6017,4.5969,4.5919,4.5789,4.5642,4.553,4.5509,4.5509,4.5428,4.54,4.54,4.54,4.54,4.54,4.54,4.54,4.54,4.54,4.54,4.54,4.54,4.54,4.54,4.54,4.5419,4.5448,4.5448,4.5457,4.5485,4.5485,4.5457,4.541,4.5429,4.5448,0.0,0.0,0.0,0.0,0.0,3.2388,0.0,0.0,0.0,3.2006,3.0676,2.9934,3.2157,3.1337,3.0786,3.2301,3.4035,3.5158,3.5135,3.7774,3.976,3.9911,4.0213,4.0402,4.0402,4.0407,4.1223,4.3122,4.3758,4.4584,4.5706,4.5949,4.6022,4.5958,4.5958,4.5903,4.583,4.5853,4.5929,4.6022,4.6037,4.6122,4.6236,4.6292,4.63,4.63,4.63,4.63,4.63,4.63,4.63,4.6292,4.606,4.6052,4.6112,4.6026,4.6052,4.6112,4.6009,4.5969,4.5993,4.5973,4.5969,4.5993,4.5978,4.6033,4.6161,4.6161,4.6233,4.63,4.63,4.63,4.63,4.63,4.63,4.63,4.63,4.63,4.6251,4.617,4.6161,4.6084,4.5842,4.5718,4.5679,4.5679,4.5563,4.5509,4.5509,4.5473,4.5494,4.5494,4.5457,4.5438,4.5438,4.5438,4.5438,4.5438,4.5438,4.5438,4.5438,4.5438,4.5457,4.5532,4.5532,4.555,4.5594,4.5594,4.555,4.5438,4.5475,4.5532,0.0,0.0,0.0,0.0,3.6228,0.0,0.0,0.0,3.1224,2.9182,0.0,2.8672,2.9723,0.0,0.0,2.9796,3.1391,3.2513,3.2452,3.4116,3.5584,3.6374,3.7782,3.8697,3.8697,3.868,3.9695,4.2155,4.1793,4.2478,4.4824,4.5718,4.6165,4.6162,4.6162,4.6103,4.5983,4.6098,4.6115,4.6091,4.6192,4.6255,4.6298,4.63,4.63,4.63,4.63,4.63,4.63,4.63,4.63,4.63,4.6288,4.6249,4.6292,4.6247,4.6249,4.6292,4.6249,4.6247,4.6245,4.6247,4.6247,4.6245,4.6247,4.6251,4.6294,4.6294,4.6296,4.63,4.63,4.63,4.63,4.63,4.63,4.63,4.63,4.63,4.63,4.6294,4.6294,4.6187,4.5949,4.5864,4.5853,4.5853,4.5842,4.583,4.583,4.5809,4.5764,4.5764,4.5632,4.5577,4.5577,4.5577,4.5577,4.5577,4.5577,4.5577,4.5577,4.5577,4.5577,4.5586,4.5586,4.5586,4.5594,4.5594,4.5586,4.5577,4.5586,4.5586,0.0,0.0,0.0,0.0,0.0,0.0,3.2597,0.0,3.1308,0.0,0.0,0.0,0.0,0.0,0.0,0.0,3.0978,3.1751,3.0739,3.2041,3.3807,3.5665,3.608,3.6568,3.7561,3.7179,3.7949,4.0558,4.0007,4.085,4.3899,4.4947,4.568,4.617,4.6209,4.6173,4.6176,4.6238,4.6243,4.6233,4.6253,4.63,4.63,4.63,4.63,4.63,4.63,4.63,4.63,4.63,4.63,4.63,4.63,4.63,4.63,4.63,4.63,4.63,4.63,4.63,4.63,4.63,4.63,4.63,4.63,4.63,4.63,4.63,4.63,4.63,4.63,4.63,4.63,4.63,4.63,4.63,4.63,4.63,4.63,4.63,4.63,4.6251,4.6167,4.608,4.6009,4.6009,4.5959,4.588,4.588,4.5881,4.5846,4.5846,4.5796,4.5764,4.5764,4.5764,4.5764,4.5764,4.5764,4.5764,4.5764,4.5764,4.5764,4.5764,4.5764,4.5764,4.5764,4.5764,4.5764,4.5757,4.5711,4.5704,3.8005,0.0,0.0,0.0,0.0,0.0,0.0,0.0,0.0,0.0,0.0,0.0,0.0,0.0,0.0,0.0,0.0,3.1258,2.9786,3.0624,3.2041,3.3902,3.4208,3.4817,3.6271,3.5224,3.5684,3.8766,3.7816,3.8889,4.2996,4.4079,4.5084,4.6199,4.6238,4.6247,4.63,4.63,4.63,4.63,4.63,4.63,4.63,4.63,4.63,4.63,4.63,4.63,4.63,4.63,4.63,4.63,4.63,4.63,4.63,4.63,4.63,4.63,4.63,4.63,4.63,4.63,4.63,4.63,4.63,4.63,4.63,4.63,4.63,4.63,4.63,4.63,4.63,4.63,4.63,4.6378,4.6612,4.6456,4.6378,4.6612,4.6456,4.63,4.63,4.6233,4.6167,4.6167,4.6084,4.6005,4.6005,4.5983,4.5964,4.5964,4.5901,4.588,4.588,4.588,4.588,4.588,4.588,4.588,4.588,4.588,4.588,4.588,4.588,4.588,4.588,4.588,4.588,4.588,4.5834,4.5822,3.9726,3.9725,3.9177,3.6662,3.6031,3.5094,3.1659,3.2792,3.412,0.0,0.0,0.0,0.0,0.0,0.0,0.0,0.0,0.0,0.0,0.0,0.0,0.0,0.0,0.0,3.4589,3.2428,3.2706,3.6971,3.4952,3.6178,4.213,4.3244,4.4504,4.6222,4.63,4.63,4.63,4.63,4.63,4.63,4.63,4.63,4.63,4.63,4.63,4.63,4.63,4.63,4.63,4.63,4.63,4.63,4.63,4.63,4.63,4.63,4.63,4.63,4.63,4.63,4.63,4.63,4.63,4.63,4.63,4.63,4.63,4.63,4.63,4.63,4.63,4.63,4.63,4.63,4.63,4.6534,4.7391,4.6885,4.6534,4.7391,4.6885,4.63,4.63,4.63,4.6298,4.6298,4.6298,4.6296,4.6296,4.6176,4.6095,4.6095,4.5983,4.588,4.588,4.588,4.588,4.588,4.588,4.588,4.588,4.588,4.588,4.588,4.588,4.588,4.588,4.588,4.588,4.588,4.5919,4.5914,4.0338,4.1087,4.1054,3.9021,3.8082,3.6752,3.3304,3.3651,3.4198,3.2442,0.0,0.0,0.0,0.0,0.0,0.0,0.0,0.0,0.0,0.0,0.0,0.0,0.0,0.0,0.0,3.1313,3.1854,3.4444,3.4412,3.6142,4.0457,4.2582,4.4231,4.5402,4.5987,4.63,4.63,4.63,4.63,4.63,4.63,4.63,4.63,4.63,4.63,4.63,4.63,4.63,4.63,4.63,4.63,4.63,4.63,4.63,4.63,4.63,4.63,4.63,4.63,4.63,4.63,4.63,4.63,4.63,4.63,4.63,4.63,4.63,4.63,4.63,4.63,4.6729,4.7159,4.7159,4.7588,4.8057,4.833,4.8174,4.8057,4.833,4.8174,4.7939,4.7939,4.751,4.6963,4.6378,4.63,4.6495,4.7081,4.7106,4.7292,4.784,4.7864,4.7616,4.707,4.6485,4.6173,4.6173,4.6173,4.6173,4.6173,4.6173,4.6173,4.6173,4.6173,4.6173,4.6173,4.6173,4.6173,4.6173,4.6173,4.6109,4.1679,4.2393,4.241,4.0703,3.9843,3.8514,3.5101,3.5447,3.6033,3.4315,3.5525,0.0,0.0,0.0,0.0,0.0,0.0,0.0,0.0,2.8537,0.0,0.0,0.0,0.0,0.0,3.0278,3.0858,3.3145,3.3601,3.5521,3.957,4.2001,4.3762,4.4971,4.5831,4.63,4.63,4.63,4.63,4.63,4.63,4.63,4.63,4.63,4.63,4.63,4.63,4.63,4.63,4.63,4.63,4.63,4.63,4.63,4.63,4.63,4.63,4.63,4.63,4.63,4.63,4.63,4.6495,4.6768,4.6768,4.6963,4.7198,4.7198,4.7198,4.7198,4.7198,4.7627,4.8017,4.8017,4.8408,4.8876,4.9189,4.9032,4.8876,4.9189,4.8993,4.8798,4.8798,4.8369,4.7822,4.7276,4.6963,4.7081,4.7939,4.8017,4.8213,4.8759,4.8798,4.8486,4.7664,4.7081,4.6612,4.6339,4.63,4.63,4.63,4.63,4.63,4.63,4.63,4.63,4.63,4.63,4.63,4.63,4.63,4.6247]}]]